<?xml version="1.0" encoding="UTF-8" standalone="no" ?>
<gpx xmlns="http://www.topografix.com/GPX/1/1" xmlns:xsi="http://www.w3.org/2001/XMLSchema-instance" xsi:schemaLocation="http://www.topografix.com/GPX/1/1 http://www.topografix.com/GPX/1/1/gpx.xsd" version="1.1" creator="VisuGPX - https://www.visugpx.com">
  <metadata>
    <name>03/07/2016 Vaison - Villedieu et retour</name>
    <desc><![CDATA[Itinéraire de vacances en vélo électrique (VTC).]]></desc>
  </metadata>
  <trk>
    <name><![CDATA[Tracé 3 juil. 2016 10:28:33]]></name>
    <trkseg>
      <trkpt lat="44.23649" lon="5.08993">
        <ele>239.90569613861</ele>
        <time>2016-07-03T08:28:33Z</time>
      </trkpt>
      <trkpt lat="44.23641" lon="5.0899">
        <ele>237.38754538355</ele>
        <time>2016-07-03T08:29:04Z</time>
      </trkpt>
      <trkpt lat="44.23637" lon="5.08979">
        <ele>237.1678037026</ele>
        <time>2016-07-03T08:29:08Z</time>
      </trkpt>
      <trkpt lat="44.23636" lon="5.08965">
        <ele>236.94156694691</ele>
        <time>2016-07-03T08:29:13Z</time>
      </trkpt>
      <trkpt lat="44.2363" lon="5.08956">
        <ele>236.63165099761</ele>
        <time>2016-07-03T08:29:17Z</time>
      </trkpt>
      <trkpt lat="44.23619" lon="5.08947">
        <ele>236.20905054068</ele>
        <time>2016-07-03T08:29:22Z</time>
      </trkpt>
      <trkpt lat="44.23612" lon="5.0894">
        <ele>236.08389823088</ele>
        <time>2016-07-03T08:29:28Z</time>
      </trkpt>
      <trkpt lat="44.23602" lon="5.08941">
        <ele>235.82069871638</ele>
        <time>2016-07-03T08:29:32Z</time>
      </trkpt>
      <trkpt lat="44.2358" lon="5.08952">
        <ele>235.2035654065</ele>
        <time>2016-07-03T08:29:37Z</time>
      </trkpt>
      <trkpt lat="44.23566" lon="5.08958">
        <ele>234.57374490114</ele>
        <time>2016-07-03T08:29:41Z</time>
      </trkpt>
      <trkpt lat="44.23558" lon="5.08965">
        <ele>233.78043624984</ele>
        <time>2016-07-03T08:29:45Z</time>
      </trkpt>
      <trkpt lat="44.23551" lon="5.0897">
        <ele>233.12940757773</ele>
        <time>2016-07-03T08:29:49Z</time>
      </trkpt>
      <trkpt lat="44.23543" lon="5.08978">
        <ele>232.19485000485</ele>
        <time>2016-07-03T08:29:54Z</time>
      </trkpt>
      <trkpt lat="44.23535" lon="5.08984">
        <ele>231.43353113248</ele>
        <time>2016-07-03T08:29:58Z</time>
      </trkpt>
      <trkpt lat="44.2352" lon="5.08992">
        <ele>230.74808621606</ele>
        <time>2016-07-03T08:30:03Z</time>
      </trkpt>
      <trkpt lat="44.2351" lon="5.09">
        <ele>230.2832896035</ele>
        <time>2016-07-03T08:30:08Z</time>
      </trkpt>
      <trkpt lat="44.23502" lon="5.09013">
        <ele>230.23606544689</ele>
        <time>2016-07-03T08:30:13Z</time>
      </trkpt>
      <trkpt lat="44.23505" lon="5.09026">
        <ele>230.45136875915</ele>
        <time>2016-07-03T08:30:17Z</time>
      </trkpt>
      <trkpt lat="44.23507" lon="5.09042">
        <ele>230.84771914551</ele>
        <time>2016-07-03T08:30:21Z</time>
      </trkpt>
      <trkpt lat="44.235" lon="5.09057">
        <ele>231.28541214867</ele>
        <time>2016-07-03T08:30:26Z</time>
      </trkpt>
      <trkpt lat="44.23483" lon="5.09071">
        <ele>231.45316718286</ele>
        <time>2016-07-03T08:30:31Z</time>
      </trkpt>
      <trkpt lat="44.2347" lon="5.09078">
        <ele>231.53735832136</ele>
        <time>2016-07-03T08:30:35Z</time>
      </trkpt>
      <trkpt lat="44.23453" lon="5.09081">
        <ele>231.47001334566</ele>
        <time>2016-07-03T08:30:40Z</time>
      </trkpt>
      <trkpt lat="44.23443" lon="5.09068">
        <ele>231.57927260552</ele>
        <time>2016-07-03T08:30:44Z</time>
      </trkpt>
      <trkpt lat="44.23448" lon="5.09047">
        <ele>231.53035021663</ele>
        <time>2016-07-03T08:30:48Z</time>
      </trkpt>
      <trkpt lat="44.2345" lon="5.09024">
        <ele>228.47249994196</ele>
        <time>2016-07-03T08:30:52Z</time>
      </trkpt>
      <trkpt lat="44.23445" lon="5.09007">
        <ele>228.21666627486</ele>
        <time>2016-07-03T08:30:56Z</time>
      </trkpt>
      <trkpt lat="44.23442" lon="5.08993">
        <ele>228.2220848792</ele>
        <time>2016-07-03T08:31:00Z</time>
      </trkpt>
      <trkpt lat="44.23436" lon="5.08975">
        <ele>228.23289678344</ele>
        <time>2016-07-03T08:31:05Z</time>
      </trkpt>
      <trkpt lat="44.2343" lon="5.08966">
        <ele>227.62829099709</ele>
        <time>2016-07-03T08:31:14Z</time>
      </trkpt>
      <trkpt lat="44.23428" lon="5.08954">
        <ele>226.66721457295</ele>
        <time>2016-07-03T08:31:19Z</time>
      </trkpt>
      <trkpt lat="44.23421" lon="5.08937">
        <ele>226.02315729377</ele>
        <time>2016-07-03T08:31:23Z</time>
      </trkpt>
      <trkpt lat="44.23414" lon="5.08919">
        <ele>225.37207309887</ele>
        <time>2016-07-03T08:31:27Z</time>
      </trkpt>
      <trkpt lat="44.23407" lon="5.08908">
        <ele>224.63062401498</ele>
        <time>2016-07-03T08:31:31Z</time>
      </trkpt>
      <trkpt lat="44.23395" lon="5.08906">
        <ele>223.82079274438</ele>
        <time>2016-07-03T08:31:35Z</time>
      </trkpt>
      <trkpt lat="44.23375" lon="5.08924">
        <ele>219.77452542689</ele>
        <time>2016-07-03T08:31:40Z</time>
      </trkpt>
      <trkpt lat="44.23365" lon="5.08935">
        <ele>217.11598947549</ele>
        <time>2016-07-03T08:31:44Z</time>
      </trkpt>
      <trkpt lat="44.23353" lon="5.08943">
        <ele>216.41313868798</ele>
        <time>2016-07-03T08:31:48Z</time>
      </trkpt>
      <trkpt lat="44.23336" lon="5.08962">
        <ele>213.37688611451</ele>
        <time>2016-07-03T08:31:53Z</time>
      </trkpt>
      <trkpt lat="44.23315" lon="5.08974">
        <ele>212.13016265792</ele>
        <time>2016-07-03T08:31:58Z</time>
      </trkpt>
      <trkpt lat="44.23293" lon="5.08984">
        <ele>212.2693241779</ele>
        <time>2016-07-03T08:32:03Z</time>
      </trkpt>
      <trkpt lat="44.23276" lon="5.0899">
        <ele>213.95362455343</ele>
        <time>2016-07-03T08:32:07Z</time>
      </trkpt>
      <trkpt lat="44.23257" lon="5.08995">
        <ele>216.08922716732</ele>
        <time>2016-07-03T08:32:12Z</time>
      </trkpt>
      <trkpt lat="44.2324" lon="5.08995">
        <ele>217.67937348606</ele>
        <time>2016-07-03T08:32:16Z</time>
      </trkpt>
      <trkpt lat="44.23222" lon="5.08992">
        <ele>218.77694187089</ele>
        <time>2016-07-03T08:32:20Z</time>
      </trkpt>
      <trkpt lat="44.23197" lon="5.08984">
        <ele>217.90830196949</ele>
        <time>2016-07-03T08:32:25Z</time>
      </trkpt>
      <trkpt lat="44.23181" lon="5.08978">
        <ele>215.90272953432</ele>
        <time>2016-07-03T08:32:29Z</time>
      </trkpt>
      <trkpt lat="44.23165" lon="5.08977">
        <ele>216.18749722349</ele>
        <time>2016-07-03T08:32:33Z</time>
      </trkpt>
      <trkpt lat="44.23143" lon="5.08989">
        <ele>216.99943283081</ele>
        <time>2016-07-03T08:32:38Z</time>
      </trkpt>
      <trkpt lat="44.2313" lon="5.09012">
        <ele>216.13891091667</ele>
        <time>2016-07-03T08:32:43Z</time>
      </trkpt>
      <trkpt lat="44.23125" lon="5.09031">
        <ele>216.52867434468</ele>
        <time>2016-07-03T08:32:47Z</time>
      </trkpt>
      <trkpt lat="44.23123" lon="5.09054">
        <ele>221.08108757081</ele>
        <time>2016-07-03T08:32:51Z</time>
      </trkpt>
      <trkpt lat="44.23122" lon="5.09085">
        <ele>222.71622280349</ele>
        <time>2016-07-03T08:32:56Z</time>
      </trkpt>
      <trkpt lat="44.2312" lon="5.09109">
        <ele>223.23685832663</ele>
        <time>2016-07-03T08:33:00Z</time>
      </trkpt>
      <trkpt lat="44.23118" lon="5.09141">
        <ele>222.95114118472</ele>
        <time>2016-07-03T08:33:05Z</time>
      </trkpt>
      <trkpt lat="44.23116" lon="5.09165">
        <ele>222.93002696889</ele>
        <time>2016-07-03T08:33:09Z</time>
      </trkpt>
      <trkpt lat="44.23114" lon="5.09189">
        <ele>224.16817157815</ele>
        <time>2016-07-03T08:33:13Z</time>
      </trkpt>
      <trkpt lat="44.23113" lon="5.0921">
        <ele>225.14730397254</ele>
        <time>2016-07-03T08:33:17Z</time>
      </trkpt>
      <trkpt lat="44.23112" lon="5.09236">
        <ele>226.75279565284</ele>
        <time>2016-07-03T08:33:22Z</time>
      </trkpt>
      <trkpt lat="44.2311" lon="5.09261">
        <ele>227.36391742684</ele>
        <time>2016-07-03T08:33:27Z</time>
      </trkpt>
      <trkpt lat="44.23109" lon="5.09281">
        <ele>227.65471706315</ele>
        <time>2016-07-03T08:33:31Z</time>
      </trkpt>
      <trkpt lat="44.23107" lon="5.09299">
        <ele>227.86270215249</ele>
        <time>2016-07-03T08:33:35Z</time>
      </trkpt>
      <trkpt lat="44.23107" lon="5.09322">
        <ele>228.16758388978</ele>
        <time>2016-07-03T08:33:40Z</time>
      </trkpt>
      <trkpt lat="44.23105" lon="5.09344">
        <ele>228.4308277623</ele>
        <time>2016-07-03T08:33:44Z</time>
      </trkpt>
      <trkpt lat="44.23103" lon="5.09371">
        <ele>229.01340335545</ele>
        <time>2016-07-03T08:33:48Z</time>
      </trkpt>
      <trkpt lat="44.23101" lon="5.09397">
        <ele>229.40950642525</ele>
        <time>2016-07-03T08:33:52Z</time>
      </trkpt>
      <trkpt lat="44.23099" lon="5.09427">
        <ele>229.16101168494</ele>
        <time>2016-07-03T08:33:56Z</time>
      </trkpt>
      <trkpt lat="44.23093" lon="5.09466">
        <ele>229.4315823783</ele>
        <time>2016-07-03T08:34:01Z</time>
      </trkpt>
      <trkpt lat="44.23087" lon="5.09495">
        <ele>229.75707185873</ele>
        <time>2016-07-03T08:34:05Z</time>
      </trkpt>
      <trkpt lat="44.23077" lon="5.09531">
        <ele>229.58051627473</ele>
        <time>2016-07-03T08:34:10Z</time>
      </trkpt>
      <trkpt lat="44.2307" lon="5.09559">
        <ele>229.93576902082</ele>
        <time>2016-07-03T08:34:14Z</time>
      </trkpt>
      <trkpt lat="44.23064" lon="5.09586">
        <ele>229.93974114721</ele>
        <time>2016-07-03T08:34:18Z</time>
      </trkpt>
      <trkpt lat="44.23058" lon="5.09618">
        <ele>230.80937808471</ele>
        <time>2016-07-03T08:34:23Z</time>
      </trkpt>
      <trkpt lat="44.23053" lon="5.09643">
        <ele>234.03037818449</ele>
        <time>2016-07-03T08:34:27Z</time>
      </trkpt>
      <trkpt lat="44.23033" lon="5.09666">
        <ele>233.23782012784</ele>
        <time>2016-07-03T08:34:32Z</time>
      </trkpt>
      <trkpt lat="44.23008" lon="5.09693">
        <ele>230.70427746844</ele>
        <time>2016-07-03T08:34:37Z</time>
      </trkpt>
      <trkpt lat="44.22982" lon="5.09729">
        <ele>230.9505124024</ele>
        <time>2016-07-03T08:34:42Z</time>
      </trkpt>
      <trkpt lat="44.22962" lon="5.09758">
        <ele>231.29596352968</ele>
        <time>2016-07-03T08:34:46Z</time>
      </trkpt>
      <trkpt lat="44.22939" lon="5.09789">
        <ele>231.81448045857</ele>
        <time>2016-07-03T08:34:51Z</time>
      </trkpt>
      <trkpt lat="44.22921" lon="5.0981">
        <ele>232.10660118408</ele>
        <time>2016-07-03T08:34:55Z</time>
      </trkpt>
      <trkpt lat="44.22901" lon="5.09832">
        <ele>231.29563562421</ele>
        <time>2016-07-03T08:34:59Z</time>
      </trkpt>
      <trkpt lat="44.22883" lon="5.09855">
        <ele>230.19527097285</ele>
        <time>2016-07-03T08:35:03Z</time>
      </trkpt>
      <trkpt lat="44.22862" lon="5.09884">
        <ele>230.15796341508</ele>
        <time>2016-07-03T08:35:08Z</time>
      </trkpt>
      <trkpt lat="44.2285" lon="5.09909">
        <ele>229.82584085044</ele>
        <time>2016-07-03T08:35:12Z</time>
      </trkpt>
      <trkpt lat="44.22834" lon="5.09932">
        <ele>228.29163715556</ele>
        <time>2016-07-03T08:35:16Z</time>
      </trkpt>
      <trkpt lat="44.22808" lon="5.09955">
        <ele>228.70482232443</ele>
        <time>2016-07-03T08:35:21Z</time>
      </trkpt>
      <trkpt lat="44.22785" lon="5.09971">
        <ele>227.93865931577</ele>
        <time>2016-07-03T08:35:25Z</time>
      </trkpt>
      <trkpt lat="44.22763" lon="5.10004">
        <ele>225.79678610121</ele>
        <time>2016-07-03T08:35:29Z</time>
      </trkpt>
      <trkpt lat="44.22742" lon="5.1005">
        <ele>224.99056777047</ele>
        <time>2016-07-03T08:35:34Z</time>
      </trkpt>
      <trkpt lat="44.22726" lon="5.10087">
        <ele>224.99899790903</ele>
        <time>2016-07-03T08:35:38Z</time>
      </trkpt>
      <trkpt lat="44.22704" lon="5.10127">
        <ele>224.35360806693</ele>
        <time>2016-07-03T08:35:43Z</time>
      </trkpt>
      <trkpt lat="44.22688" lon="5.10153">
        <ele>223.80914571024</ele>
        <time>2016-07-03T08:35:47Z</time>
      </trkpt>
      <trkpt lat="44.22677" lon="5.10178">
        <ele>222.91086026768</ele>
        <time>2016-07-03T08:35:51Z</time>
      </trkpt>
      <trkpt lat="44.22667" lon="5.10211">
        <ele>222.95030197958</ele>
        <time>2016-07-03T08:35:56Z</time>
      </trkpt>
      <trkpt lat="44.22657" lon="5.10242">
        <ele>224.66446636627</ele>
        <time>2016-07-03T08:36:01Z</time>
      </trkpt>
      <trkpt lat="44.22648" lon="5.10264">
        <ele>227.40933623985</ele>
        <time>2016-07-03T08:36:05Z</time>
      </trkpt>
      <trkpt lat="44.22639" lon="5.1029">
        <ele>228.7571037588</ele>
        <time>2016-07-03T08:36:09Z</time>
      </trkpt>
      <trkpt lat="44.22631" lon="5.10315">
        <ele>228.79922172647</ele>
        <time>2016-07-03T08:36:13Z</time>
      </trkpt>
      <trkpt lat="44.22629" lon="5.10342">
        <ele>228.57792986828</ele>
        <time>2016-07-03T08:36:17Z</time>
      </trkpt>
      <trkpt lat="44.22634" lon="5.1038">
        <ele>229.29688772661</ele>
        <time>2016-07-03T08:36:22Z</time>
      </trkpt>
      <trkpt lat="44.22642" lon="5.10407">
        <ele>230.63402622323</ele>
        <time>2016-07-03T08:36:26Z</time>
      </trkpt>
      <trkpt lat="44.22654" lon="5.10433">
        <ele>233.26656466635</ele>
        <time>2016-07-03T08:36:31Z</time>
      </trkpt>
      <trkpt lat="44.22667" lon="5.10455">
        <ele>236.45240694825</ele>
        <time>2016-07-03T08:36:36Z</time>
      </trkpt>
      <trkpt lat="44.22676" lon="5.10468">
        <ele>239.61257910889</ele>
        <time>2016-07-03T08:36:40Z</time>
      </trkpt>
      <trkpt lat="44.22686" lon="5.10482">
        <ele>244.77411158472</ele>
        <time>2016-07-03T08:36:44Z</time>
      </trkpt>
      <trkpt lat="44.22692" lon="5.10509">
        <ele>249.74145552677</ele>
        <time>2016-07-03T08:36:49Z</time>
      </trkpt>
      <trkpt lat="44.22681" lon="5.10531">
        <ele>248.84513929739</ele>
        <time>2016-07-03T08:36:54Z</time>
      </trkpt>
      <trkpt lat="44.22662" lon="5.10549">
        <ele>247.64184554449</ele>
        <time>2016-07-03T08:36:59Z</time>
      </trkpt>
      <trkpt lat="44.22649" lon="5.1056">
        <ele>246.2934225697</ele>
        <time>2016-07-03T08:37:03Z</time>
      </trkpt>
      <trkpt lat="44.22639" lon="5.10577">
        <ele>246.47774201128</ele>
        <time>2016-07-03T08:37:08Z</time>
      </trkpt>
      <trkpt lat="44.22629" lon="5.106">
        <ele>249.20011099301</ele>
        <time>2016-07-03T08:37:12Z</time>
      </trkpt>
      <trkpt lat="44.22621" lon="5.10623">
        <ele>250.49608132048</ele>
        <time>2016-07-03T08:37:16Z</time>
      </trkpt>
      <trkpt lat="44.22613" lon="5.10651">
        <ele>249.98541077798</ele>
        <time>2016-07-03T08:37:20Z</time>
      </trkpt>
      <trkpt lat="44.22604" lon="5.10675">
        <ele>250.35395816051</ele>
        <time>2016-07-03T08:37:24Z</time>
      </trkpt>
      <trkpt lat="44.22597" lon="5.10698">
        <ele>250.64746816445</ele>
        <time>2016-07-03T08:37:28Z</time>
      </trkpt>
      <trkpt lat="44.22591" lon="5.10719">
        <ele>251.16061485621</ele>
        <time>2016-07-03T08:37:32Z</time>
      </trkpt>
      <trkpt lat="44.22588" lon="5.10742">
        <ele>251.34745844508</ele>
        <time>2016-07-03T08:37:36Z</time>
      </trkpt>
      <trkpt lat="44.22584" lon="5.10773">
        <ele>251.71670830822</ele>
        <time>2016-07-03T08:37:41Z</time>
      </trkpt>
      <trkpt lat="44.22583" lon="5.10804">
        <ele>251.10750425645</ele>
        <time>2016-07-03T08:37:46Z</time>
      </trkpt>
      <trkpt lat="44.22583" lon="5.1083">
        <ele>252.39902071817</ele>
        <time>2016-07-03T08:37:50Z</time>
      </trkpt>
      <trkpt lat="44.22583" lon="5.10856">
        <ele>252.45388877629</ele>
        <time>2016-07-03T08:37:55Z</time>
      </trkpt>
      <trkpt lat="44.22577" lon="5.10882">
        <ele>252.49286419356</ele>
        <time>2016-07-03T08:38:00Z</time>
      </trkpt>
      <trkpt lat="44.22566" lon="5.10896">
        <ele>253.92603259827</ele>
        <time>2016-07-03T08:38:04Z</time>
      </trkpt>
      <trkpt lat="44.2255" lon="5.10909">
        <ele>256.31506745057</ele>
        <time>2016-07-03T08:38:08Z</time>
      </trkpt>
      <trkpt lat="44.22526" lon="5.10925">
        <ele>259.96430536339</ele>
        <time>2016-07-03T08:38:13Z</time>
      </trkpt>
      <trkpt lat="44.22511" lon="5.10935">
        <ele>260.99362630962</ele>
        <time>2016-07-03T08:38:17Z</time>
      </trkpt>
      <trkpt lat="44.22489" lon="5.10949">
        <ele>260.55293184215</ele>
        <time>2016-07-03T08:38:22Z</time>
      </trkpt>
      <trkpt lat="44.22471" lon="5.10963">
        <ele>261.4125170488</ele>
        <time>2016-07-03T08:38:26Z</time>
      </trkpt>
      <trkpt lat="44.22456" lon="5.10977">
        <ele>261.77591485379</ele>
        <time>2016-07-03T08:38:30Z</time>
      </trkpt>
      <trkpt lat="44.2244" lon="5.10995">
        <ele>262.23203589624</ele>
        <time>2016-07-03T08:38:34Z</time>
      </trkpt>
      <trkpt lat="44.22421" lon="5.11024">
        <ele>260.92445652958</ele>
        <time>2016-07-03T08:38:39Z</time>
      </trkpt>
      <trkpt lat="44.22413" lon="5.11051">
        <ele>259.32915678167</ele>
        <time>2016-07-03T08:38:43Z</time>
      </trkpt>
      <trkpt lat="44.22407" lon="5.1109">
        <ele>258.49866677897</ele>
        <time>2016-07-03T08:38:48Z</time>
      </trkpt>
      <trkpt lat="44.22402" lon="5.11117">
        <ele>259.01802343478</ele>
        <time>2016-07-03T08:38:52Z</time>
      </trkpt>
      <trkpt lat="44.22396" lon="5.11153">
        <ele>258.71302932474</ele>
        <time>2016-07-03T08:38:57Z</time>
      </trkpt>
      <trkpt lat="44.22389" lon="5.11189">
        <ele>258.42985917004</ele>
        <time>2016-07-03T08:39:02Z</time>
      </trkpt>
      <trkpt lat="44.22382" lon="5.11223">
        <ele>258.42075300544</ele>
        <time>2016-07-03T08:39:07Z</time>
      </trkpt>
      <trkpt lat="44.22371" lon="5.11261">
        <ele>258.492108468</ele>
        <time>2016-07-03T08:39:12Z</time>
      </trkpt>
      <trkpt lat="44.22353" lon="5.11296">
        <ele>258.40547492403</ele>
        <time>2016-07-03T08:39:16Z</time>
      </trkpt>
      <trkpt lat="44.22338" lon="5.11347">
        <ele>257.26891415927</ele>
        <time>2016-07-03T08:39:21Z</time>
      </trkpt>
      <trkpt lat="44.22341" lon="5.11398">
        <ele>255.96404011777</ele>
        <time>2016-07-03T08:39:25Z</time>
      </trkpt>
      <trkpt lat="44.22347" lon="5.1145">
        <ele>257.93981026503</ele>
        <time>2016-07-03T08:39:29Z</time>
      </trkpt>
      <trkpt lat="44.22361" lon="5.11519">
        <ele>256.47257490901</ele>
        <time>2016-07-03T08:39:34Z</time>
      </trkpt>
      <trkpt lat="44.22381" lon="5.11578">
        <ele>253.20292859758</ele>
        <time>2016-07-03T08:39:38Z</time>
      </trkpt>
      <trkpt lat="44.22412" lon="5.11649">
        <ele>246.77875593284</ele>
        <time>2016-07-03T08:39:43Z</time>
      </trkpt>
      <trkpt lat="44.22435" lon="5.11705">
        <ele>241.02958779083</ele>
        <time>2016-07-03T08:39:47Z</time>
      </trkpt>
      <trkpt lat="44.22452" lon="5.11774">
        <ele>237.24311526201</ele>
        <time>2016-07-03T08:39:52Z</time>
      </trkpt>
      <trkpt lat="44.22464" lon="5.11835">
        <ele>235.13647954701</ele>
        <time>2016-07-03T08:39:57Z</time>
      </trkpt>
      <trkpt lat="44.22472" lon="5.11876">
        <ele>234.68631399308</ele>
        <time>2016-07-03T08:40:01Z</time>
      </trkpt>
      <trkpt lat="44.2248" lon="5.11922">
        <ele>234.20112447768</ele>
        <time>2016-07-03T08:40:06Z</time>
      </trkpt>
      <trkpt lat="44.22488" lon="5.11968">
        <ele>233.77408559412</ele>
        <time>2016-07-03T08:40:11Z</time>
      </trkpt>
      <trkpt lat="44.22499" lon="5.12013">
        <ele>233.5626965652</ele>
        <time>2016-07-03T08:40:16Z</time>
      </trkpt>
      <trkpt lat="44.22513" lon="5.12056">
        <ele>233.41423097566</ele>
        <time>2016-07-03T08:40:21Z</time>
      </trkpt>
      <trkpt lat="44.22529" lon="5.12097">
        <ele>233.48787581974</ele>
        <time>2016-07-03T08:40:26Z</time>
      </trkpt>
      <trkpt lat="44.2254" lon="5.12129">
        <ele>232.96629715306</ele>
        <time>2016-07-03T08:40:30Z</time>
      </trkpt>
      <trkpt lat="44.22554" lon="5.12169">
        <ele>232.9174651661</ele>
        <time>2016-07-03T08:40:35Z</time>
      </trkpt>
      <trkpt lat="44.22565" lon="5.12199">
        <ele>232.13793573112</ele>
        <time>2016-07-03T08:40:39Z</time>
      </trkpt>
      <trkpt lat="44.22577" lon="5.12228">
        <ele>231.79052796348</ele>
        <time>2016-07-03T08:40:43Z</time>
      </trkpt>
      <trkpt lat="44.22593" lon="5.12263">
        <ele>232.2423759005</ele>
        <time>2016-07-03T08:40:48Z</time>
      </trkpt>
      <trkpt lat="44.22609" lon="5.12289">
        <ele>234.25521945419</ele>
        <time>2016-07-03T08:40:52Z</time>
      </trkpt>
      <trkpt lat="44.22629" lon="5.12318">
        <ele>236.39709004812</ele>
        <time>2016-07-03T08:40:57Z</time>
      </trkpt>
      <trkpt lat="44.22643" lon="5.12342">
        <ele>238.85190289874</ele>
        <time>2016-07-03T08:41:01Z</time>
      </trkpt>
      <trkpt lat="44.22656" lon="5.12365">
        <ele>240.38750191498</ele>
        <time>2016-07-03T08:41:05Z</time>
      </trkpt>
      <trkpt lat="44.22669" lon="5.1239">
        <ele>242.30243108686</ele>
        <time>2016-07-03T08:41:09Z</time>
      </trkpt>
      <trkpt lat="44.22688" lon="5.12428">
        <ele>240.80934362023</ele>
        <time>2016-07-03T08:41:14Z</time>
      </trkpt>
      <trkpt lat="44.22702" lon="5.12464">
        <ele>237.86173723511</ele>
        <time>2016-07-03T08:41:19Z</time>
      </trkpt>
      <trkpt lat="44.22711" lon="5.12492">
        <ele>235.64359771857</ele>
        <time>2016-07-03T08:41:23Z</time>
      </trkpt>
      <trkpt lat="44.22717" lon="5.12516">
        <ele>234.38867733211</ele>
        <time>2016-07-03T08:41:27Z</time>
      </trkpt>
      <trkpt lat="44.22725" lon="5.12548">
        <ele>234.61431235219</ele>
        <time>2016-07-03T08:41:32Z</time>
      </trkpt>
      <trkpt lat="44.22729" lon="5.12575">
        <ele>235.95532792689</ele>
        <time>2016-07-03T08:41:37Z</time>
      </trkpt>
      <trkpt lat="44.22729" lon="5.12602">
        <ele>240.52114638422</ele>
        <time>2016-07-03T08:41:41Z</time>
      </trkpt>
      <trkpt lat="44.22728" lon="5.12629">
        <ele>242.1679619109</ele>
        <time>2016-07-03T08:41:45Z</time>
      </trkpt>
      <trkpt lat="44.2273" lon="5.12654">
        <ele>239.41989002894</ele>
        <time>2016-07-03T08:41:49Z</time>
      </trkpt>
      <trkpt lat="44.22728" lon="5.12679">
        <ele>239.15622984079</ele>
        <time>2016-07-03T08:41:53Z</time>
      </trkpt>
      <trkpt lat="44.22722" lon="5.1271">
        <ele>237.18244720037</ele>
        <time>2016-07-03T08:41:58Z</time>
      </trkpt>
      <trkpt lat="44.22717" lon="5.12733">
        <ele>235.75522237408</ele>
        <time>2016-07-03T08:42:02Z</time>
      </trkpt>
      <trkpt lat="44.2271" lon="5.1276">
        <ele>233.40908626543</ele>
        <time>2016-07-03T08:42:06Z</time>
      </trkpt>
      <trkpt lat="44.22704" lon="5.12786">
        <ele>232.02914048065</ele>
        <time>2016-07-03T08:42:10Z</time>
      </trkpt>
      <trkpt lat="44.22697" lon="5.12819">
        <ele>230.12252882994</ele>
        <time>2016-07-03T08:42:15Z</time>
      </trkpt>
      <trkpt lat="44.227" lon="5.12849">
        <ele>231.37255044222</ele>
        <time>2016-07-03T08:42:19Z</time>
      </trkpt>
      <trkpt lat="44.227" lon="5.12876">
        <ele>232.97140684354</ele>
        <time>2016-07-03T08:42:23Z</time>
      </trkpt>
      <trkpt lat="44.22693" lon="5.12897">
        <ele>233.65486978222</ele>
        <time>2016-07-03T08:42:27Z</time>
      </trkpt>
      <trkpt lat="44.22678" lon="5.12924">
        <ele>233.31448575995</ele>
        <time>2016-07-03T08:42:32Z</time>
      </trkpt>
      <trkpt lat="44.2267" lon="5.12945">
        <ele>233.10916163455</ele>
        <time>2016-07-03T08:42:36Z</time>
      </trkpt>
      <trkpt lat="44.22668" lon="5.12971">
        <ele>234.02875383426</ele>
        <time>2016-07-03T08:42:40Z</time>
      </trkpt>
      <trkpt lat="44.2267" lon="5.13008">
        <ele>234.31591986326</ele>
        <time>2016-07-03T08:42:45Z</time>
      </trkpt>
      <trkpt lat="44.22669" lon="5.13033">
        <ele>235.44562919451</ele>
        <time>2016-07-03T08:42:49Z</time>
      </trkpt>
      <trkpt lat="44.22667" lon="5.13056">
        <ele>238.32891523625</ele>
        <time>2016-07-03T08:42:53Z</time>
      </trkpt>
      <trkpt lat="44.22664" lon="5.13081">
        <ele>239.8311475361</ele>
        <time>2016-07-03T08:42:57Z</time>
      </trkpt>
      <trkpt lat="44.22661" lon="5.13118">
        <ele>242.00740165055</ele>
        <time>2016-07-03T08:43:02Z</time>
      </trkpt>
      <trkpt lat="44.22661" lon="5.13155">
        <ele>244.48328132977</ele>
        <time>2016-07-03T08:43:07Z</time>
      </trkpt>
      <trkpt lat="44.22667" lon="5.13181">
        <ele>243.92217453387</ele>
        <time>2016-07-03T08:43:11Z</time>
      </trkpt>
      <trkpt lat="44.22681" lon="5.13202">
        <ele>242.38186099751</ele>
        <time>2016-07-03T08:43:15Z</time>
      </trkpt>
      <trkpt lat="44.22695" lon="5.13215">
        <ele>244.16790878264</ele>
        <time>2016-07-03T08:43:19Z</time>
      </trkpt>
      <trkpt lat="44.22714" lon="5.13227">
        <ele>245.14700628437</ele>
        <time>2016-07-03T08:43:23Z</time>
      </trkpt>
      <trkpt lat="44.22732" lon="5.13239">
        <ele>245.7451128023</ele>
        <time>2016-07-03T08:43:27Z</time>
      </trkpt>
      <trkpt lat="44.2275" lon="5.1325">
        <ele>245.41671114846</ele>
        <time>2016-07-03T08:43:31Z</time>
      </trkpt>
      <trkpt lat="44.22768" lon="5.1326">
        <ele>245.42206691316</ele>
        <time>2016-07-03T08:43:36Z</time>
      </trkpt>
      <trkpt lat="44.22784" lon="5.1327">
        <ele>246.98515814956</ele>
        <time>2016-07-03T08:43:40Z</time>
      </trkpt>
      <trkpt lat="44.22805" lon="5.13284">
        <ele>247.1243208236</ele>
        <time>2016-07-03T08:43:45Z</time>
      </trkpt>
      <trkpt lat="44.22819" lon="5.13293">
        <ele>248.76030740088</ele>
        <time>2016-07-03T08:43:49Z</time>
      </trkpt>
      <trkpt lat="44.2284" lon="5.13305">
        <ele>248.89403611447</ele>
        <time>2016-07-03T08:43:54Z</time>
      </trkpt>
      <trkpt lat="44.22861" lon="5.13318">
        <ele>248.24555891602</ele>
        <time>2016-07-03T08:43:59Z</time>
      </trkpt>
      <trkpt lat="44.2288" lon="5.1333">
        <ele>249.04966436657</ele>
        <time>2016-07-03T08:44:04Z</time>
      </trkpt>
      <trkpt lat="44.22893" lon="5.13334">
        <ele>249.54356271225</ele>
        <time>2016-07-03T08:44:08Z</time>
      </trkpt>
      <trkpt lat="44.229" lon="5.13324">
        <ele>249.762874411</ele>
        <time>2016-07-03T08:44:13Z</time>
      </trkpt>
      <trkpt lat="44.22897" lon="5.13307">
        <ele>250.16522991066</ele>
        <time>2016-07-03T08:44:18Z</time>
      </trkpt>
      <trkpt lat="44.22895" lon="5.1329">
        <ele>250.61996556537</ele>
        <time>2016-07-03T08:44:22Z</time>
      </trkpt>
      <trkpt lat="44.22892" lon="5.13275">
        <ele>251.18534788831</ele>
        <time>2016-07-03T08:44:26Z</time>
      </trkpt>
      <trkpt lat="44.2289" lon="5.13259">
        <ele>251.67001608223</ele>
        <time>2016-07-03T08:44:30Z</time>
      </trkpt>
      <trkpt lat="44.22884" lon="5.13239">
        <ele>252.33414628267</ele>
        <time>2016-07-03T08:44:34Z</time>
      </trkpt>
      <trkpt lat="44.22879" lon="5.13219">
        <ele>253.22020674814</ele>
        <time>2016-07-03T08:44:39Z</time>
      </trkpt>
      <trkpt lat="44.22875" lon="5.13203">
        <ele>253.74346764511</ele>
        <time>2016-07-03T08:44:43Z</time>
      </trkpt>
      <trkpt lat="44.22869" lon="5.13183">
        <ele>254.98126213308</ele>
        <time>2016-07-03T08:44:47Z</time>
      </trkpt>
      <trkpt lat="44.22866" lon="5.13165">
        <ele>255.18212776052</ele>
        <time>2016-07-03T08:44:51Z</time>
      </trkpt>
      <trkpt lat="44.22863" lon="5.13148">
        <ele>255.45612359289</ele>
        <time>2016-07-03T08:44:55Z</time>
      </trkpt>
      <trkpt lat="44.2286" lon="5.13128">
        <ele>256.39449797685</ele>
        <time>2016-07-03T08:44:59Z</time>
      </trkpt>
      <trkpt lat="44.22856" lon="5.13111">
        <ele>257.28895480621</ele>
        <time>2016-07-03T08:45:03Z</time>
      </trkpt>
      <trkpt lat="44.2285" lon="5.1309">
        <ele>259.30468200847</ele>
        <time>2016-07-03T08:45:07Z</time>
      </trkpt>
      <trkpt lat="44.22837" lon="5.13066">
        <ele>260.92177342212</ele>
        <time>2016-07-03T08:45:12Z</time>
      </trkpt>
      <trkpt lat="44.22824" lon="5.13045">
        <ele>261.81902115331</ele>
        <time>2016-07-03T08:45:16Z</time>
      </trkpt>
      <trkpt lat="44.22807" lon="5.13024">
        <ele>256.25188797808</ele>
        <time>2016-07-03T08:45:21Z</time>
      </trkpt>
      <trkpt lat="44.22795" lon="5.13005">
        <ele>255.30776829632</ele>
        <time>2016-07-03T08:45:25Z</time>
      </trkpt>
      <trkpt lat="44.22785" lon="5.12983">
        <ele>254.09725324443</ele>
        <time>2016-07-03T08:45:29Z</time>
      </trkpt>
      <trkpt lat="44.22803" lon="5.12963">
        <ele>255.64010619252</ele>
        <time>2016-07-03T08:45:34Z</time>
      </trkpt>
      <trkpt lat="44.22825" lon="5.12963">
        <ele>257.74258919354</ele>
        <time>2016-07-03T08:45:38Z</time>
      </trkpt>
      <trkpt lat="44.22846" lon="5.1297">
        <ele>259.16089005554</ele>
        <time>2016-07-03T08:45:42Z</time>
      </trkpt>
      <trkpt lat="44.22868" lon="5.12984">
        <ele>262.22968154089</ele>
        <time>2016-07-03T08:45:46Z</time>
      </trkpt>
      <trkpt lat="44.22894" lon="5.13005">
        <ele>266.79262128044</ele>
        <time>2016-07-03T08:45:51Z</time>
      </trkpt>
      <trkpt lat="44.22924" lon="5.13022">
        <ele>269.88281393294</ele>
        <time>2016-07-03T08:45:56Z</time>
      </trkpt>
      <trkpt lat="44.22955" lon="5.13036">
        <ele>269.84325862172</ele>
        <time>2016-07-03T08:46:00Z</time>
      </trkpt>
      <trkpt lat="44.22994" lon="5.13052">
        <ele>265.17250839302</ele>
        <time>2016-07-03T08:46:04Z</time>
      </trkpt>
      <trkpt lat="44.23031" lon="5.1306">
        <ele>259.7294707339</ele>
        <time>2016-07-03T08:46:08Z</time>
      </trkpt>
      <trkpt lat="44.2307" lon="5.1306">
        <ele>256.55511907521</ele>
        <time>2016-07-03T08:46:12Z</time>
      </trkpt>
      <trkpt lat="44.23109" lon="5.13051">
        <ele>252.76566011427</ele>
        <time>2016-07-03T08:46:17Z</time>
      </trkpt>
      <trkpt lat="44.23126" lon="5.13025">
        <ele>250.87624215932</ele>
        <time>2016-07-03T08:46:21Z</time>
      </trkpt>
      <trkpt lat="44.23129" lon="5.12988">
        <ele>249.49948147384</ele>
        <time>2016-07-03T08:46:25Z</time>
      </trkpt>
      <trkpt lat="44.2312" lon="5.1295">
        <ele>247.71101870807</ele>
        <time>2016-07-03T08:46:30Z</time>
      </trkpt>
      <trkpt lat="44.23109" lon="5.12923">
        <ele>247.46053218483</ele>
        <time>2016-07-03T08:46:35Z</time>
      </trkpt>
      <trkpt lat="44.23115" lon="5.12904">
        <ele>248.98251563172</ele>
        <time>2016-07-03T08:46:39Z</time>
      </trkpt>
      <trkpt lat="44.23132" lon="5.12902">
        <ele>251.72359492754</ele>
        <time>2016-07-03T08:46:44Z</time>
      </trkpt>
      <trkpt lat="44.23152" lon="5.12906">
        <ele>252.71864631098</ele>
        <time>2016-07-03T08:46:48Z</time>
      </trkpt>
      <trkpt lat="44.23169" lon="5.12907">
        <ele>253.01369111107</ele>
        <time>2016-07-03T08:46:52Z</time>
      </trkpt>
      <trkpt lat="44.23186" lon="5.12907">
        <ele>255.15975562462</ele>
        <time>2016-07-03T08:46:56Z</time>
      </trkpt>
      <trkpt lat="44.23208" lon="5.12902">
        <ele>258.41898281181</ele>
        <time>2016-07-03T08:47:01Z</time>
      </trkpt>
      <trkpt lat="44.23229" lon="5.12899">
        <ele>259.346484583</ele>
        <time>2016-07-03T08:47:06Z</time>
      </trkpt>
      <trkpt lat="44.23245" lon="5.12896">
        <ele>259.37442330551</ele>
        <time>2016-07-03T08:47:10Z</time>
      </trkpt>
      <trkpt lat="44.23265" lon="5.12893">
        <ele>259.69981414069</ele>
        <time>2016-07-03T08:47:15Z</time>
      </trkpt>
      <trkpt lat="44.23278" lon="5.12898">
        <ele>261.24086208956</ele>
        <time>2016-07-03T08:47:19Z</time>
      </trkpt>
      <trkpt lat="44.23293" lon="5.12907">
        <ele>265.02595485895</ele>
        <time>2016-07-03T08:47:23Z</time>
      </trkpt>
      <trkpt lat="44.23306" lon="5.12916">
        <ele>266.8767141775</ele>
        <time>2016-07-03T08:47:28Z</time>
      </trkpt>
      <trkpt lat="44.2332" lon="5.12921">
        <ele>273.26797956931</ele>
        <time>2016-07-03T08:47:32Z</time>
      </trkpt>
      <trkpt lat="44.23337" lon="5.12922">
        <ele>273.63448757173</ele>
        <time>2016-07-03T08:47:36Z</time>
      </trkpt>
      <trkpt lat="44.23352" lon="5.12917">
        <ele>271.71205863205</ele>
        <time>2016-07-03T08:47:40Z</time>
      </trkpt>
      <trkpt lat="44.23374" lon="5.12909">
        <ele>267.0164607849</ele>
        <time>2016-07-03T08:47:45Z</time>
      </trkpt>
      <trkpt lat="44.2339" lon="5.12905">
        <ele>267.4035090202</ele>
        <time>2016-07-03T08:47:49Z</time>
      </trkpt>
      <trkpt lat="44.23412" lon="5.12903">
        <ele>267.20528485162</ele>
        <time>2016-07-03T08:47:54Z</time>
      </trkpt>
      <trkpt lat="44.23433" lon="5.12905">
        <ele>267.05945246702</ele>
        <time>2016-07-03T08:47:59Z</time>
      </trkpt>
      <trkpt lat="44.23451" lon="5.12909">
        <ele>268.72072063236</ele>
        <time>2016-07-03T08:48:03Z</time>
      </trkpt>
      <trkpt lat="44.23469" lon="5.12913">
        <ele>271.10253485103</ele>
        <time>2016-07-03T08:48:07Z</time>
      </trkpt>
      <trkpt lat="44.23486" lon="5.12917">
        <ele>274.09861466514</ele>
        <time>2016-07-03T08:48:11Z</time>
      </trkpt>
      <trkpt lat="44.23505" lon="5.12921">
        <ele>275.39040602596</ele>
        <time>2016-07-03T08:48:15Z</time>
      </trkpt>
      <trkpt lat="44.23526" lon="5.12925">
        <ele>273.90937852287</ele>
        <time>2016-07-03T08:48:19Z</time>
      </trkpt>
      <trkpt lat="44.23549" lon="5.12928">
        <ele>273.21141125467</ele>
        <time>2016-07-03T08:48:23Z</time>
      </trkpt>
      <trkpt lat="44.23569" lon="5.12925">
        <ele>274.31678059477</ele>
        <time>2016-07-03T08:48:27Z</time>
      </trkpt>
      <trkpt lat="44.23587" lon="5.12919">
        <ele>275.21464220496</ele>
        <time>2016-07-03T08:48:31Z</time>
      </trkpt>
      <trkpt lat="44.23605" lon="5.12912">
        <ele>275.44229134924</ele>
        <time>2016-07-03T08:48:35Z</time>
      </trkpt>
      <trkpt lat="44.23624" lon="5.12905">
        <ele>275.77836410363</ele>
        <time>2016-07-03T08:48:39Z</time>
      </trkpt>
      <trkpt lat="44.23642" lon="5.12897">
        <ele>276.7201542686</ele>
        <time>2016-07-03T08:48:43Z</time>
      </trkpt>
      <trkpt lat="44.23655" lon="5.12889">
        <ele>277.19248219607</ele>
        <time>2016-07-03T08:48:47Z</time>
      </trkpt>
      <trkpt lat="44.2367" lon="5.12877">
        <ele>277.01007259172</ele>
        <time>2016-07-03T08:48:51Z</time>
      </trkpt>
      <trkpt lat="44.23686" lon="5.12861">
        <ele>277.89396877171</ele>
        <time>2016-07-03T08:48:55Z</time>
      </trkpt>
      <trkpt lat="44.23707" lon="5.12848">
        <ele>279.56538678766</ele>
        <time>2016-07-03T08:49:00Z</time>
      </trkpt>
      <trkpt lat="44.23726" lon="5.12849">
        <ele>279.51797930543</ele>
        <time>2016-07-03T08:49:04Z</time>
      </trkpt>
      <trkpt lat="44.23746" lon="5.12862">
        <ele>278.06707032836</ele>
        <time>2016-07-03T08:49:08Z</time>
      </trkpt>
      <trkpt lat="44.23764" lon="5.12875">
        <ele>276.34450810494</ele>
        <time>2016-07-03T08:49:12Z</time>
      </trkpt>
      <trkpt lat="44.2378" lon="5.12885">
        <ele>276.35874373288</ele>
        <time>2016-07-03T08:49:16Z</time>
      </trkpt>
      <trkpt lat="44.23803" lon="5.129">
        <ele>279.62730329369</ele>
        <time>2016-07-03T08:49:21Z</time>
      </trkpt>
      <trkpt lat="44.2382" lon="5.12911">
        <ele>280.47434528105</ele>
        <time>2016-07-03T08:49:25Z</time>
      </trkpt>
      <trkpt lat="44.23842" lon="5.12925">
        <ele>281.55258781931</ele>
        <time>2016-07-03T08:49:30Z</time>
      </trkpt>
      <trkpt lat="44.23856" lon="5.12935">
        <ele>284.06309408741</ele>
        <time>2016-07-03T08:49:34Z</time>
      </trkpt>
      <trkpt lat="44.23874" lon="5.12948">
        <ele>287.17445986576</ele>
        <time>2016-07-03T08:49:38Z</time>
      </trkpt>
      <trkpt lat="44.23901" lon="5.12968">
        <ele>286.96543670983</ele>
        <time>2016-07-03T08:49:43Z</time>
      </trkpt>
      <trkpt lat="44.23928" lon="5.12989">
        <ele>286.01648304148</ele>
        <time>2016-07-03T08:49:48Z</time>
      </trkpt>
      <trkpt lat="44.23947" lon="5.13003">
        <ele>284.70396559144</ele>
        <time>2016-07-03T08:49:52Z</time>
      </trkpt>
      <trkpt lat="44.2397" lon="5.13023">
        <ele>284.7000991256</ele>
        <time>2016-07-03T08:49:57Z</time>
      </trkpt>
      <trkpt lat="44.23984" lon="5.13033">
        <ele>284.73268232817</ele>
        <time>2016-07-03T08:50:01Z</time>
      </trkpt>
      <trkpt lat="44.24007" lon="5.13053">
        <ele>284.02247261566</ele>
        <time>2016-07-03T08:50:06Z</time>
      </trkpt>
      <trkpt lat="44.2403" lon="5.13067">
        <ele>283.34261762216</ele>
        <time>2016-07-03T08:50:10Z</time>
      </trkpt>
      <trkpt lat="44.24055" lon="5.13072">
        <ele>282.82598667892</ele>
        <time>2016-07-03T08:50:15Z</time>
      </trkpt>
      <trkpt lat="44.24076" lon="5.13076">
        <ele>283.72761574933</ele>
        <time>2016-07-03T08:50:19Z</time>
      </trkpt>
      <trkpt lat="44.24101" lon="5.13087">
        <ele>285.84042805682</ele>
        <time>2016-07-03T08:50:24Z</time>
      </trkpt>
      <trkpt lat="44.24122" lon="5.13098">
        <ele>288.95616766339</ele>
        <time>2016-07-03T08:50:28Z</time>
      </trkpt>
      <trkpt lat="44.24143" lon="5.1311">
        <ele>292.6600052659</ele>
        <time>2016-07-03T08:50:32Z</time>
      </trkpt>
      <trkpt lat="44.24168" lon="5.13121">
        <ele>295.61080091351</ele>
        <time>2016-07-03T08:50:37Z</time>
      </trkpt>
      <trkpt lat="44.24187" lon="5.13131">
        <ele>294.94893527753</ele>
        <time>2016-07-03T08:50:41Z</time>
      </trkpt>
      <trkpt lat="44.24207" lon="5.1314">
        <ele>292.32927842187</ele>
        <time>2016-07-03T08:50:45Z</time>
      </trkpt>
      <trkpt lat="44.24228" lon="5.13149">
        <ele>288.33577737145</ele>
        <time>2016-07-03T08:50:49Z</time>
      </trkpt>
      <trkpt lat="44.24252" lon="5.13159">
        <ele>287.64012916469</ele>
        <time>2016-07-03T08:50:54Z</time>
      </trkpt>
      <trkpt lat="44.24275" lon="5.13166">
        <ele>288.761004687</ele>
        <time>2016-07-03T08:50:58Z</time>
      </trkpt>
      <trkpt lat="44.24295" lon="5.13171">
        <ele>290.44286332939</ele>
        <time>2016-07-03T08:51:02Z</time>
      </trkpt>
      <trkpt lat="44.24314" lon="5.13177">
        <ele>293.47565577828</ele>
        <time>2016-07-03T08:51:06Z</time>
      </trkpt>
      <trkpt lat="44.24343" lon="5.13184">
        <ele>297.11544151059</ele>
        <time>2016-07-03T08:51:11Z</time>
      </trkpt>
      <trkpt lat="44.24364" lon="5.13189">
        <ele>299.21190264629</ele>
        <time>2016-07-03T08:51:15Z</time>
      </trkpt>
      <trkpt lat="44.24387" lon="5.13197">
        <ele>300.54201270501</ele>
        <time>2016-07-03T08:51:20Z</time>
      </trkpt>
      <trkpt lat="44.24413" lon="5.13205">
        <ele>301.57066159993</ele>
        <time>2016-07-03T08:51:25Z</time>
      </trkpt>
      <trkpt lat="44.24441" lon="5.13206">
        <ele>302.52675233854</ele>
        <time>2016-07-03T08:51:30Z</time>
      </trkpt>
      <trkpt lat="44.24466" lon="5.13199">
        <ele>304.77659438777</ele>
        <time>2016-07-03T08:51:35Z</time>
      </trkpt>
      <trkpt lat="44.24484" lon="5.13194">
        <ele>301.99148892353</ele>
        <time>2016-07-03T08:51:39Z</time>
      </trkpt>
      <trkpt lat="44.24508" lon="5.13195">
        <ele>298.06466656685</ele>
        <time>2016-07-03T08:51:44Z</time>
      </trkpt>
      <trkpt lat="44.24538" lon="5.1319">
        <ele>297.70037443747</ele>
        <time>2016-07-03T08:51:49Z</time>
      </trkpt>
      <trkpt lat="44.24559" lon="5.13183">
        <ele>295.89595168524</ele>
        <time>2016-07-03T08:51:53Z</time>
      </trkpt>
      <trkpt lat="44.24586" lon="5.13183">
        <ele>295.34885165599</ele>
        <time>2016-07-03T08:51:58Z</time>
      </trkpt>
      <trkpt lat="44.24615" lon="5.13191">
        <ele>296.14531903064</ele>
        <time>2016-07-03T08:52:03Z</time>
      </trkpt>
      <trkpt lat="44.24639" lon="5.13196">
        <ele>297.21899020418</ele>
        <time>2016-07-03T08:52:07Z</time>
      </trkpt>
      <trkpt lat="44.24666" lon="5.13205">
        <ele>296.70324549705</ele>
        <time>2016-07-03T08:52:12Z</time>
      </trkpt>
      <trkpt lat="44.24698" lon="5.13217">
        <ele>297.96113860116</ele>
        <time>2016-07-03T08:52:17Z</time>
      </trkpt>
      <trkpt lat="44.24721" lon="5.13233">
        <ele>299.34756640317</ele>
        <time>2016-07-03T08:52:21Z</time>
      </trkpt>
      <trkpt lat="44.24741" lon="5.1325">
        <ele>301.96383030816</ele>
        <time>2016-07-03T08:52:25Z</time>
      </trkpt>
      <trkpt lat="44.24763" lon="5.1327">
        <ele>303.65558974286</ele>
        <time>2016-07-03T08:52:29Z</time>
      </trkpt>
      <trkpt lat="44.24788" lon="5.13293">
        <ele>300.29683661696</ele>
        <time>2016-07-03T08:52:34Z</time>
      </trkpt>
      <trkpt lat="44.24808" lon="5.13311">
        <ele>299.09465796939</ele>
        <time>2016-07-03T08:52:38Z</time>
      </trkpt>
      <trkpt lat="44.24833" lon="5.13333">
        <ele>299.53305884313</ele>
        <time>2016-07-03T08:52:43Z</time>
      </trkpt>
      <trkpt lat="44.24852" lon="5.13354">
        <ele>300.69755414988</ele>
        <time>2016-07-03T08:52:47Z</time>
      </trkpt>
      <trkpt lat="44.24872" lon="5.13383">
        <ele>300.37198840498</ele>
        <time>2016-07-03T08:52:52Z</time>
      </trkpt>
      <trkpt lat="44.24893" lon="5.13413">
        <ele>300.94533092964</ele>
        <time>2016-07-03T08:52:57Z</time>
      </trkpt>
      <trkpt lat="44.24907" lon="5.1344">
        <ele>301.66718247152</ele>
        <time>2016-07-03T08:53:01Z</time>
      </trkpt>
      <trkpt lat="44.24921" lon="5.1347">
        <ele>302.08838767741</ele>
        <time>2016-07-03T08:53:05Z</time>
      </trkpt>
      <trkpt lat="44.24933" lon="5.13498">
        <ele>302.11488972671</ele>
        <time>2016-07-03T08:53:09Z</time>
      </trkpt>
      <trkpt lat="44.24956" lon="5.13527">
        <ele>300.46347251729</ele>
        <time>2016-07-03T08:53:14Z</time>
      </trkpt>
      <trkpt lat="44.24982" lon="5.13547">
        <ele>299.59531224596</ele>
        <time>2016-07-03T08:53:19Z</time>
      </trkpt>
      <trkpt lat="44.25002" lon="5.13563">
        <ele>298.73438861782</ele>
        <time>2016-07-03T08:53:23Z</time>
      </trkpt>
      <trkpt lat="44.2502" lon="5.1358">
        <ele>298.19000696722</ele>
        <time>2016-07-03T08:53:27Z</time>
      </trkpt>
      <trkpt lat="44.25039" lon="5.13601">
        <ele>298.16197062642</ele>
        <time>2016-07-03T08:53:31Z</time>
      </trkpt>
      <trkpt lat="44.25061" lon="5.13617">
        <ele>299.23471424033</ele>
        <time>2016-07-03T08:53:36Z</time>
      </trkpt>
      <trkpt lat="44.2508" lon="5.13621">
        <ele>300.67617621214</ele>
        <time>2016-07-03T08:53:40Z</time>
      </trkpt>
      <trkpt lat="44.25099" lon="5.13623">
        <ele>300.8882744749</ele>
        <time>2016-07-03T08:53:45Z</time>
      </trkpt>
      <trkpt lat="44.25115" lon="5.13627">
        <ele>300.55756588285</ele>
        <time>2016-07-03T08:53:49Z</time>
      </trkpt>
      <trkpt lat="44.25132" lon="5.13637">
        <ele>301.28825262584</ele>
        <time>2016-07-03T08:53:54Z</time>
      </trkpt>
      <trkpt lat="44.25147" lon="5.13651">
        <ele>304.78103091572</ele>
        <time>2016-07-03T08:53:59Z</time>
      </trkpt>
      <trkpt lat="44.2516" lon="5.13662">
        <ele>307.70290686711</ele>
        <time>2016-07-03T08:54:03Z</time>
      </trkpt>
      <trkpt lat="44.25174" lon="5.13672">
        <ele>311.83641638273</ele>
        <time>2016-07-03T08:54:07Z</time>
      </trkpt>
      <trkpt lat="44.25193" lon="5.13683">
        <ele>315.38141266071</ele>
        <time>2016-07-03T08:54:12Z</time>
      </trkpt>
      <trkpt lat="44.25212" lon="5.13691">
        <ele>318.44166419541</ele>
        <time>2016-07-03T08:54:17Z</time>
      </trkpt>
      <trkpt lat="44.2523" lon="5.13698">
        <ele>318.83168223839</ele>
        <time>2016-07-03T08:54:21Z</time>
      </trkpt>
      <trkpt lat="44.25249" lon="5.13707">
        <ele>319.00468719328</ele>
        <time>2016-07-03T08:54:26Z</time>
      </trkpt>
      <trkpt lat="44.25265" lon="5.13714">
        <ele>319.11848340627</ele>
        <time>2016-07-03T08:54:30Z</time>
      </trkpt>
      <trkpt lat="44.25282" lon="5.13718">
        <ele>321.069154135</ele>
        <time>2016-07-03T08:54:34Z</time>
      </trkpt>
      <trkpt lat="44.25298" lon="5.13721">
        <ele>321.32224351517</ele>
        <time>2016-07-03T08:54:38Z</time>
      </trkpt>
      <trkpt lat="44.25318" lon="5.13721">
        <ele>323.33025428021</ele>
        <time>2016-07-03T08:54:43Z</time>
      </trkpt>
      <trkpt lat="44.25339" lon="5.13719">
        <ele>324.05112578515</ele>
        <time>2016-07-03T08:54:48Z</time>
      </trkpt>
      <trkpt lat="44.25354" lon="5.13717">
        <ele>325.07741289613</ele>
        <time>2016-07-03T08:54:52Z</time>
      </trkpt>
      <trkpt lat="44.25374" lon="5.13715">
        <ele>327.36860773319</ele>
        <time>2016-07-03T08:54:57Z</time>
      </trkpt>
      <trkpt lat="44.2539" lon="5.13714">
        <ele>328.89115132303</ele>
        <time>2016-07-03T08:55:01Z</time>
      </trkpt>
      <trkpt lat="44.25404" lon="5.13713">
        <ele>329.29634942907</ele>
        <time>2016-07-03T08:55:05Z</time>
      </trkpt>
      <trkpt lat="44.25422" lon="5.13713">
        <ele>330.3956942251</ele>
        <time>2016-07-03T08:55:10Z</time>
      </trkpt>
      <trkpt lat="44.25437" lon="5.13713">
        <ele>330.5403300689</ele>
        <time>2016-07-03T08:55:14Z</time>
      </trkpt>
      <trkpt lat="44.25455" lon="5.13715">
        <ele>330.46634332781</ele>
        <time>2016-07-03T08:55:19Z</time>
      </trkpt>
      <trkpt lat="44.25469" lon="5.13721">
        <ele>330.42794919454</ele>
        <time>2016-07-03T08:55:23Z</time>
      </trkpt>
      <trkpt lat="44.25484" lon="5.13737">
        <ele>332.05795776346</ele>
        <time>2016-07-03T08:55:28Z</time>
      </trkpt>
      <trkpt lat="44.25491" lon="5.13751">
        <ele>332.4935822278</ele>
        <time>2016-07-03T08:55:32Z</time>
      </trkpt>
      <trkpt lat="44.25502" lon="5.13773">
        <ele>333.18645094658</ele>
        <time>2016-07-03T08:55:37Z</time>
      </trkpt>
      <trkpt lat="44.25511" lon="5.13793">
        <ele>337.83404785265</ele>
        <time>2016-07-03T08:55:41Z</time>
      </trkpt>
      <trkpt lat="44.25523" lon="5.13818">
        <ele>340.91012329408</ele>
        <time>2016-07-03T08:55:46Z</time>
      </trkpt>
      <trkpt lat="44.25531" lon="5.13836">
        <ele>341.97411855337</ele>
        <time>2016-07-03T08:55:50Z</time>
      </trkpt>
      <trkpt lat="44.25543" lon="5.13864">
        <ele>342.95393986936</ele>
        <time>2016-07-03T08:55:55Z</time>
      </trkpt>
      <trkpt lat="44.25553" lon="5.13888">
        <ele>343.58216909772</ele>
        <time>2016-07-03T08:56:00Z</time>
      </trkpt>
      <trkpt lat="44.2556" lon="5.1391">
        <ele>343.88720061426</ele>
        <time>2016-07-03T08:56:04Z</time>
      </trkpt>
      <trkpt lat="44.25568" lon="5.13933">
        <ele>344.21717937578</ele>
        <time>2016-07-03T08:56:08Z</time>
      </trkpt>
      <trkpt lat="44.25578" lon="5.13963">
        <ele>345.6325441396</ele>
        <time>2016-07-03T08:56:13Z</time>
      </trkpt>
      <trkpt lat="44.25586" lon="5.13987">
        <ele>346.79687278301</ele>
        <time>2016-07-03T08:56:17Z</time>
      </trkpt>
      <trkpt lat="44.25597" lon="5.14017">
        <ele>346.56196582933</ele>
        <time>2016-07-03T08:56:22Z</time>
      </trkpt>
      <trkpt lat="44.25605" lon="5.14041">
        <ele>346.57993665654</ele>
        <time>2016-07-03T08:56:26Z</time>
      </trkpt>
      <trkpt lat="44.25618" lon="5.14069">
        <ele>347.86243274865</ele>
        <time>2016-07-03T08:56:31Z</time>
      </trkpt>
      <trkpt lat="44.2563" lon="5.14087">
        <ele>348.86197857883</ele>
        <time>2016-07-03T08:56:35Z</time>
      </trkpt>
      <trkpt lat="44.25645" lon="5.14105">
        <ele>350.64130677154</ele>
        <time>2016-07-03T08:56:39Z</time>
      </trkpt>
      <trkpt lat="44.25659" lon="5.14122">
        <ele>354.28624926104</ele>
        <time>2016-07-03T08:56:43Z</time>
      </trkpt>
      <trkpt lat="44.25673" lon="5.14137">
        <ele>357.06227257427</ele>
        <time>2016-07-03T08:56:47Z</time>
      </trkpt>
      <trkpt lat="44.25693" lon="5.14153">
        <ele>356.75034821622</ele>
        <time>2016-07-03T08:56:52Z</time>
      </trkpt>
      <trkpt lat="44.25709" lon="5.14165">
        <ele>356.52875046906</ele>
        <time>2016-07-03T08:56:56Z</time>
      </trkpt>
      <trkpt lat="44.2573" lon="5.14181">
        <ele>356.55514613497</ele>
        <time>2016-07-03T08:57:01Z</time>
      </trkpt>
      <trkpt lat="44.2575" lon="5.14196">
        <ele>358.95546666047</ele>
        <time>2016-07-03T08:57:06Z</time>
      </trkpt>
      <trkpt lat="44.25768" lon="5.14201">
        <ele>360.47097346007</ele>
        <time>2016-07-03T08:57:10Z</time>
      </trkpt>
      <trkpt lat="44.25789" lon="5.14202">
        <ele>361.73666223082</ele>
        <time>2016-07-03T08:57:15Z</time>
      </trkpt>
      <trkpt lat="44.25805" lon="5.14203">
        <ele>362.15037700798</ele>
        <time>2016-07-03T08:57:19Z</time>
      </trkpt>
      <trkpt lat="44.25821" lon="5.14215">
        <ele>360.43167228984</ele>
        <time>2016-07-03T08:57:24Z</time>
      </trkpt>
      <trkpt lat="44.25828" lon="5.14241">
        <ele>359.15870022884</ele>
        <time>2016-07-03T08:57:28Z</time>
      </trkpt>
      <trkpt lat="44.25833" lon="5.14262">
        <ele>359.31849098029</ele>
        <time>2016-07-03T08:57:32Z</time>
      </trkpt>
      <trkpt lat="44.25838" lon="5.14279">
        <ele>359.67667568364</ele>
        <time>2016-07-03T08:57:37Z</time>
      </trkpt>
      <trkpt lat="44.25842" lon="5.14296">
        <ele>361.0841174681</ele>
        <time>2016-07-03T08:57:41Z</time>
      </trkpt>
      <trkpt lat="44.25843" lon="5.14315">
        <ele>362.12305149095</ele>
        <time>2016-07-03T08:57:45Z</time>
      </trkpt>
      <trkpt lat="44.25846" lon="5.14333">
        <ele>362.32983900714</ele>
        <time>2016-07-03T08:57:49Z</time>
      </trkpt>
      <trkpt lat="44.25847" lon="5.14344">
        <ele>363.33628280017</ele>
        <time>2016-07-03T08:58:18Z</time>
      </trkpt>
      <trkpt lat="44.25855" lon="5.14347">
        <ele>367.34860172841</ele>
        <time>2016-07-03T08:59:06Z</time>
      </trkpt>
      <trkpt lat="44.25864" lon="5.14344">
        <ele>368.72520917479</ele>
        <time>2016-07-03T08:59:52Z</time>
      </trkpt>
      <trkpt lat="44.25876" lon="5.14343">
        <ele>368.50598393367</ele>
        <time>2016-07-03T08:59:56Z</time>
      </trkpt>
      <trkpt lat="44.25894" lon="5.1434">
        <ele>368.20448653322</ele>
        <time>2016-07-03T09:00:01Z</time>
      </trkpt>
      <trkpt lat="44.25906" lon="5.14343">
        <ele>367.82129329597</ele>
        <time>2016-07-03T09:00:05Z</time>
      </trkpt>
      <trkpt lat="44.2592" lon="5.14352">
        <ele>367.44485344147</ele>
        <time>2016-07-03T09:00:10Z</time>
      </trkpt>
      <trkpt lat="44.25931" lon="5.14358">
        <ele>367.35374270859</ele>
        <time>2016-07-03T09:00:14Z</time>
      </trkpt>
      <trkpt lat="44.25939" lon="5.14367">
        <ele>366.65091112344</ele>
        <time>2016-07-03T09:00:18Z</time>
      </trkpt>
      <trkpt lat="44.25953" lon="5.14394">
        <ele>365.28355923361</ele>
        <time>2016-07-03T09:00:23Z</time>
      </trkpt>
      <trkpt lat="44.25962" lon="5.14412">
        <ele>365.28993530053</ele>
        <time>2016-07-03T09:00:27Z</time>
      </trkpt>
      <trkpt lat="44.25965" lon="5.14435">
        <ele>365.31718761016</ele>
        <time>2016-07-03T09:00:32Z</time>
      </trkpt>
      <trkpt lat="44.25956" lon="5.14451">
        <ele>365.76052824037</ele>
        <time>2016-07-03T09:00:36Z</time>
      </trkpt>
      <trkpt lat="44.25946" lon="5.14469">
        <ele>365.93029322737</ele>
        <time>2016-07-03T09:00:40Z</time>
      </trkpt>
      <trkpt lat="44.25948" lon="5.14481">
        <ele>366.1621168135</ele>
        <time>2016-07-03T09:00:45Z</time>
      </trkpt>
      <trkpt lat="44.25958" lon="5.14493">
        <ele>366.37723870922</ele>
        <time>2016-07-03T09:00:50Z</time>
      </trkpt>
      <trkpt lat="44.2597" lon="5.14505">
        <ele>366.60651721959</ele>
        <time>2016-07-03T09:00:54Z</time>
      </trkpt>
      <trkpt lat="44.25982" lon="5.14521">
        <ele>367.65515826914</ele>
        <time>2016-07-03T09:00:58Z</time>
      </trkpt>
      <trkpt lat="44.25996" lon="5.14534">
        <ele>368.25043761492</ele>
        <time>2016-07-03T09:01:03Z</time>
      </trkpt>
      <trkpt lat="44.26007" lon="5.14542">
        <ele>368.97847440259</ele>
        <time>2016-07-03T09:01:07Z</time>
      </trkpt>
      <trkpt lat="44.26013" lon="5.14552">
        <ele>369.57861090719</ele>
        <time>2016-07-03T09:01:11Z</time>
      </trkpt>
      <trkpt lat="44.26027" lon="5.14565">
        <ele>370.2385460681</ele>
        <time>2016-07-03T09:01:16Z</time>
      </trkpt>
      <trkpt lat="44.2604" lon="5.14574">
        <ele>373.11797669904</ele>
        <time>2016-07-03T09:01:20Z</time>
      </trkpt>
      <trkpt lat="44.26056" lon="5.14585">
        <ele>376.27303539844</ele>
        <time>2016-07-03T09:01:25Z</time>
      </trkpt>
      <trkpt lat="44.26069" lon="5.14595">
        <ele>376.45213417948</ele>
        <time>2016-07-03T09:01:29Z</time>
      </trkpt>
      <trkpt lat="44.26088" lon="5.14616">
        <ele>376.16410237572</ele>
        <time>2016-07-03T09:01:34Z</time>
      </trkpt>
      <trkpt lat="44.26104" lon="5.14634">
        <ele>379.56596285325</ele>
        <time>2016-07-03T09:01:38Z</time>
      </trkpt>
      <trkpt lat="44.26125" lon="5.14653">
        <ele>379.90039156329</ele>
        <time>2016-07-03T09:01:43Z</time>
      </trkpt>
      <trkpt lat="44.26136" lon="5.14669">
        <ele>377.16958255105</ele>
        <time>2016-07-03T09:01:47Z</time>
      </trkpt>
      <trkpt lat="44.26132" lon="5.14687">
        <ele>376.39181210177</ele>
        <time>2016-07-03T09:01:51Z</time>
      </trkpt>
      <trkpt lat="44.26121" lon="5.14695">
        <ele>376.4385451144</ele>
        <time>2016-07-03T09:01:55Z</time>
      </trkpt>
      <trkpt lat="44.2611" lon="5.1469">
        <ele>375.97747160928</ele>
        <time>2016-07-03T09:01:59Z</time>
      </trkpt>
      <trkpt lat="44.26095" lon="5.14685">
        <ele>373.9702951176</ele>
        <time>2016-07-03T09:02:04Z</time>
      </trkpt>
      <trkpt lat="44.26083" lon="5.14683">
        <ele>374.10185156325</ele>
        <time>2016-07-03T09:02:08Z</time>
      </trkpt>
      <trkpt lat="44.26066" lon="5.14682">
        <ele>374.7832676258</ele>
        <time>2016-07-03T09:02:13Z</time>
      </trkpt>
      <trkpt lat="44.26048" lon="5.14677">
        <ele>379.23286870521</ele>
        <time>2016-07-03T09:02:17Z</time>
      </trkpt>
      <trkpt lat="44.26036" lon="5.14672">
        <ele>379.73469138057</ele>
        <time>2016-07-03T09:02:21Z</time>
      </trkpt>
      <trkpt lat="44.26019" lon="5.14663">
        <ele>382.71461925243</ele>
        <time>2016-07-03T09:02:25Z</time>
      </trkpt>
      <trkpt lat="44.26007" lon="5.14655">
        <ele>383.19717011084</ele>
        <time>2016-07-03T09:02:29Z</time>
      </trkpt>
      <trkpt lat="44.26001" lon="5.14662">
        <ele>387.52690216105</ele>
        <time>2016-07-03T09:04:54Z</time>
      </trkpt>
      <trkpt lat="44.25993" lon="5.14653">
        <ele>387.90186008971</ele>
        <time>2016-07-03T09:04:59Z</time>
      </trkpt>
      <trkpt lat="44.25985" lon="5.1465">
        <ele>387.99279560272</ele>
        <time>2016-07-03T09:05:03Z</time>
      </trkpt>
      <trkpt lat="44.25972" lon="5.14647">
        <ele>388.13734105824</ele>
        <time>2016-07-03T09:05:08Z</time>
      </trkpt>
      <trkpt lat="44.25963" lon="5.14644">
        <ele>388.23589227736</ele>
        <time>2016-07-03T09:05:12Z</time>
      </trkpt>
      <trkpt lat="44.25955" lon="5.14648">
        <ele>388.85244335394</ele>
        <time>2016-07-03T09:05:19Z</time>
      </trkpt>
      <trkpt lat="44.25946" lon="5.14649">
        <ele>389.65807008943</ele>
        <time>2016-07-03T09:05:24Z</time>
      </trkpt>
      <trkpt lat="44.25935" lon="5.14642">
        <ele>390.02842021456</ele>
        <time>2016-07-03T09:05:28Z</time>
      </trkpt>
      <trkpt lat="44.25929" lon="5.14634">
        <ele>390.87236017319</ele>
        <time>2016-07-03T09:05:37Z</time>
      </trkpt>
      <trkpt lat="44.25937" lon="5.14639">
        <ele>392.52128190563</ele>
        <time>2016-07-03T09:06:25Z</time>
      </trkpt>
      <trkpt lat="44.25945" lon="5.14652">
        <ele>392.8422910163</ele>
        <time>2016-07-03T09:06:29Z</time>
      </trkpt>
      <trkpt lat="44.25953" lon="5.14646">
        <ele>394.17136765797</ele>
        <time>2016-07-03T09:06:39Z</time>
      </trkpt>
      <trkpt lat="44.25964" lon="5.1465">
        <ele>395.43362765214</ele>
        <time>2016-07-03T09:06:44Z</time>
      </trkpt>
      <trkpt lat="44.25979" lon="5.14655">
        <ele>401.17086434326</ele>
        <time>2016-07-03T09:06:48Z</time>
      </trkpt>
      <trkpt lat="44.25999" lon="5.14657">
        <ele>400.80114793178</ele>
        <time>2016-07-03T09:06:53Z</time>
      </trkpt>
      <trkpt lat="44.26013" lon="5.14665">
        <ele>396.00140432566</ele>
        <time>2016-07-03T09:06:57Z</time>
      </trkpt>
      <trkpt lat="44.26028" lon="5.14672">
        <ele>394.89956548675</ele>
        <time>2016-07-03T09:07:01Z</time>
      </trkpt>
      <trkpt lat="44.26045" lon="5.14682">
        <ele>393.88890761192</ele>
        <time>2016-07-03T09:07:05Z</time>
      </trkpt>
      <trkpt lat="44.26066" lon="5.14687">
        <ele>392.77879775884</ele>
        <time>2016-07-03T09:07:10Z</time>
      </trkpt>
      <trkpt lat="44.26084" lon="5.14688">
        <ele>388.56503144214</ele>
        <time>2016-07-03T09:07:14Z</time>
      </trkpt>
      <trkpt lat="44.26099" lon="5.14691">
        <ele>387.72138171856</ele>
        <time>2016-07-03T09:07:18Z</time>
      </trkpt>
      <trkpt lat="44.26116" lon="5.14695">
        <ele>387.24454750105</ele>
        <time>2016-07-03T09:07:23Z</time>
      </trkpt>
      <trkpt lat="44.2613" lon="5.14684">
        <ele>381.94167677419</ele>
        <time>2016-07-03T09:07:27Z</time>
      </trkpt>
      <trkpt lat="44.2613" lon="5.14655">
        <ele>378.18794851394</ele>
        <time>2016-07-03T09:07:32Z</time>
      </trkpt>
      <trkpt lat="44.2612" lon="5.14644">
        <ele>375.8114327127</ele>
        <time>2016-07-03T09:07:36Z</time>
      </trkpt>
      <trkpt lat="44.26103" lon="5.14631">
        <ele>373.41832361146</ele>
        <time>2016-07-03T09:07:41Z</time>
      </trkpt>
      <trkpt lat="44.26088" lon="5.14613">
        <ele>370.12554892782</ele>
        <time>2016-07-03T09:07:46Z</time>
      </trkpt>
      <trkpt lat="44.26075" lon="5.14596">
        <ele>369.91029560207</ele>
        <time>2016-07-03T09:07:50Z</time>
      </trkpt>
      <trkpt lat="44.26058" lon="5.14582">
        <ele>370.74692577517</ele>
        <time>2016-07-03T09:07:55Z</time>
      </trkpt>
      <trkpt lat="44.26042" lon="5.14572">
        <ele>370.91522841094</ele>
        <time>2016-07-03T09:08:00Z</time>
      </trkpt>
      <trkpt lat="44.26029" lon="5.14564">
        <ele>371.29100697315</ele>
        <time>2016-07-03T09:08:04Z</time>
      </trkpt>
      <trkpt lat="44.26017" lon="5.14556">
        <ele>371.28011698623</ele>
        <time>2016-07-03T09:08:08Z</time>
      </trkpt>
      <trkpt lat="44.26003" lon="5.14536">
        <ele>370.03882043931</ele>
        <time>2016-07-03T09:08:13Z</time>
      </trkpt>
      <trkpt lat="44.2599" lon="5.14526">
        <ele>369.99464721347</ele>
        <time>2016-07-03T09:08:17Z</time>
      </trkpt>
      <trkpt lat="44.25982" lon="5.14512">
        <ele>371.20124583061</ele>
        <time>2016-07-03T09:08:21Z</time>
      </trkpt>
      <trkpt lat="44.25963" lon="5.1449">
        <ele>374.1185096741</ele>
        <time>2016-07-03T09:08:26Z</time>
      </trkpt>
      <trkpt lat="44.25949" lon="5.14473">
        <ele>374.40183084624</ele>
        <time>2016-07-03T09:08:30Z</time>
      </trkpt>
      <trkpt lat="44.25956" lon="5.14455">
        <ele>372.69194459676</ele>
        <time>2016-07-03T09:08:35Z</time>
      </trkpt>
      <trkpt lat="44.25965" lon="5.14434">
        <ele>373.90131146774</ele>
        <time>2016-07-03T09:08:39Z</time>
      </trkpt>
      <trkpt lat="44.25962" lon="5.14408">
        <ele>373.7740351432</ele>
        <time>2016-07-03T09:08:43Z</time>
      </trkpt>
      <trkpt lat="44.2595" lon="5.1438">
        <ele>371.91053569798</ele>
        <time>2016-07-03T09:08:48Z</time>
      </trkpt>
      <trkpt lat="44.25943" lon="5.14371">
        <ele>371.62128749265</ele>
        <time>2016-07-03T09:08:52Z</time>
      </trkpt>
      <trkpt lat="44.25938" lon="5.14366">
        <ele>370.37317168199</ele>
        <time>2016-07-03T09:09:00Z</time>
      </trkpt>
      <trkpt lat="44.25923" lon="5.14356">
        <ele>367.87731168472</ele>
        <time>2016-07-03T09:09:05Z</time>
      </trkpt>
      <trkpt lat="44.25907" lon="5.14346">
        <ele>365.53433222677</ele>
        <time>2016-07-03T09:09:10Z</time>
      </trkpt>
      <trkpt lat="44.25897" lon="5.1434">
        <ele>365.2335420115</ele>
        <time>2016-07-03T09:09:14Z</time>
      </trkpt>
      <trkpt lat="44.25887" lon="5.14336">
        <ele>365.03552753583</ele>
        <time>2016-07-03T09:09:19Z</time>
      </trkpt>
      <trkpt lat="44.25875" lon="5.1434">
        <ele>364.94635598983</ele>
        <time>2016-07-03T09:09:23Z</time>
      </trkpt>
      <trkpt lat="44.25862" lon="5.14343">
        <ele>364.86963342203</ele>
        <time>2016-07-03T09:09:28Z</time>
      </trkpt>
      <trkpt lat="44.25854" lon="5.14344">
        <ele>364.85217586099</ele>
        <time>2016-07-03T09:09:32Z</time>
      </trkpt>
      <trkpt lat="44.25847" lon="5.14341">
        <ele>364.76801118076</ele>
        <time>2016-07-03T09:09:36Z</time>
      </trkpt>
      <trkpt lat="44.25844" lon="5.14314">
        <ele>364.22218778895</ele>
        <time>2016-07-03T09:09:41Z</time>
      </trkpt>
      <trkpt lat="44.25844" lon="5.1429">
        <ele>365.09071474178</ele>
        <time>2016-07-03T09:09:46Z</time>
      </trkpt>
      <trkpt lat="44.2586" lon="5.14293">
        <ele>365.97459028215</ele>
        <time>2016-07-03T09:09:51Z</time>
      </trkpt>
      <trkpt lat="44.2588" lon="5.14301">
        <ele>366.60510812168</ele>
        <time>2016-07-03T09:09:55Z</time>
      </trkpt>
      <trkpt lat="44.25903" lon="5.14279">
        <ele>366.75605501411</ele>
        <time>2016-07-03T09:10:00Z</time>
      </trkpt>
      <trkpt lat="44.2591" lon="5.14246">
        <ele>365.94106921798</ele>
        <time>2016-07-03T09:10:04Z</time>
      </trkpt>
      <trkpt lat="44.25915" lon="5.14202">
        <ele>363.54557214055</ele>
        <time>2016-07-03T09:10:09Z</time>
      </trkpt>
      <trkpt lat="44.25917" lon="5.14147">
        <ele>360.33648586015</ele>
        <time>2016-07-03T09:10:14Z</time>
      </trkpt>
      <trkpt lat="44.25915" lon="5.14087">
        <ele>359.77018069638</ele>
        <time>2016-07-03T09:10:19Z</time>
      </trkpt>
      <trkpt lat="44.25915" lon="5.14024">
        <ele>358.59685810789</ele>
        <time>2016-07-03T09:10:24Z</time>
      </trkpt>
      <trkpt lat="44.25921" lon="5.13975">
        <ele>354.47766976316</ele>
        <time>2016-07-03T09:10:28Z</time>
      </trkpt>
      <trkpt lat="44.25931" lon="5.13925">
        <ele>350.8943395304</ele>
        <time>2016-07-03T09:10:32Z</time>
      </trkpt>
      <trkpt lat="44.25947" lon="5.13879">
        <ele>347.79203597353</ele>
        <time>2016-07-03T09:10:36Z</time>
      </trkpt>
      <trkpt lat="44.25971" lon="5.13822">
        <ele>343.87263285733</ele>
        <time>2016-07-03T09:10:41Z</time>
      </trkpt>
      <trkpt lat="44.25996" lon="5.13768">
        <ele>341.08442552646</ele>
        <time>2016-07-03T09:10:46Z</time>
      </trkpt>
      <trkpt lat="44.26015" lon="5.13723">
        <ele>338.82370407544</ele>
        <time>2016-07-03T09:10:50Z</time>
      </trkpt>
      <trkpt lat="44.2604" lon="5.13665">
        <ele>335.97345722642</ele>
        <time>2016-07-03T09:10:55Z</time>
      </trkpt>
      <trkpt lat="44.26064" lon="5.13622">
        <ele>333.27948669042</ele>
        <time>2016-07-03T09:10:59Z</time>
      </trkpt>
      <trkpt lat="44.26098" lon="5.1357">
        <ele>329.83435084427</ele>
        <time>2016-07-03T09:11:04Z</time>
      </trkpt>
      <trkpt lat="44.2613" lon="5.1352">
        <ele>326.38040511459</ele>
        <time>2016-07-03T09:11:09Z</time>
      </trkpt>
      <trkpt lat="44.26155" lon="5.1348">
        <ele>324.47582425455</ele>
        <time>2016-07-03T09:11:13Z</time>
      </trkpt>
      <trkpt lat="44.26185" lon="5.13432">
        <ele>321.60948465018</ele>
        <time>2016-07-03T09:11:18Z</time>
      </trkpt>
      <trkpt lat="44.2621" lon="5.13389">
        <ele>321.40389645779</ele>
        <time>2016-07-03T09:11:23Z</time>
      </trkpt>
      <trkpt lat="44.26229" lon="5.13357">
        <ele>319.81134124894</ele>
        <time>2016-07-03T09:11:27Z</time>
      </trkpt>
      <trkpt lat="44.26247" lon="5.13327">
        <ele>318.18630947743</ele>
        <time>2016-07-03T09:11:31Z</time>
      </trkpt>
      <trkpt lat="44.2627" lon="5.13294">
        <ele>318.73125879802</ele>
        <time>2016-07-03T09:11:36Z</time>
      </trkpt>
      <trkpt lat="44.26287" lon="5.13268">
        <ele>319.64025241145</ele>
        <time>2016-07-03T09:11:40Z</time>
      </trkpt>
      <trkpt lat="44.26302" lon="5.13244">
        <ele>320.58056362467</ele>
        <time>2016-07-03T09:11:44Z</time>
      </trkpt>
      <trkpt lat="44.26318" lon="5.13218">
        <ele>320.32401871244</ele>
        <time>2016-07-03T09:11:48Z</time>
      </trkpt>
      <trkpt lat="44.26338" lon="5.13186">
        <ele>320.20250405953</ele>
        <time>2016-07-03T09:11:53Z</time>
      </trkpt>
      <trkpt lat="44.26353" lon="5.13162">
        <ele>321.20964478574</ele>
        <time>2016-07-03T09:11:57Z</time>
      </trkpt>
      <trkpt lat="44.26372" lon="5.13132">
        <ele>323.29658359118</ele>
        <time>2016-07-03T09:12:02Z</time>
      </trkpt>
      <trkpt lat="44.26387" lon="5.13108">
        <ele>324.38833078987</ele>
        <time>2016-07-03T09:12:06Z</time>
      </trkpt>
      <trkpt lat="44.264" lon="5.13089">
        <ele>325.29899774006</ele>
        <time>2016-07-03T09:12:10Z</time>
      </trkpt>
      <trkpt lat="44.26413" lon="5.1307">
        <ele>326.22258676822</ele>
        <time>2016-07-03T09:12:14Z</time>
      </trkpt>
      <trkpt lat="44.2643" lon="5.13053">
        <ele>327.11995485732</ele>
        <time>2016-07-03T09:12:18Z</time>
      </trkpt>
      <trkpt lat="44.26452" lon="5.13042">
        <ele>327.51008099418</ele>
        <time>2016-07-03T09:12:23Z</time>
      </trkpt>
      <trkpt lat="44.26472" lon="5.13037">
        <ele>327.68467357849</ele>
        <time>2016-07-03T09:12:27Z</time>
      </trkpt>
      <trkpt lat="44.26497" lon="5.1303">
        <ele>326.81338307692</ele>
        <time>2016-07-03T09:12:32Z</time>
      </trkpt>
      <trkpt lat="44.26517" lon="5.13026">
        <ele>327.34421373852</ele>
        <time>2016-07-03T09:12:36Z</time>
      </trkpt>
      <trkpt lat="44.26541" lon="5.13021">
        <ele>328.87853144645</ele>
        <time>2016-07-03T09:12:41Z</time>
      </trkpt>
      <trkpt lat="44.26559" lon="5.13012">
        <ele>329.30846805301</ele>
        <time>2016-07-03T09:12:45Z</time>
      </trkpt>
      <trkpt lat="44.26576" lon="5.12989">
        <ele>333.59778321813</ele>
        <time>2016-07-03T09:12:50Z</time>
      </trkpt>
      <trkpt lat="44.26588" lon="5.12965">
        <ele>339.35862619744</ele>
        <time>2016-07-03T09:12:55Z</time>
      </trkpt>
      <trkpt lat="44.26599" lon="5.12941">
        <ele>341.84968707937</ele>
        <time>2016-07-03T09:12:59Z</time>
      </trkpt>
      <trkpt lat="44.26607" lon="5.12924">
        <ele>339.1362602423</ele>
        <time>2016-07-03T09:13:03Z</time>
      </trkpt>
      <trkpt lat="44.26615" lon="5.12902">
        <ele>336.81722783363</ele>
        <time>2016-07-03T09:13:08Z</time>
      </trkpt>
      <trkpt lat="44.2662" lon="5.12891">
        <ele>336.59094691261</ele>
        <time>2016-07-03T09:13:12Z</time>
      </trkpt>
      <trkpt lat="44.26626" lon="5.12886">
        <ele>336.19686477712</ele>
        <time>2016-07-03T09:13:50Z</time>
      </trkpt>
      <trkpt lat="44.26631" lon="5.12873">
        <ele>336.07549536777</ele>
        <time>2016-07-03T09:13:55Z</time>
      </trkpt>
      <trkpt lat="44.26636" lon="5.1286">
        <ele>335.7855537978</ele>
        <time>2016-07-03T09:14:00Z</time>
      </trkpt>
      <trkpt lat="44.26642" lon="5.12844">
        <ele>335.44503633875</ele>
        <time>2016-07-03T09:14:04Z</time>
      </trkpt>
      <trkpt lat="44.2665" lon="5.12825">
        <ele>333.49544325788</ele>
        <time>2016-07-03T09:14:08Z</time>
      </trkpt>
      <trkpt lat="44.26658" lon="5.12807">
        <ele>333.33246269145</ele>
        <time>2016-07-03T09:14:12Z</time>
      </trkpt>
      <trkpt lat="44.26671" lon="5.1278">
        <ele>333.05056476976</ele>
        <time>2016-07-03T09:14:17Z</time>
      </trkpt>
      <trkpt lat="44.26683" lon="5.1276">
        <ele>332.50684930934</ele>
        <time>2016-07-03T09:14:21Z</time>
      </trkpt>
      <trkpt lat="44.26696" lon="5.12738">
        <ele>333.40725471498</ele>
        <time>2016-07-03T09:14:25Z</time>
      </trkpt>
      <trkpt lat="44.2671" lon="5.12717">
        <ele>332.33190575291</ele>
        <time>2016-07-03T09:14:29Z</time>
      </trkpt>
      <trkpt lat="44.26728" lon="5.12689">
        <ele>331.12764578778</ele>
        <time>2016-07-03T09:14:34Z</time>
      </trkpt>
      <trkpt lat="44.26743" lon="5.12666">
        <ele>330.25933872019</ele>
        <time>2016-07-03T09:14:38Z</time>
      </trkpt>
      <trkpt lat="44.26757" lon="5.12647">
        <ele>327.67056315012</ele>
        <time>2016-07-03T09:14:43Z</time>
      </trkpt>
      <trkpt lat="44.26768" lon="5.12631">
        <ele>324.84778667266</ele>
        <time>2016-07-03T09:14:47Z</time>
      </trkpt>
      <trkpt lat="44.2678" lon="5.12614">
        <ele>323.46755606472</ele>
        <time>2016-07-03T09:14:51Z</time>
      </trkpt>
      <trkpt lat="44.26797" lon="5.12594">
        <ele>322.49155809539</ele>
        <time>2016-07-03T09:14:55Z</time>
      </trkpt>
      <trkpt lat="44.2681" lon="5.12581">
        <ele>323.01731431501</ele>
        <time>2016-07-03T09:14:59Z</time>
      </trkpt>
      <trkpt lat="44.26818" lon="5.12575">
        <ele>323.23340500472</ele>
        <time>2016-07-03T09:16:22Z</time>
      </trkpt>
      <trkpt lat="44.26833" lon="5.12568">
        <ele>323.17896298616</ele>
        <time>2016-07-03T09:16:27Z</time>
      </trkpt>
      <trkpt lat="44.26847" lon="5.12566">
        <ele>322.50618127072</ele>
        <time>2016-07-03T09:16:31Z</time>
      </trkpt>
      <trkpt lat="44.26859" lon="5.12551">
        <ele>321.38588505947</ele>
        <time>2016-07-03T09:16:35Z</time>
      </trkpt>
      <trkpt lat="44.26877" lon="5.12524">
        <ele>319.66677728872</ele>
        <time>2016-07-03T09:16:40Z</time>
      </trkpt>
      <trkpt lat="44.26898" lon="5.12509">
        <ele>319.57007104004</ele>
        <time>2016-07-03T09:16:44Z</time>
      </trkpt>
      <trkpt lat="44.26919" lon="5.12494">
        <ele>318.81361074746</ele>
        <time>2016-07-03T09:16:48Z</time>
      </trkpt>
      <trkpt lat="44.26941" lon="5.12479">
        <ele>317.31315508167</ele>
        <time>2016-07-03T09:16:52Z</time>
      </trkpt>
      <trkpt lat="44.26963" lon="5.12462">
        <ele>316.54841612327</ele>
        <time>2016-07-03T09:16:56Z</time>
      </trkpt>
      <trkpt lat="44.26992" lon="5.1244">
        <ele>314.89208247679</ele>
        <time>2016-07-03T09:17:01Z</time>
      </trkpt>
      <trkpt lat="44.27016" lon="5.1242">
        <ele>314.28912935559</ele>
        <time>2016-07-03T09:17:05Z</time>
      </trkpt>
      <trkpt lat="44.27042" lon="5.124">
        <ele>312.88608631979</ele>
        <time>2016-07-03T09:17:09Z</time>
      </trkpt>
      <trkpt lat="44.27067" lon="5.1238">
        <ele>310.80617667936</ele>
        <time>2016-07-03T09:17:13Z</time>
      </trkpt>
      <trkpt lat="44.27094" lon="5.1236">
        <ele>310.06317929311</ele>
        <time>2016-07-03T09:17:17Z</time>
      </trkpt>
      <trkpt lat="44.27127" lon="5.12334">
        <ele>308.89399882197</ele>
        <time>2016-07-03T09:17:22Z</time>
      </trkpt>
      <trkpt lat="44.27151" lon="5.12315">
        <ele>307.94387987881</ele>
        <time>2016-07-03T09:17:26Z</time>
      </trkpt>
      <trkpt lat="44.27174" lon="5.12297">
        <ele>307.93631608375</ele>
        <time>2016-07-03T09:17:30Z</time>
      </trkpt>
      <trkpt lat="44.27201" lon="5.12275">
        <ele>306.55416237721</ele>
        <time>2016-07-03T09:17:35Z</time>
      </trkpt>
      <trkpt lat="44.27224" lon="5.12258">
        <ele>305.82142556501</ele>
        <time>2016-07-03T09:17:39Z</time>
      </trkpt>
      <trkpt lat="44.27253" lon="5.12237">
        <ele>305.59884179099</ele>
        <time>2016-07-03T09:17:44Z</time>
      </trkpt>
      <trkpt lat="44.27275" lon="5.12219">
        <ele>304.2748963883</ele>
        <time>2016-07-03T09:17:48Z</time>
      </trkpt>
      <trkpt lat="44.27306" lon="5.12196">
        <ele>303.62099562288</ele>
        <time>2016-07-03T09:17:53Z</time>
      </trkpt>
      <trkpt lat="44.2733" lon="5.12177">
        <ele>303.10379161746</ele>
        <time>2016-07-03T09:17:57Z</time>
      </trkpt>
      <trkpt lat="44.2736" lon="5.12154">
        <ele>302.7199791152</ele>
        <time>2016-07-03T09:18:02Z</time>
      </trkpt>
      <trkpt lat="44.27384" lon="5.12135">
        <ele>301.28970967927</ele>
        <time>2016-07-03T09:18:06Z</time>
      </trkpt>
      <trkpt lat="44.27414" lon="5.12112">
        <ele>300.3053464264</ele>
        <time>2016-07-03T09:18:11Z</time>
      </trkpt>
      <trkpt lat="44.27442" lon="5.1209">
        <ele>302.14382128349</ele>
        <time>2016-07-03T09:18:16Z</time>
      </trkpt>
      <trkpt lat="44.27468" lon="5.12069">
        <ele>305.87110195642</ele>
        <time>2016-07-03T09:18:21Z</time>
      </trkpt>
      <trkpt lat="44.27494" lon="5.12048">
        <ele>305.75185486598</ele>
        <time>2016-07-03T09:18:26Z</time>
      </trkpt>
      <trkpt lat="44.27515" lon="5.12034">
        <ele>304.74698118314</ele>
        <time>2016-07-03T09:18:30Z</time>
      </trkpt>
      <trkpt lat="44.27535" lon="5.1202">
        <ele>305.10476966522</ele>
        <time>2016-07-03T09:18:34Z</time>
      </trkpt>
      <trkpt lat="44.27557" lon="5.12002">
        <ele>306.65103237322</ele>
        <time>2016-07-03T09:18:39Z</time>
      </trkpt>
      <trkpt lat="44.27572" lon="5.11986">
        <ele>306.57275338637</ele>
        <time>2016-07-03T09:18:43Z</time>
      </trkpt>
      <trkpt lat="44.27591" lon="5.11963">
        <ele>306.31339727063</ele>
        <time>2016-07-03T09:18:48Z</time>
      </trkpt>
      <trkpt lat="44.27608" lon="5.11943">
        <ele>305.28912440224</ele>
        <time>2016-07-03T09:18:52Z</time>
      </trkpt>
      <trkpt lat="44.27624" lon="5.11917">
        <ele>303.93194533966</ele>
        <time>2016-07-03T09:18:56Z</time>
      </trkpt>
      <trkpt lat="44.27648" lon="5.11878">
        <ele>301.87924202963</ele>
        <time>2016-07-03T09:19:01Z</time>
      </trkpt>
      <trkpt lat="44.27669" lon="5.11837">
        <ele>301.07897748578</ele>
        <time>2016-07-03T09:19:06Z</time>
      </trkpt>
      <trkpt lat="44.27691" lon="5.1179">
        <ele>298.79041994711</ele>
        <time>2016-07-03T09:19:11Z</time>
      </trkpt>
      <trkpt lat="44.27702" lon="5.11748">
        <ele>296.79091015958</ele>
        <time>2016-07-03T09:19:15Z</time>
      </trkpt>
      <trkpt lat="44.27709" lon="5.11708">
        <ele>295.18798164929</ele>
        <time>2016-07-03T09:19:19Z</time>
      </trkpt>
      <trkpt lat="44.27715" lon="5.1167">
        <ele>293.8388678507</ele>
        <time>2016-07-03T09:19:23Z</time>
      </trkpt>
      <trkpt lat="44.27721" lon="5.11638">
        <ele>293.20892544361</ele>
        <time>2016-07-03T09:19:27Z</time>
      </trkpt>
      <trkpt lat="44.27727" lon="5.11597">
        <ele>292.74376213801</ele>
        <time>2016-07-03T09:19:32Z</time>
      </trkpt>
      <trkpt lat="44.27731" lon="5.11565">
        <ele>292.75266853603</ele>
        <time>2016-07-03T09:19:36Z</time>
      </trkpt>
      <trkpt lat="44.27736" lon="5.11532">
        <ele>292.64110013936</ele>
        <time>2016-07-03T09:19:40Z</time>
      </trkpt>
      <trkpt lat="44.27743" lon="5.11491">
        <ele>293.27087984115</ele>
        <time>2016-07-03T09:19:45Z</time>
      </trkpt>
      <trkpt lat="44.2775" lon="5.1145">
        <ele>293.33221198788</ele>
        <time>2016-07-03T09:19:50Z</time>
      </trkpt>
      <trkpt lat="44.27756" lon="5.11416">
        <ele>294.18681568083</ele>
        <time>2016-07-03T09:19:54Z</time>
      </trkpt>
      <trkpt lat="44.27762" lon="5.11384">
        <ele>294.38959697572</ele>
        <time>2016-07-03T09:19:58Z</time>
      </trkpt>
      <trkpt lat="44.27768" lon="5.11348">
        <ele>294.03891694003</ele>
        <time>2016-07-03T09:20:03Z</time>
      </trkpt>
      <trkpt lat="44.27773" lon="5.11312">
        <ele>293.0292293376</ele>
        <time>2016-07-03T09:20:08Z</time>
      </trkpt>
      <trkpt lat="44.27776" lon="5.1129">
        <ele>293.94736566471</ele>
        <time>2016-07-03T09:20:12Z</time>
      </trkpt>
      <trkpt lat="44.27781" lon="5.11264">
        <ele>294.89056097795</ele>
        <time>2016-07-03T09:20:16Z</time>
      </trkpt>
      <trkpt lat="44.27785" lon="5.11235">
        <ele>294.24995365224</ele>
        <time>2016-07-03T09:20:20Z</time>
      </trkpt>
      <trkpt lat="44.27782" lon="5.11205">
        <ele>294.41804235984</ele>
        <time>2016-07-03T09:20:24Z</time>
      </trkpt>
      <trkpt lat="44.27767" lon="5.11171">
        <ele>296.37258378862</ele>
        <time>2016-07-03T09:20:29Z</time>
      </trkpt>
      <trkpt lat="44.27751" lon="5.1114">
        <ele>296.32922132117</ele>
        <time>2016-07-03T09:20:34Z</time>
      </trkpt>
      <trkpt lat="44.27737" lon="5.11111">
        <ele>295.41902813045</ele>
        <time>2016-07-03T09:20:39Z</time>
      </trkpt>
      <trkpt lat="44.2772" lon="5.11076">
        <ele>295.56535002445</ele>
        <time>2016-07-03T09:20:44Z</time>
      </trkpt>
      <trkpt lat="44.27707" lon="5.11045">
        <ele>294.91953833397</ele>
        <time>2016-07-03T09:20:48Z</time>
      </trkpt>
      <trkpt lat="44.27689" lon="5.11004">
        <ele>293.7233019319</ele>
        <time>2016-07-03T09:20:53Z</time>
      </trkpt>
      <trkpt lat="44.27674" lon="5.10971">
        <ele>294.29015246758</ele>
        <time>2016-07-03T09:20:57Z</time>
      </trkpt>
      <trkpt lat="44.27657" lon="5.10934">
        <ele>294.33702582196</ele>
        <time>2016-07-03T09:21:01Z</time>
      </trkpt>
      <trkpt lat="44.27638" lon="5.10895">
        <ele>294.55677046182</ele>
        <time>2016-07-03T09:21:05Z</time>
      </trkpt>
      <trkpt lat="44.27625" lon="5.10853">
        <ele>294.41976811817</ele>
        <time>2016-07-03T09:21:09Z</time>
      </trkpt>
      <trkpt lat="44.27622" lon="5.10816">
        <ele>294.710399801</ele>
        <time>2016-07-03T09:21:13Z</time>
      </trkpt>
      <trkpt lat="44.27627" lon="5.10792">
        <ele>293.51624009636</ele>
        <time>2016-07-03T09:21:17Z</time>
      </trkpt>
      <trkpt lat="44.27633" lon="5.10762">
        <ele>291.80728384219</ele>
        <time>2016-07-03T09:21:22Z</time>
      </trkpt>
      <trkpt lat="44.27623" lon="5.1074">
        <ele>291.04171983</ele>
        <time>2016-07-03T09:21:27Z</time>
      </trkpt>
      <trkpt lat="44.27618" lon="5.10738">
        <ele>290.13046455927</ele>
        <time>2016-07-03T09:22:01Z</time>
      </trkpt>
      <trkpt lat="44.27606" lon="5.10745">
        <ele>290.09841946838</ele>
        <time>2016-07-03T09:22:05Z</time>
      </trkpt>
      <trkpt lat="44.27596" lon="5.10752">
        <ele>290.00269426869</ele>
        <time>2016-07-03T09:22:10Z</time>
      </trkpt>
      <trkpt lat="44.27588" lon="5.10747">
        <ele>289.8519454797</ele>
        <time>2016-07-03T09:22:15Z</time>
      </trkpt>
      <trkpt lat="44.27582" lon="5.10753">
        <ele>288.49235257683</ele>
        <time>2016-07-03T09:24:42Z</time>
      </trkpt>
      <trkpt lat="44.27584" lon="5.10764">
        <ele>288.85837071652</ele>
        <time>2016-07-03T09:24:47Z</time>
      </trkpt>
      <trkpt lat="44.27601" lon="5.1078">
        <ele>289.43648572262</ele>
        <time>2016-07-03T09:24:51Z</time>
      </trkpt>
      <trkpt lat="44.2762" lon="5.10791">
        <ele>289.36944364016</ele>
        <time>2016-07-03T09:24:55Z</time>
      </trkpt>
      <trkpt lat="44.27636" lon="5.10776">
        <ele>288.02942913978</ele>
        <time>2016-07-03T09:24:59Z</time>
      </trkpt>
      <trkpt lat="44.27657" lon="5.10761">
        <ele>287.71218790007</ele>
        <time>2016-07-03T09:25:04Z</time>
      </trkpt>
      <trkpt lat="44.27677" lon="5.10753">
        <ele>288.55221069447</ele>
        <time>2016-07-03T09:25:08Z</time>
      </trkpt>
      <trkpt lat="44.27694" lon="5.10745">
        <ele>289.96806843638</ele>
        <time>2016-07-03T09:25:12Z</time>
      </trkpt>
      <trkpt lat="44.27719" lon="5.10734">
        <ele>290.97214947073</ele>
        <time>2016-07-03T09:25:17Z</time>
      </trkpt>
      <trkpt lat="44.27738" lon="5.10727">
        <ele>292.59205093703</ele>
        <time>2016-07-03T09:25:21Z</time>
      </trkpt>
      <trkpt lat="44.27766" lon="5.10715">
        <ele>292.37369739487</ele>
        <time>2016-07-03T09:25:26Z</time>
      </trkpt>
      <trkpt lat="44.27789" lon="5.10705">
        <ele>292.11587027341</ele>
        <time>2016-07-03T09:25:30Z</time>
      </trkpt>
      <trkpt lat="44.27816" lon="5.10694">
        <ele>293.31599520414</ele>
        <time>2016-07-03T09:25:35Z</time>
      </trkpt>
      <trkpt lat="44.27844" lon="5.10681">
        <ele>294.29129971245</ele>
        <time>2016-07-03T09:25:40Z</time>
      </trkpt>
      <trkpt lat="44.27865" lon="5.1067">
        <ele>294.3727668926</ele>
        <time>2016-07-03T09:25:44Z</time>
      </trkpt>
      <trkpt lat="44.2789" lon="5.10652">
        <ele>295.32153656172</ele>
        <time>2016-07-03T09:25:49Z</time>
      </trkpt>
      <trkpt lat="44.27915" lon="5.10634">
        <ele>296.35559784888</ele>
        <time>2016-07-03T09:25:54Z</time>
      </trkpt>
      <trkpt lat="44.27933" lon="5.10619">
        <ele>296.27292510033</ele>
        <time>2016-07-03T09:25:58Z</time>
      </trkpt>
      <trkpt lat="44.27957" lon="5.10602">
        <ele>296.08573530232</ele>
        <time>2016-07-03T09:26:03Z</time>
      </trkpt>
      <trkpt lat="44.27976" lon="5.10588">
        <ele>296.12684424802</ele>
        <time>2016-07-03T09:26:07Z</time>
      </trkpt>
      <trkpt lat="44.27996" lon="5.10574">
        <ele>296.13431623555</ele>
        <time>2016-07-03T09:26:11Z</time>
      </trkpt>
      <trkpt lat="44.28016" lon="5.10562">
        <ele>297.1800986794</ele>
        <time>2016-07-03T09:26:15Z</time>
      </trkpt>
      <trkpt lat="44.28037" lon="5.10554">
        <ele>297.13419501765</ele>
        <time>2016-07-03T09:26:19Z</time>
      </trkpt>
      <trkpt lat="44.28065" lon="5.1055">
        <ele>297.25507867122</ele>
        <time>2016-07-03T09:26:24Z</time>
      </trkpt>
      <trkpt lat="44.28086" lon="5.10553">
        <ele>298.61278018862</ele>
        <time>2016-07-03T09:26:28Z</time>
      </trkpt>
      <trkpt lat="44.28107" lon="5.10558">
        <ele>300.27097293488</ele>
        <time>2016-07-03T09:26:32Z</time>
      </trkpt>
      <trkpt lat="44.28134" lon="5.10569">
        <ele>300.80124034442</ele>
        <time>2016-07-03T09:26:37Z</time>
      </trkpt>
      <trkpt lat="44.28159" lon="5.10578">
        <ele>303.81446979285</ele>
        <time>2016-07-03T09:26:42Z</time>
      </trkpt>
      <trkpt lat="44.28181" lon="5.10586">
        <ele>305.7457067884</ele>
        <time>2016-07-03T09:26:46Z</time>
      </trkpt>
      <trkpt lat="44.28208" lon="5.10598">
        <ele>303.38959773247</ele>
        <time>2016-07-03T09:26:51Z</time>
      </trkpt>
      <trkpt lat="44.28227" lon="5.10605">
        <ele>302.26535975918</ele>
        <time>2016-07-03T09:26:55Z</time>
      </trkpt>
      <trkpt lat="44.28248" lon="5.10613">
        <ele>301.53895294807</ele>
        <time>2016-07-03T09:26:59Z</time>
      </trkpt>
      <trkpt lat="44.28274" lon="5.10622">
        <ele>301.40730727893</ele>
        <time>2016-07-03T09:27:04Z</time>
      </trkpt>
      <trkpt lat="44.28295" lon="5.10627">
        <ele>301.75428618746</ele>
        <time>2016-07-03T09:27:08Z</time>
      </trkpt>
      <trkpt lat="44.28314" lon="5.1063">
        <ele>302.66427689885</ele>
        <time>2016-07-03T09:27:12Z</time>
      </trkpt>
      <trkpt lat="44.28334" lon="5.10633">
        <ele>303.21993143593</ele>
        <time>2016-07-03T09:27:16Z</time>
      </trkpt>
      <trkpt lat="44.28355" lon="5.10633">
        <ele>303.6996310975</ele>
        <time>2016-07-03T09:27:20Z</time>
      </trkpt>
      <trkpt lat="44.28381" lon="5.1063">
        <ele>303.49819815353</ele>
        <time>2016-07-03T09:27:25Z</time>
      </trkpt>
      <trkpt lat="44.28402" lon="5.10624">
        <ele>302.35149579687</ele>
        <time>2016-07-03T09:27:29Z</time>
      </trkpt>
      <trkpt lat="44.28428" lon="5.10613">
        <ele>300.7727056682</ele>
        <time>2016-07-03T09:27:34Z</time>
      </trkpt>
      <trkpt lat="44.28458" lon="5.10602">
        <ele>301.00998926632</ele>
        <time>2016-07-03T09:27:39Z</time>
      </trkpt>
      <trkpt lat="44.28487" lon="5.1059">
        <ele>300.77417422872</ele>
        <time>2016-07-03T09:27:44Z</time>
      </trkpt>
      <trkpt lat="44.28509" lon="5.10582">
        <ele>301.89404672327</ele>
        <time>2016-07-03T09:27:48Z</time>
      </trkpt>
      <trkpt lat="44.28529" lon="5.10573">
        <ele>303.40686587478</ele>
        <time>2016-07-03T09:27:52Z</time>
      </trkpt>
      <trkpt lat="44.28547" lon="5.10566">
        <ele>304.08191604292</ele>
        <time>2016-07-03T09:27:56Z</time>
      </trkpt>
      <trkpt lat="44.28574" lon="5.10555">
        <ele>301.74600480988</ele>
        <time>2016-07-03T09:28:01Z</time>
      </trkpt>
      <trkpt lat="44.28599" lon="5.10544">
        <ele>300.10198876701</ele>
        <time>2016-07-03T09:28:05Z</time>
      </trkpt>
      <trkpt lat="44.28628" lon="5.10532">
        <ele>297.13471724461</ele>
        <time>2016-07-03T09:28:10Z</time>
      </trkpt>
      <trkpt lat="44.28654" lon="5.10521">
        <ele>294.57303706001</ele>
        <time>2016-07-03T09:28:15Z</time>
      </trkpt>
      <trkpt lat="44.28678" lon="5.10513">
        <ele>292.94788944377</ele>
        <time>2016-07-03T09:28:19Z</time>
      </trkpt>
      <trkpt lat="44.28703" lon="5.10503">
        <ele>291.95559412703</ele>
        <time>2016-07-03T09:28:23Z</time>
      </trkpt>
      <trkpt lat="44.28727" lon="5.10494">
        <ele>292.78583583082</ele>
        <time>2016-07-03T09:28:27Z</time>
      </trkpt>
      <trkpt lat="44.28753" lon="5.10484">
        <ele>292.95358142537</ele>
        <time>2016-07-03T09:28:31Z</time>
      </trkpt>
      <trkpt lat="44.28785" lon="5.10471">
        <ele>292.18516018403</ele>
        <time>2016-07-03T09:28:36Z</time>
      </trkpt>
      <trkpt lat="44.28811" lon="5.1046">
        <ele>291.47152082139</ele>
        <time>2016-07-03T09:28:40Z</time>
      </trkpt>
      <trkpt lat="44.28833" lon="5.10449">
        <ele>291.58212804421</ele>
        <time>2016-07-03T09:28:44Z</time>
      </trkpt>
      <trkpt lat="44.28865" lon="5.10437">
        <ele>290.4487537121</ele>
        <time>2016-07-03T09:28:49Z</time>
      </trkpt>
      <trkpt lat="44.28889" lon="5.10424">
        <ele>289.92479160914</ele>
        <time>2016-07-03T09:28:53Z</time>
      </trkpt>
      <trkpt lat="44.28918" lon="5.10407">
        <ele>289.48036856701</ele>
        <time>2016-07-03T09:28:58Z</time>
      </trkpt>
      <trkpt lat="44.28948" lon="5.10391">
        <ele>289.32669904305</ele>
        <time>2016-07-03T09:29:03Z</time>
      </trkpt>
      <trkpt lat="44.28972" lon="5.10377">
        <ele>288.55152355079</ele>
        <time>2016-07-03T09:29:07Z</time>
      </trkpt>
      <trkpt lat="44.29002" lon="5.1036">
        <ele>288.02048882718</ele>
        <time>2016-07-03T09:29:12Z</time>
      </trkpt>
      <trkpt lat="44.29026" lon="5.10346">
        <ele>286.91917643707</ele>
        <time>2016-07-03T09:29:16Z</time>
      </trkpt>
      <trkpt lat="44.29056" lon="5.10329">
        <ele>287.21113811695</ele>
        <time>2016-07-03T09:29:21Z</time>
      </trkpt>
      <trkpt lat="44.29081" lon="5.10315">
        <ele>287.29739326146</ele>
        <time>2016-07-03T09:29:25Z</time>
      </trkpt>
      <trkpt lat="44.29106" lon="5.103">
        <ele>286.65169599227</ele>
        <time>2016-07-03T09:29:29Z</time>
      </trkpt>
      <trkpt lat="44.29137" lon="5.10282">
        <ele>285.30748003817</ele>
        <time>2016-07-03T09:29:34Z</time>
      </trkpt>
      <trkpt lat="44.29162" lon="5.10268">
        <ele>284.70145802073</ele>
        <time>2016-07-03T09:29:38Z</time>
      </trkpt>
      <trkpt lat="44.29189" lon="5.10253">
        <ele>284.00159570973</ele>
        <time>2016-07-03T09:29:42Z</time>
      </trkpt>
      <trkpt lat="44.29215" lon="5.10239">
        <ele>283.74735250763</ele>
        <time>2016-07-03T09:29:46Z</time>
      </trkpt>
      <trkpt lat="44.29246" lon="5.10222">
        <ele>282.89902158092</ele>
        <time>2016-07-03T09:29:51Z</time>
      </trkpt>
      <trkpt lat="44.29272" lon="5.10208">
        <ele>282.57078364032</ele>
        <time>2016-07-03T09:29:55Z</time>
      </trkpt>
      <trkpt lat="44.29297" lon="5.10195">
        <ele>281.38402187587</ele>
        <time>2016-07-03T09:29:59Z</time>
      </trkpt>
      <trkpt lat="44.29323" lon="5.1018">
        <ele>280.30334025823</ele>
        <time>2016-07-03T09:30:03Z</time>
      </trkpt>
      <trkpt lat="44.29348" lon="5.10165">
        <ele>278.47531143527</ele>
        <time>2016-07-03T09:30:07Z</time>
      </trkpt>
      <trkpt lat="44.29379" lon="5.10148">
        <ele>277.18207603673</ele>
        <time>2016-07-03T09:30:12Z</time>
      </trkpt>
      <trkpt lat="44.29404" lon="5.10136">
        <ele>276.95457306984</ele>
        <time>2016-07-03T09:30:16Z</time>
      </trkpt>
      <trkpt lat="44.2943" lon="5.10127">
        <ele>277.4152293687</ele>
        <time>2016-07-03T09:30:20Z</time>
      </trkpt>
      <trkpt lat="44.29457" lon="5.10123">
        <ele>277.96854183131</ele>
        <time>2016-07-03T09:30:24Z</time>
      </trkpt>
      <trkpt lat="44.29483" lon="5.10122">
        <ele>278.07511618604</ele>
        <time>2016-07-03T09:30:28Z</time>
      </trkpt>
      <trkpt lat="44.29516" lon="5.10121">
        <ele>277.45156439531</ele>
        <time>2016-07-03T09:30:33Z</time>
      </trkpt>
      <trkpt lat="44.29542" lon="5.1012">
        <ele>276.64109850329</ele>
        <time>2016-07-03T09:30:37Z</time>
      </trkpt>
      <trkpt lat="44.2957" lon="5.10122">
        <ele>275.92314825586</ele>
        <time>2016-07-03T09:30:41Z</time>
      </trkpt>
      <trkpt lat="44.29603" lon="5.10126">
        <ele>275.8149896192</ele>
        <time>2016-07-03T09:30:46Z</time>
      </trkpt>
      <trkpt lat="44.29628" lon="5.10132">
        <ele>276.34835400014</ele>
        <time>2016-07-03T09:30:50Z</time>
      </trkpt>
      <trkpt lat="44.29655" lon="5.10139">
        <ele>276.0116702249</ele>
        <time>2016-07-03T09:30:54Z</time>
      </trkpt>
      <trkpt lat="44.29682" lon="5.10147">
        <ele>275.16839337292</ele>
        <time>2016-07-03T09:30:58Z</time>
      </trkpt>
      <trkpt lat="44.29716" lon="5.10159">
        <ele>274.14005167078</ele>
        <time>2016-07-03T09:31:03Z</time>
      </trkpt>
      <trkpt lat="44.29741" lon="5.10168">
        <ele>272.77925996128</ele>
        <time>2016-07-03T09:31:07Z</time>
      </trkpt>
      <trkpt lat="44.29765" lon="5.10176">
        <ele>272.39017442354</ele>
        <time>2016-07-03T09:31:11Z</time>
      </trkpt>
      <trkpt lat="44.29787" lon="5.10181">
        <ele>271.91333929422</ele>
        <time>2016-07-03T09:31:15Z</time>
      </trkpt>
      <trkpt lat="44.29817" lon="5.10184">
        <ele>271.59980506558</ele>
        <time>2016-07-03T09:31:20Z</time>
      </trkpt>
      <trkpt lat="44.29839" lon="5.10182">
        <ele>270.36043442332</ele>
        <time>2016-07-03T09:31:24Z</time>
      </trkpt>
      <trkpt lat="44.29867" lon="5.1018">
        <ele>269.59178722858</ele>
        <time>2016-07-03T09:31:29Z</time>
      </trkpt>
      <trkpt lat="44.29888" lon="5.10176">
        <ele>269.69020323121</ele>
        <time>2016-07-03T09:31:33Z</time>
      </trkpt>
      <trkpt lat="44.29912" lon="5.10173">
        <ele>270.93067417339</ele>
        <time>2016-07-03T09:31:38Z</time>
      </trkpt>
      <trkpt lat="44.29928" lon="5.10171">
        <ele>271.15687169087</ele>
        <time>2016-07-03T09:31:42Z</time>
      </trkpt>
      <trkpt lat="44.29947" lon="5.10168">
        <ele>271.84080513031</ele>
        <time>2016-07-03T09:31:46Z</time>
      </trkpt>
      <trkpt lat="44.29964" lon="5.10166">
        <ele>271.63584247663</ele>
        <time>2016-07-03T09:31:50Z</time>
      </trkpt>
      <trkpt lat="44.29984" lon="5.10165">
        <ele>271.66104926361</ele>
        <time>2016-07-03T09:31:54Z</time>
      </trkpt>
      <trkpt lat="44.30004" lon="5.10162">
        <ele>271.60535051012</ele>
        <time>2016-07-03T09:31:58Z</time>
      </trkpt>
      <trkpt lat="44.30022" lon="5.10159">
        <ele>270.09776379123</ele>
        <time>2016-07-03T09:32:02Z</time>
      </trkpt>
      <trkpt lat="44.3004" lon="5.10157">
        <ele>269.7584948121</ele>
        <time>2016-07-03T09:32:06Z</time>
      </trkpt>
      <trkpt lat="44.30058" lon="5.10155">
        <ele>269.86525626204</ele>
        <time>2016-07-03T09:32:10Z</time>
      </trkpt>
      <trkpt lat="44.30082" lon="5.10153">
        <ele>270.26993295065</ele>
        <time>2016-07-03T09:32:15Z</time>
      </trkpt>
      <trkpt lat="44.30105" lon="5.10149">
        <ele>270.50477406084</ele>
        <time>2016-07-03T09:32:19Z</time>
      </trkpt>
      <trkpt lat="44.30128" lon="5.10142">
        <ele>270.5884506953</ele>
        <time>2016-07-03T09:32:23Z</time>
      </trkpt>
      <trkpt lat="44.30156" lon="5.10131">
        <ele>270.5420656936</ele>
        <time>2016-07-03T09:32:28Z</time>
      </trkpt>
      <trkpt lat="44.30183" lon="5.1012">
        <ele>271.32327362371</ele>
        <time>2016-07-03T09:32:33Z</time>
      </trkpt>
      <trkpt lat="44.30204" lon="5.10112">
        <ele>271.0495060195</ele>
        <time>2016-07-03T09:32:37Z</time>
      </trkpt>
      <trkpt lat="44.30233" lon="5.10101">
        <ele>270.02462529069</ele>
        <time>2016-07-03T09:32:42Z</time>
      </trkpt>
      <trkpt lat="44.30259" lon="5.10092">
        <ele>269.68711005454</ele>
        <time>2016-07-03T09:32:47Z</time>
      </trkpt>
      <trkpt lat="44.30283" lon="5.10086">
        <ele>270.06831331384</ele>
        <time>2016-07-03T09:32:51Z</time>
      </trkpt>
      <trkpt lat="44.30306" lon="5.10082">
        <ele>271.18748553787</ele>
        <time>2016-07-03T09:32:55Z</time>
      </trkpt>
      <trkpt lat="44.3033" lon="5.10076">
        <ele>271.70058691737</ele>
        <time>2016-07-03T09:32:59Z</time>
      </trkpt>
      <trkpt lat="44.30352" lon="5.1007">
        <ele>271.79718749766</ele>
        <time>2016-07-03T09:33:03Z</time>
      </trkpt>
      <trkpt lat="44.30375" lon="5.10064">
        <ele>271.16466045715</ele>
        <time>2016-07-03T09:33:07Z</time>
      </trkpt>
      <trkpt lat="44.30407" lon="5.10056">
        <ele>270.70120691341</ele>
        <time>2016-07-03T09:33:12Z</time>
      </trkpt>
      <trkpt lat="44.30433" lon="5.1005">
        <ele>269.35370473726</ele>
        <time>2016-07-03T09:33:16Z</time>
      </trkpt>
      <trkpt lat="44.30456" lon="5.10045">
        <ele>269.66210353723</ele>
        <time>2016-07-03T09:33:20Z</time>
      </trkpt>
      <trkpt lat="44.30475" lon="5.10039">
        <ele>270.45543862974</ele>
        <time>2016-07-03T09:33:24Z</time>
      </trkpt>
      <trkpt lat="44.30504" lon="5.10031">
        <ele>269.90154609876</ele>
        <time>2016-07-03T09:33:29Z</time>
      </trkpt>
      <trkpt lat="44.30525" lon="5.10025">
        <ele>270.21280122484</ele>
        <time>2016-07-03T09:33:33Z</time>
      </trkpt>
      <trkpt lat="44.30553" lon="5.10016">
        <ele>268.57650818642</ele>
        <time>2016-07-03T09:33:38Z</time>
      </trkpt>
      <trkpt lat="44.30572" lon="5.10009">
        <ele>268.41417802452</ele>
        <time>2016-07-03T09:33:42Z</time>
      </trkpt>
      <trkpt lat="44.30592" lon="5.1">
        <ele>269.40128091689</ele>
        <time>2016-07-03T09:33:47Z</time>
      </trkpt>
      <trkpt lat="44.30613" lon="5.09992">
        <ele>269.9853222525</ele>
        <time>2016-07-03T09:33:52Z</time>
      </trkpt>
      <trkpt lat="44.30631" lon="5.09986">
        <ele>269.99320135333</ele>
        <time>2016-07-03T09:33:56Z</time>
      </trkpt>
      <trkpt lat="44.30649" lon="5.09979">
        <ele>269.65967364087</ele>
        <time>2016-07-03T09:34:00Z</time>
      </trkpt>
      <trkpt lat="44.30673" lon="5.09969">
        <ele>269.18390837411</ele>
        <time>2016-07-03T09:34:05Z</time>
      </trkpt>
      <trkpt lat="44.30698" lon="5.0996">
        <ele>269.50706643356</ele>
        <time>2016-07-03T09:34:10Z</time>
      </trkpt>
      <trkpt lat="44.30718" lon="5.09953">
        <ele>269.34869108513</ele>
        <time>2016-07-03T09:34:14Z</time>
      </trkpt>
      <trkpt lat="44.30738" lon="5.09947">
        <ele>268.24491037964</ele>
        <time>2016-07-03T09:34:18Z</time>
      </trkpt>
      <trkpt lat="44.30759" lon="5.0994">
        <ele>269.41408309654</ele>
        <time>2016-07-03T09:34:22Z</time>
      </trkpt>
      <trkpt lat="44.30781" lon="5.09937">
        <ele>269.72439102956</ele>
        <time>2016-07-03T09:34:26Z</time>
      </trkpt>
      <trkpt lat="44.30806" lon="5.09938">
        <ele>270.09283999225</ele>
        <time>2016-07-03T09:34:31Z</time>
      </trkpt>
      <trkpt lat="44.30827" lon="5.09936">
        <ele>270.0154198908</ele>
        <time>2016-07-03T09:34:35Z</time>
      </trkpt>
      <trkpt lat="44.30848" lon="5.09923">
        <ele>270.35208329907</ele>
        <time>2016-07-03T09:34:39Z</time>
      </trkpt>
      <trkpt lat="44.30864" lon="5.09905">
        <ele>268.98889463386</ele>
        <time>2016-07-03T09:34:43Z</time>
      </trkpt>
      <trkpt lat="44.30884" lon="5.09882">
        <ele>268.39207189004</ele>
        <time>2016-07-03T09:34:48Z</time>
      </trkpt>
      <trkpt lat="44.30904" lon="5.09878">
        <ele>268.01729646501</ele>
        <time>2016-07-03T09:34:52Z</time>
      </trkpt>
      <trkpt lat="44.30925" lon="5.09876">
        <ele>267.99480225948</ele>
        <time>2016-07-03T09:34:56Z</time>
      </trkpt>
      <trkpt lat="44.30946" lon="5.09879">
        <ele>269.45022314732</ele>
        <time>2016-07-03T09:35:00Z</time>
      </trkpt>
      <trkpt lat="44.30967" lon="5.09877">
        <ele>268.35392997417</ele>
        <time>2016-07-03T09:35:04Z</time>
      </trkpt>
      <trkpt lat="44.30987" lon="5.09874">
        <ele>268.16940812065</ele>
        <time>2016-07-03T09:35:09Z</time>
      </trkpt>
      <trkpt lat="44.31005" lon="5.09876">
        <ele>270.76367242654</ele>
        <time>2016-07-03T09:35:14Z</time>
      </trkpt>
      <trkpt lat="44.31021" lon="5.09881">
        <ele>271.96209525403</ele>
        <time>2016-07-03T09:35:18Z</time>
      </trkpt>
      <trkpt lat="44.31037" lon="5.09887">
        <ele>271.6230503485</ele>
        <time>2016-07-03T09:35:22Z</time>
      </trkpt>
      <trkpt lat="44.31053" lon="5.09876">
        <ele>273.08072854453</ele>
        <time>2016-07-03T09:35:26Z</time>
      </trkpt>
      <trkpt lat="44.31061" lon="5.09859">
        <ele>272.94156431228</ele>
        <time>2016-07-03T09:35:30Z</time>
      </trkpt>
      <trkpt lat="44.31063" lon="5.09853">
        <ele>272.58838385111</ele>
        <time>2016-07-03T09:35:35Z</time>
      </trkpt>
      <trkpt lat="44.31077" lon="5.09836">
        <ele>269.70288646056</ele>
        <time>2016-07-03T09:35:39Z</time>
      </trkpt>
      <trkpt lat="44.31087" lon="5.09819">
        <ele>269.08595996918</ele>
        <time>2016-07-03T09:35:44Z</time>
      </trkpt>
      <trkpt lat="44.31098" lon="5.09811">
        <ele>268.66002318078</ele>
        <time>2016-07-03T09:35:48Z</time>
      </trkpt>
      <trkpt lat="44.31104" lon="5.09803">
        <ele>268.12182363453</ele>
        <time>2016-07-03T09:35:52Z</time>
      </trkpt>
      <trkpt lat="44.31108" lon="5.09794">
        <ele>267.51789027497</ele>
        <time>2016-07-03T09:35:57Z</time>
      </trkpt>
      <trkpt lat="44.311" lon="5.0979">
        <ele>265.21505919801</ele>
        <time>2016-07-03T09:38:20Z</time>
      </trkpt>
      <trkpt lat="44.31094" lon="5.0978">
        <ele>265.12854010648</ele>
        <time>2016-07-03T09:38:24Z</time>
      </trkpt>
      <trkpt lat="44.31085" lon="5.09779">
        <ele>265.12773057135</ele>
        <time>2016-07-03T09:38:28Z</time>
      </trkpt>
      <trkpt lat="44.31075" lon="5.09779">
        <ele>265.29906252863</ele>
        <time>2016-07-03T09:38:33Z</time>
      </trkpt>
      <trkpt lat="44.31069" lon="5.09775">
        <ele>263.58304373185</ele>
        <time>2016-07-03T09:38:52Z</time>
      </trkpt>
      <trkpt lat="44.31069" lon="5.09787">
        <ele>261.51366428062</ele>
        <time>2016-07-03T09:39:00Z</time>
      </trkpt>
      <trkpt lat="44.31089" lon="5.09787">
        <ele>261.71196570066</ele>
        <time>2016-07-03T09:39:05Z</time>
      </trkpt>
      <trkpt lat="44.31101" lon="5.09785">
        <ele>262.18297678888</ele>
        <time>2016-07-03T09:39:09Z</time>
      </trkpt>
      <trkpt lat="44.31117" lon="5.09785">
        <ele>262.4591525852</ele>
        <time>2016-07-03T09:39:13Z</time>
      </trkpt>
      <trkpt lat="44.31128" lon="5.09775">
        <ele>264.34823354363</ele>
        <time>2016-07-03T09:39:17Z</time>
      </trkpt>
      <trkpt lat="44.3115" lon="5.09756">
        <ele>267.70032961297</ele>
        <time>2016-07-03T09:39:22Z</time>
      </trkpt>
      <trkpt lat="44.31173" lon="5.09746">
        <ele>267.68465061462</ele>
        <time>2016-07-03T09:39:26Z</time>
      </trkpt>
      <trkpt lat="44.31201" lon="5.09735">
        <ele>267.12904140643</ele>
        <time>2016-07-03T09:39:31Z</time>
      </trkpt>
      <trkpt lat="44.31227" lon="5.09725">
        <ele>264.97763919359</ele>
        <time>2016-07-03T09:39:35Z</time>
      </trkpt>
      <trkpt lat="44.31255" lon="5.09719">
        <ele>259.6491688201</ele>
        <time>2016-07-03T09:39:39Z</time>
      </trkpt>
      <trkpt lat="44.3128" lon="5.09719">
        <ele>252.90018389528</ele>
        <time>2016-07-03T09:39:43Z</time>
      </trkpt>
      <trkpt lat="44.31297" lon="5.09716">
        <ele>249.31405874236</ele>
        <time>2016-07-03T09:39:47Z</time>
      </trkpt>
      <trkpt lat="44.31311" lon="5.09689">
        <ele>249.46574640179</ele>
        <time>2016-07-03T09:39:52Z</time>
      </trkpt>
      <trkpt lat="44.31323" lon="5.0966">
        <ele>249.03024469284</ele>
        <time>2016-07-03T09:39:56Z</time>
      </trkpt>
      <trkpt lat="44.31342" lon="5.09622">
        <ele>247.0345055281</ele>
        <time>2016-07-03T09:40:01Z</time>
      </trkpt>
      <trkpt lat="44.31365" lon="5.09585">
        <ele>245.55918023333</ele>
        <time>2016-07-03T09:40:06Z</time>
      </trkpt>
      <trkpt lat="44.31383" lon="5.09563">
        <ele>245.26776327957</ele>
        <time>2016-07-03T09:40:10Z</time>
      </trkpt>
      <trkpt lat="44.314" lon="5.09543">
        <ele>246.32188155959</ele>
        <time>2016-07-03T09:40:14Z</time>
      </trkpt>
      <trkpt lat="44.31421" lon="5.09519">
        <ele>248.88075272001</ele>
        <time>2016-07-03T09:40:19Z</time>
      </trkpt>
      <trkpt lat="44.3144" lon="5.09498">
        <ele>249.80809143099</ele>
        <time>2016-07-03T09:40:24Z</time>
      </trkpt>
      <trkpt lat="44.31461" lon="5.09475">
        <ele>249.67382655706</ele>
        <time>2016-07-03T09:40:29Z</time>
      </trkpt>
      <trkpt lat="44.31475" lon="5.09457">
        <ele>247.77651388165</ele>
        <time>2016-07-03T09:40:33Z</time>
      </trkpt>
      <trkpt lat="44.31491" lon="5.0944">
        <ele>246.47422920377</ele>
        <time>2016-07-03T09:40:37Z</time>
      </trkpt>
      <trkpt lat="44.31506" lon="5.09425">
        <ele>244.71607687741</ele>
        <time>2016-07-03T09:40:41Z</time>
      </trkpt>
      <trkpt lat="44.31527" lon="5.09405">
        <ele>241.24166173862</ele>
        <time>2016-07-03T09:40:46Z</time>
      </trkpt>
      <trkpt lat="44.31542" lon="5.09389">
        <ele>238.68703801957</ele>
        <time>2016-07-03T09:40:50Z</time>
      </trkpt>
      <trkpt lat="44.31557" lon="5.09374">
        <ele>238.70519878303</ele>
        <time>2016-07-03T09:40:54Z</time>
      </trkpt>
      <trkpt lat="44.31574" lon="5.09359">
        <ele>240.1376496614</ele>
        <time>2016-07-03T09:40:58Z</time>
      </trkpt>
      <trkpt lat="44.31595" lon="5.09341">
        <ele>239.89545389835</ele>
        <time>2016-07-03T09:41:03Z</time>
      </trkpt>
      <trkpt lat="44.31611" lon="5.09328">
        <ele>242.20718231603</ele>
        <time>2016-07-03T09:41:07Z</time>
      </trkpt>
      <trkpt lat="44.31628" lon="5.09316">
        <ele>244.62980371602</ele>
        <time>2016-07-03T09:41:11Z</time>
      </trkpt>
      <trkpt lat="44.31647" lon="5.09305">
        <ele>244.73916621987</ele>
        <time>2016-07-03T09:41:15Z</time>
      </trkpt>
      <trkpt lat="44.31669" lon="5.09289">
        <ele>241.6134327923</ele>
        <time>2016-07-03T09:41:20Z</time>
      </trkpt>
      <trkpt lat="44.31688" lon="5.09271">
        <ele>239.1011604629</ele>
        <time>2016-07-03T09:41:25Z</time>
      </trkpt>
      <trkpt lat="44.31702" lon="5.09261">
        <ele>240.51857023537</ele>
        <time>2016-07-03T09:41:29Z</time>
      </trkpt>
      <trkpt lat="44.31719" lon="5.09249">
        <ele>242.92250375411</ele>
        <time>2016-07-03T09:41:33Z</time>
      </trkpt>
      <trkpt lat="44.31731" lon="5.09238">
        <ele>244.21370986659</ele>
        <time>2016-07-03T09:41:37Z</time>
      </trkpt>
      <trkpt lat="44.31747" lon="5.09227">
        <ele>246.82367051751</ele>
        <time>2016-07-03T09:41:41Z</time>
      </trkpt>
      <trkpt lat="44.3177" lon="5.09201">
        <ele>244.01086907913</ele>
        <time>2016-07-03T09:41:46Z</time>
      </trkpt>
      <trkpt lat="44.3178" lon="5.09169">
        <ele>241.98365037857</ele>
        <time>2016-07-03T09:41:51Z</time>
      </trkpt>
      <trkpt lat="44.31784" lon="5.0914">
        <ele>241.82344395589</ele>
        <time>2016-07-03T09:41:55Z</time>
      </trkpt>
      <trkpt lat="44.31793" lon="5.09113">
        <ele>242.54109242647</ele>
        <time>2016-07-03T09:41:59Z</time>
      </trkpt>
      <trkpt lat="44.3181" lon="5.09085">
        <ele>244.85887098168</ele>
        <time>2016-07-03T09:42:04Z</time>
      </trkpt>
      <trkpt lat="44.31827" lon="5.09064">
        <ele>244.08208381043</ele>
        <time>2016-07-03T09:42:08Z</time>
      </trkpt>
      <trkpt lat="44.31844" lon="5.09046">
        <ele>243.19966466925</ele>
        <time>2016-07-03T09:42:12Z</time>
      </trkpt>
      <trkpt lat="44.31857" lon="5.09025">
        <ele>242.60932099913</ele>
        <time>2016-07-03T09:42:16Z</time>
      </trkpt>
      <trkpt lat="44.31866" lon="5.0899">
        <ele>241.54066353838</ele>
        <time>2016-07-03T09:42:21Z</time>
      </trkpt>
      <trkpt lat="44.31868" lon="5.08958">
        <ele>240.61520239417</ele>
        <time>2016-07-03T09:42:25Z</time>
      </trkpt>
      <trkpt lat="44.31866" lon="5.08918">
        <ele>240.94646691711</ele>
        <time>2016-07-03T09:42:30Z</time>
      </trkpt>
      <trkpt lat="44.31864" lon="5.08885">
        <ele>240.40581978864</ele>
        <time>2016-07-03T09:42:34Z</time>
      </trkpt>
      <trkpt lat="44.31862" lon="5.08845">
        <ele>242.86071196708</ele>
        <time>2016-07-03T09:42:39Z</time>
      </trkpt>
      <trkpt lat="44.31862" lon="5.08806">
        <ele>242.88537066797</ele>
        <time>2016-07-03T09:42:44Z</time>
      </trkpt>
      <trkpt lat="44.3186" lon="5.08775">
        <ele>242.18858946216</ele>
        <time>2016-07-03T09:42:48Z</time>
      </trkpt>
      <trkpt lat="44.31857" lon="5.08745">
        <ele>242.2000859063</ele>
        <time>2016-07-03T09:42:52Z</time>
      </trkpt>
      <trkpt lat="44.3185" lon="5.08714">
        <ele>242.40665705821</ele>
        <time>2016-07-03T09:42:56Z</time>
      </trkpt>
      <trkpt lat="44.31838" lon="5.0868">
        <ele>240.79580194229</ele>
        <time>2016-07-03T09:43:01Z</time>
      </trkpt>
      <trkpt lat="44.31829" lon="5.08654">
        <ele>238.54994870837</ele>
        <time>2016-07-03T09:43:05Z</time>
      </trkpt>
      <trkpt lat="44.31819" lon="5.08619">
        <ele>236.07505512464</ele>
        <time>2016-07-03T09:43:10Z</time>
      </trkpt>
      <trkpt lat="44.31811" lon="5.08585">
        <ele>234.87527532051</ele>
        <time>2016-07-03T09:43:14Z</time>
      </trkpt>
      <trkpt lat="44.31803" lon="5.08547">
        <ele>234.8383560793</ele>
        <time>2016-07-03T09:43:18Z</time>
      </trkpt>
      <trkpt lat="44.31795" lon="5.085">
        <ele>233.51347436858</ele>
        <time>2016-07-03T09:43:23Z</time>
      </trkpt>
      <trkpt lat="44.3179" lon="5.08463">
        <ele>231.72851740324</ele>
        <time>2016-07-03T09:43:27Z</time>
      </trkpt>
      <trkpt lat="44.31784" lon="5.08418">
        <ele>232.17370653835</ele>
        <time>2016-07-03T09:43:32Z</time>
      </trkpt>
      <trkpt lat="44.31777" lon="5.08388">
        <ele>231.93431434809</ele>
        <time>2016-07-03T09:43:36Z</time>
      </trkpt>
      <trkpt lat="44.31767" lon="5.08359">
        <ele>230.71997541444</ele>
        <time>2016-07-03T09:43:40Z</time>
      </trkpt>
      <trkpt lat="44.31754" lon="5.08331">
        <ele>229.62427825586</ele>
        <time>2016-07-03T09:43:44Z</time>
      </trkpt>
      <trkpt lat="44.31739" lon="5.08298">
        <ele>228.25227450368</ele>
        <time>2016-07-03T09:43:49Z</time>
      </trkpt>
      <trkpt lat="44.31727" lon="5.0827">
        <ele>228.35631456873</ele>
        <time>2016-07-03T09:43:53Z</time>
      </trkpt>
      <trkpt lat="44.31716" lon="5.08245">
        <ele>227.58295793242</ele>
        <time>2016-07-03T09:43:57Z</time>
      </trkpt>
      <trkpt lat="44.31703" lon="5.08212">
        <ele>226.75781641289</ele>
        <time>2016-07-03T09:44:02Z</time>
      </trkpt>
      <trkpt lat="44.31687" lon="5.08178">
        <ele>228.18236186114</ele>
        <time>2016-07-03T09:44:07Z</time>
      </trkpt>
      <trkpt lat="44.31674" lon="5.08152">
        <ele>228.238935102</ele>
        <time>2016-07-03T09:44:11Z</time>
      </trkpt>
      <trkpt lat="44.31659" lon="5.08126">
        <ele>228.42261553917</ele>
        <time>2016-07-03T09:44:15Z</time>
      </trkpt>
      <trkpt lat="44.31645" lon="5.08098">
        <ele>228.99799093778</ele>
        <time>2016-07-03T09:44:19Z</time>
      </trkpt>
      <trkpt lat="44.31632" lon="5.08072">
        <ele>228.77960603873</ele>
        <time>2016-07-03T09:44:23Z</time>
      </trkpt>
      <trkpt lat="44.31618" lon="5.08043">
        <ele>227.63861678103</ele>
        <time>2016-07-03T09:44:27Z</time>
      </trkpt>
      <trkpt lat="44.31604" lon="5.08008">
        <ele>227.79601880838</ele>
        <time>2016-07-03T09:44:32Z</time>
      </trkpt>
      <trkpt lat="44.31594" lon="5.07978">
        <ele>228.61987778638</ele>
        <time>2016-07-03T09:44:36Z</time>
      </trkpt>
      <trkpt lat="44.3158" lon="5.07938">
        <ele>232.01984148627</ele>
        <time>2016-07-03T09:44:41Z</time>
      </trkpt>
      <trkpt lat="44.3157" lon="5.07909">
        <ele>234.41612670138</ele>
        <time>2016-07-03T09:44:45Z</time>
      </trkpt>
      <trkpt lat="44.31562" lon="5.07885">
        <ele>233.39942823995</ele>
        <time>2016-07-03T09:44:49Z</time>
      </trkpt>
      <trkpt lat="44.31554" lon="5.07852">
        <ele>229.71938318131</ele>
        <time>2016-07-03T09:44:54Z</time>
      </trkpt>
      <trkpt lat="44.31544" lon="5.07817">
        <ele>227.68272060288</ele>
        <time>2016-07-03T09:44:59Z</time>
      </trkpt>
      <trkpt lat="44.31535" lon="5.07788">
        <ele>226.600779489</ele>
        <time>2016-07-03T09:45:03Z</time>
      </trkpt>
      <trkpt lat="44.31527" lon="5.0776">
        <ele>226.14496135515</ele>
        <time>2016-07-03T09:45:07Z</time>
      </trkpt>
      <trkpt lat="44.31517" lon="5.07733">
        <ele>225.38978780751</ele>
        <time>2016-07-03T09:45:11Z</time>
      </trkpt>
      <trkpt lat="44.31505" lon="5.07707">
        <ele>224.85334561892</ele>
        <time>2016-07-03T09:45:15Z</time>
      </trkpt>
      <trkpt lat="44.31485" lon="5.07678">
        <ele>224.35399460045</ele>
        <time>2016-07-03T09:45:20Z</time>
      </trkpt>
      <trkpt lat="44.31469" lon="5.07652">
        <ele>224.6700854162</ele>
        <time>2016-07-03T09:45:24Z</time>
      </trkpt>
      <trkpt lat="44.3145" lon="5.07624">
        <ele>224.92134007812</ele>
        <time>2016-07-03T09:45:29Z</time>
      </trkpt>
      <trkpt lat="44.31435" lon="5.07601">
        <ele>225.34784479</ele>
        <time>2016-07-03T09:45:33Z</time>
      </trkpt>
      <trkpt lat="44.31415" lon="5.07569">
        <ele>228.2607909217</ele>
        <time>2016-07-03T09:45:38Z</time>
      </trkpt>
      <trkpt lat="44.31401" lon="5.07547">
        <ele>228.58052224423</ele>
        <time>2016-07-03T09:45:42Z</time>
      </trkpt>
      <trkpt lat="44.31387" lon="5.07525">
        <ele>227.23216267094</ele>
        <time>2016-07-03T09:45:46Z</time>
      </trkpt>
      <trkpt lat="44.31374" lon="5.07502">
        <ele>227.37339993193</ele>
        <time>2016-07-03T09:45:50Z</time>
      </trkpt>
      <trkpt lat="44.31355" lon="5.07473">
        <ele>229.16365359517</ele>
        <time>2016-07-03T09:45:55Z</time>
      </trkpt>
      <trkpt lat="44.31334" lon="5.0744">
        <ele>233.4739204988</ele>
        <time>2016-07-03T09:46:00Z</time>
      </trkpt>
      <trkpt lat="44.31321" lon="5.07417">
        <ele>234.76447524308</ele>
        <time>2016-07-03T09:46:04Z</time>
      </trkpt>
      <trkpt lat="44.31303" lon="5.07389">
        <ele>234.77285877673</ele>
        <time>2016-07-03T09:46:09Z</time>
      </trkpt>
      <trkpt lat="44.31289" lon="5.0737">
        <ele>233.73503789898</ele>
        <time>2016-07-03T09:46:13Z</time>
      </trkpt>
      <trkpt lat="44.31271" lon="5.07351">
        <ele>234.19310268646</ele>
        <time>2016-07-03T09:46:17Z</time>
      </trkpt>
      <trkpt lat="44.31252" lon="5.07335">
        <ele>234.17117713045</ele>
        <time>2016-07-03T09:46:21Z</time>
      </trkpt>
      <trkpt lat="44.31232" lon="5.0732">
        <ele>234.14583704565</ele>
        <time>2016-07-03T09:46:25Z</time>
      </trkpt>
      <trkpt lat="44.31206" lon="5.07301">
        <ele>234.60389380756</ele>
        <time>2016-07-03T09:46:30Z</time>
      </trkpt>
      <trkpt lat="44.31179" lon="5.07283">
        <ele>234.39225356754</ele>
        <time>2016-07-03T09:46:35Z</time>
      </trkpt>
      <trkpt lat="44.31158" lon="5.07273">
        <ele>233.80888536012</ele>
        <time>2016-07-03T09:46:39Z</time>
      </trkpt>
      <trkpt lat="44.31135" lon="5.07262">
        <ele>232.79394896123</ele>
        <time>2016-07-03T09:46:43Z</time>
      </trkpt>
      <trkpt lat="44.31111" lon="5.07252">
        <ele>231.3159499124</ele>
        <time>2016-07-03T09:46:47Z</time>
      </trkpt>
      <trkpt lat="44.31084" lon="5.07239">
        <ele>231.59019269822</ele>
        <time>2016-07-03T09:46:52Z</time>
      </trkpt>
      <trkpt lat="44.31062" lon="5.07226">
        <ele>231.98439646348</ele>
        <time>2016-07-03T09:46:56Z</time>
      </trkpt>
      <trkpt lat="44.31041" lon="5.07209">
        <ele>232.98145518528</ele>
        <time>2016-07-03T09:47:00Z</time>
      </trkpt>
      <trkpt lat="44.3102" lon="5.0718">
        <ele>233.62740404089</ele>
        <time>2016-07-03T09:47:05Z</time>
      </trkpt>
      <trkpt lat="44.31003" lon="5.07155">
        <ele>233.52671138266</ele>
        <time>2016-07-03T09:47:09Z</time>
      </trkpt>
      <trkpt lat="44.30981" lon="5.07124">
        <ele>233.90664421516</ele>
        <time>2016-07-03T09:47:14Z</time>
      </trkpt>
      <trkpt lat="44.30959" lon="5.07094">
        <ele>232.75415355469</ele>
        <time>2016-07-03T09:47:19Z</time>
      </trkpt>
      <trkpt lat="44.30939" lon="5.07067">
        <ele>232.41543001947</ele>
        <time>2016-07-03T09:47:23Z</time>
      </trkpt>
      <trkpt lat="44.30917" lon="5.07035">
        <ele>231.81961651925</ele>
        <time>2016-07-03T09:47:28Z</time>
      </trkpt>
      <trkpt lat="44.30902" lon="5.07005">
        <ele>230.09725534958</ele>
        <time>2016-07-03T09:47:32Z</time>
      </trkpt>
      <trkpt lat="44.30889" lon="5.06972">
        <ele>227.72571574413</ele>
        <time>2016-07-03T09:47:36Z</time>
      </trkpt>
      <trkpt lat="44.30877" lon="5.06939">
        <ele>225.95518136671</ele>
        <time>2016-07-03T09:47:40Z</time>
      </trkpt>
      <trkpt lat="44.30863" lon="5.06897">
        <ele>225.72471164392</ele>
        <time>2016-07-03T09:47:45Z</time>
      </trkpt>
      <trkpt lat="44.30849" lon="5.06862">
        <ele>227.42682085196</ele>
        <time>2016-07-03T09:47:49Z</time>
      </trkpt>
      <trkpt lat="44.30834" lon="5.06827">
        <ele>231.05031244808</ele>
        <time>2016-07-03T09:47:53Z</time>
      </trkpt>
      <trkpt lat="44.30821" lon="5.06784">
        <ele>234.976374526</ele>
        <time>2016-07-03T09:47:58Z</time>
      </trkpt>
      <trkpt lat="44.30811" lon="5.06752">
        <ele>235.43728266416</ele>
        <time>2016-07-03T09:48:02Z</time>
      </trkpt>
      <trkpt lat="44.308" lon="5.06719">
        <ele>236.06202683862</ele>
        <time>2016-07-03T09:48:06Z</time>
      </trkpt>
      <trkpt lat="44.30787" lon="5.06682">
        <ele>229.32671081173</ele>
        <time>2016-07-03T09:48:11Z</time>
      </trkpt>
      <trkpt lat="44.30773" lon="5.06651">
        <ele>225.74906383879</ele>
        <time>2016-07-03T09:48:15Z</time>
      </trkpt>
      <trkpt lat="44.30758" lon="5.06611">
        <ele>222.34834977396</ele>
        <time>2016-07-03T09:48:20Z</time>
      </trkpt>
      <trkpt lat="44.30747" lon="5.06581">
        <ele>220.82073111806</ele>
        <time>2016-07-03T09:48:24Z</time>
      </trkpt>
      <trkpt lat="44.30731" lon="5.0654">
        <ele>219.2359268305</ele>
        <time>2016-07-03T09:48:29Z</time>
      </trkpt>
      <trkpt lat="44.30721" lon="5.06507">
        <ele>216.92802296635</ele>
        <time>2016-07-03T09:48:33Z</time>
      </trkpt>
      <trkpt lat="44.30712" lon="5.06458">
        <ele>216.34972134811</ele>
        <time>2016-07-03T09:48:38Z</time>
      </trkpt>
      <trkpt lat="44.30708" lon="5.06417">
        <ele>215.94858482032</ele>
        <time>2016-07-03T09:48:42Z</time>
      </trkpt>
      <trkpt lat="44.30706" lon="5.06377">
        <ele>214.78543333226</ele>
        <time>2016-07-03T09:48:46Z</time>
      </trkpt>
      <trkpt lat="44.30703" lon="5.06338">
        <ele>215.25124430807</ele>
        <time>2016-07-03T09:48:50Z</time>
      </trkpt>
      <trkpt lat="44.30697" lon="5.06292">
        <ele>218.206595896</ele>
        <time>2016-07-03T09:48:55Z</time>
      </trkpt>
      <trkpt lat="44.30685" lon="5.06257">
        <ele>218.94603579822</ele>
        <time>2016-07-03T09:48:59Z</time>
      </trkpt>
      <trkpt lat="44.30664" lon="5.06222">
        <ele>216.40246725793</ele>
        <time>2016-07-03T09:49:04Z</time>
      </trkpt>
      <trkpt lat="44.30648" lon="5.06192">
        <ele>214.98440915333</ele>
        <time>2016-07-03T09:49:09Z</time>
      </trkpt>
      <trkpt lat="44.30629" lon="5.06161">
        <ele>215.7178147071</ele>
        <time>2016-07-03T09:49:14Z</time>
      </trkpt>
      <trkpt lat="44.30613" lon="5.06134">
        <ele>216.15170880064</ele>
        <time>2016-07-03T09:49:18Z</time>
      </trkpt>
      <trkpt lat="44.30599" lon="5.0611">
        <ele>215.809494781</ele>
        <time>2016-07-03T09:49:22Z</time>
      </trkpt>
      <trkpt lat="44.30582" lon="5.06082">
        <ele>216.4633705277</ele>
        <time>2016-07-03T09:49:26Z</time>
      </trkpt>
      <trkpt lat="44.30563" lon="5.06054">
        <ele>218.10915829122</ele>
        <time>2016-07-03T09:49:30Z</time>
      </trkpt>
      <trkpt lat="44.30542" lon="5.06021">
        <ele>218.32806392687</ele>
        <time>2016-07-03T09:49:35Z</time>
      </trkpt>
      <trkpt lat="44.30525" lon="5.05993">
        <ele>219.19566007896</ele>
        <time>2016-07-03T09:49:39Z</time>
      </trkpt>
      <trkpt lat="44.3051" lon="5.05969">
        <ele>218.70887872319</ele>
        <time>2016-07-03T09:49:43Z</time>
      </trkpt>
      <trkpt lat="44.30495" lon="5.05942">
        <ele>219.94784481697</ele>
        <time>2016-07-03T09:49:47Z</time>
      </trkpt>
      <trkpt lat="44.3048" lon="5.05914">
        <ele>222.57149135788</ele>
        <time>2016-07-03T09:49:51Z</time>
      </trkpt>
      <trkpt lat="44.30461" lon="5.05879">
        <ele>223.71538451256</ele>
        <time>2016-07-03T09:49:56Z</time>
      </trkpt>
      <trkpt lat="44.30446" lon="5.05851">
        <ele>223.89208048541</ele>
        <time>2016-07-03T09:50:00Z</time>
      </trkpt>
      <trkpt lat="44.30429" lon="5.05817">
        <ele>222.68428682075</ele>
        <time>2016-07-03T09:50:05Z</time>
      </trkpt>
      <trkpt lat="44.30413" lon="5.05785">
        <ele>220.35317046063</ele>
        <time>2016-07-03T09:50:10Z</time>
      </trkpt>
      <trkpt lat="44.30393" lon="5.05749">
        <ele>218.98525087119</ele>
        <time>2016-07-03T09:50:15Z</time>
      </trkpt>
      <trkpt lat="44.30379" lon="5.05722">
        <ele>218.34442561586</ele>
        <time>2016-07-03T09:50:19Z</time>
      </trkpt>
      <trkpt lat="44.30364" lon="5.05693">
        <ele>218.46672680065</ele>
        <time>2016-07-03T09:50:23Z</time>
      </trkpt>
      <trkpt lat="44.30345" lon="5.05658">
        <ele>219.17567184749</ele>
        <time>2016-07-03T09:50:28Z</time>
      </trkpt>
      <trkpt lat="44.30331" lon="5.05632">
        <ele>218.12225461245</ele>
        <time>2016-07-03T09:50:32Z</time>
      </trkpt>
      <trkpt lat="44.30314" lon="5.05598">
        <ele>216.71920177837</ele>
        <time>2016-07-03T09:50:37Z</time>
      </trkpt>
      <trkpt lat="44.30298" lon="5.05568">
        <ele>215.99220311194</ele>
        <time>2016-07-03T09:50:41Z</time>
      </trkpt>
      <trkpt lat="44.30278" lon="5.05532">
        <ele>218.44201727453</ele>
        <time>2016-07-03T09:50:46Z</time>
      </trkpt>
      <trkpt lat="44.30263" lon="5.05503">
        <ele>217.29124294603</ele>
        <time>2016-07-03T09:50:50Z</time>
      </trkpt>
      <trkpt lat="44.30244" lon="5.05471">
        <ele>215.43393138538</ele>
        <time>2016-07-03T09:50:55Z</time>
      </trkpt>
      <trkpt lat="44.30229" lon="5.05444">
        <ele>212.07645355758</ele>
        <time>2016-07-03T09:51:00Z</time>
      </trkpt>
      <trkpt lat="44.3021" lon="5.05415">
        <ele>207.64798016758</ele>
        <time>2016-07-03T09:51:05Z</time>
      </trkpt>
      <trkpt lat="44.30193" lon="5.05391">
        <ele>206.14321941363</ele>
        <time>2016-07-03T09:51:09Z</time>
      </trkpt>
      <trkpt lat="44.30177" lon="5.05366">
        <ele>205.76106117219</ele>
        <time>2016-07-03T09:51:13Z</time>
      </trkpt>
      <trkpt lat="44.3016" lon="5.05341">
        <ele>206.57209668587</ele>
        <time>2016-07-03T09:51:17Z</time>
      </trkpt>
      <trkpt lat="44.3014" lon="5.05313">
        <ele>210.36904611559</ele>
        <time>2016-07-03T09:51:21Z</time>
      </trkpt>
      <trkpt lat="44.30122" lon="5.05287">
        <ele>214.31723872737</ele>
        <time>2016-07-03T09:51:25Z</time>
      </trkpt>
      <trkpt lat="44.30104" lon="5.05261">
        <ele>211.07748291996</ele>
        <time>2016-07-03T09:51:30Z</time>
      </trkpt>
      <trkpt lat="44.30082" lon="5.05228">
        <ele>212.79036739549</ele>
        <time>2016-07-03T09:51:35Z</time>
      </trkpt>
      <trkpt lat="44.30065" lon="5.05203">
        <ele>211.81806765446</ele>
        <time>2016-07-03T09:51:39Z</time>
      </trkpt>
      <trkpt lat="44.30052" lon="5.05179">
        <ele>209.15172012201</ele>
        <time>2016-07-03T09:51:43Z</time>
      </trkpt>
      <trkpt lat="44.30038" lon="5.05152">
        <ele>209.74530874679</ele>
        <time>2016-07-03T09:51:47Z</time>
      </trkpt>
      <trkpt lat="44.30022" lon="5.05119">
        <ele>212.28207042855</ele>
        <time>2016-07-03T09:51:52Z</time>
      </trkpt>
      <trkpt lat="44.30005" lon="5.05084">
        <ele>212.35331239452</ele>
        <time>2016-07-03T09:51:57Z</time>
      </trkpt>
      <trkpt lat="44.29991" lon="5.0506">
        <ele>211.28108758086</ele>
        <time>2016-07-03T09:52:01Z</time>
      </trkpt>
      <trkpt lat="44.29972" lon="5.05032">
        <ele>207.31854897917</ele>
        <time>2016-07-03T09:52:06Z</time>
      </trkpt>
      <trkpt lat="44.29953" lon="5.0501">
        <ele>208.38130660498</ele>
        <time>2016-07-03T09:52:10Z</time>
      </trkpt>
      <trkpt lat="44.29932" lon="5.04992">
        <ele>210.83725060519</ele>
        <time>2016-07-03T09:52:14Z</time>
      </trkpt>
      <trkpt lat="44.29911" lon="5.04977">
        <ele>212.02847250979</ele>
        <time>2016-07-03T09:52:18Z</time>
      </trkpt>
      <trkpt lat="44.29884" lon="5.04963">
        <ele>213.81670860191</ele>
        <time>2016-07-03T09:52:23Z</time>
      </trkpt>
      <trkpt lat="44.29864" lon="5.04953">
        <ele>213.8113236454</ele>
        <time>2016-07-03T09:52:27Z</time>
      </trkpt>
      <trkpt lat="44.29844" lon="5.04941">
        <ele>214.61775784333</ele>
        <time>2016-07-03T09:52:31Z</time>
      </trkpt>
      <trkpt lat="44.29825" lon="5.04928">
        <ele>214.74306637399</ele>
        <time>2016-07-03T09:52:35Z</time>
      </trkpt>
      <trkpt lat="44.298" lon="5.04909">
        <ele>215.11116645091</ele>
        <time>2016-07-03T09:52:40Z</time>
      </trkpt>
      <trkpt lat="44.2978" lon="5.0489">
        <ele>216.03324636569</ele>
        <time>2016-07-03T09:52:44Z</time>
      </trkpt>
      <trkpt lat="44.2976" lon="5.04873">
        <ele>216.22312866489</ele>
        <time>2016-07-03T09:52:48Z</time>
      </trkpt>
      <trkpt lat="44.29733" lon="5.04852">
        <ele>216.21122417578</ele>
        <time>2016-07-03T09:52:53Z</time>
      </trkpt>
      <trkpt lat="44.2971" lon="5.04833">
        <ele>216.08368548529</ele>
        <time>2016-07-03T09:52:58Z</time>
      </trkpt>
      <trkpt lat="44.29692" lon="5.04818">
        <ele>216.53441371457</ele>
        <time>2016-07-03T09:53:02Z</time>
      </trkpt>
      <trkpt lat="44.29669" lon="5.04798">
        <ele>218.29836817209</ele>
        <time>2016-07-03T09:53:07Z</time>
      </trkpt>
      <trkpt lat="44.29652" lon="5.04783">
        <ele>219.65893795228</ele>
        <time>2016-07-03T09:53:11Z</time>
      </trkpt>
      <trkpt lat="44.29632" lon="5.04764">
        <ele>218.89015963348</ele>
        <time>2016-07-03T09:53:16Z</time>
      </trkpt>
      <trkpt lat="44.29613" lon="5.04747">
        <ele>219.27435392627</ele>
        <time>2016-07-03T09:53:20Z</time>
      </trkpt>
      <trkpt lat="44.29593" lon="5.04731">
        <ele>218.53285143544</ele>
        <time>2016-07-03T09:53:24Z</time>
      </trkpt>
      <trkpt lat="44.29577" lon="5.04711">
        <ele>218.18226998517</ele>
        <time>2016-07-03T09:53:28Z</time>
      </trkpt>
      <trkpt lat="44.29565" lon="5.04689">
        <ele>217.98024600502</ele>
        <time>2016-07-03T09:53:32Z</time>
      </trkpt>
      <trkpt lat="44.29551" lon="5.04658">
        <ele>215.20421917414</ele>
        <time>2016-07-03T09:53:37Z</time>
      </trkpt>
      <trkpt lat="44.29536" lon="5.04625">
        <ele>215.87189726835</ele>
        <time>2016-07-03T09:53:42Z</time>
      </trkpt>
      <trkpt lat="44.29526" lon="5.046">
        <ele>216.40779461493</ele>
        <time>2016-07-03T09:53:46Z</time>
      </trkpt>
      <trkpt lat="44.29514" lon="5.04572">
        <ele>216.5844137173</ele>
        <time>2016-07-03T09:53:51Z</time>
      </trkpt>
      <trkpt lat="44.29501" lon="5.04544">
        <ele>216.90010101593</ele>
        <time>2016-07-03T09:53:56Z</time>
      </trkpt>
      <trkpt lat="44.29491" lon="5.04525">
        <ele>215.19417543587</ele>
        <time>2016-07-03T09:54:00Z</time>
      </trkpt>
      <trkpt lat="44.29478" lon="5.04498">
        <ele>213.858044864</ele>
        <time>2016-07-03T09:54:05Z</time>
      </trkpt>
      <trkpt lat="44.29464" lon="5.04468">
        <ele>212.96196733437</ele>
        <time>2016-07-03T09:54:10Z</time>
      </trkpt>
      <trkpt lat="44.29453" lon="5.04443">
        <ele>213.07115081355</ele>
        <time>2016-07-03T09:54:14Z</time>
      </trkpt>
      <trkpt lat="44.29441" lon="5.04416">
        <ele>212.5165122005</ele>
        <time>2016-07-03T09:54:18Z</time>
      </trkpt>
      <trkpt lat="44.29423" lon="5.04377">
        <ele>213.46943374347</ele>
        <time>2016-07-03T09:54:23Z</time>
      </trkpt>
      <trkpt lat="44.29401" lon="5.0433">
        <ele>216.44386328714</ele>
        <time>2016-07-03T09:54:28Z</time>
      </trkpt>
      <trkpt lat="44.29384" lon="5.0429">
        <ele>219.67547806453</ele>
        <time>2016-07-03T09:54:32Z</time>
      </trkpt>
      <trkpt lat="44.29365" lon="5.0425">
        <ele>221.71085238372</ele>
        <time>2016-07-03T09:54:36Z</time>
      </trkpt>
      <trkpt lat="44.29345" lon="5.0421">
        <ele>221.42904285795</ele>
        <time>2016-07-03T09:54:40Z</time>
      </trkpt>
      <trkpt lat="44.29321" lon="5.04172">
        <ele>220.71012584307</ele>
        <time>2016-07-03T09:54:44Z</time>
      </trkpt>
      <trkpt lat="44.29297" lon="5.04139">
        <ele>220.21016082563</ele>
        <time>2016-07-03T09:54:48Z</time>
      </trkpt>
      <trkpt lat="44.29269" lon="5.04102">
        <ele>218.35728802173</ele>
        <time>2016-07-03T09:54:53Z</time>
      </trkpt>
      <trkpt lat="44.29251" lon="5.04075">
        <ele>215.16417163733</ele>
        <time>2016-07-03T09:54:57Z</time>
      </trkpt>
      <trkpt lat="44.29234" lon="5.04049">
        <ele>211.83935747761</ele>
        <time>2016-07-03T09:55:01Z</time>
      </trkpt>
      <trkpt lat="44.29211" lon="5.04016">
        <ele>209.39114270227</ele>
        <time>2016-07-03T09:55:06Z</time>
      </trkpt>
      <trkpt lat="44.29194" lon="5.03991">
        <ele>207.99835171759</ele>
        <time>2016-07-03T09:55:10Z</time>
      </trkpt>
      <trkpt lat="44.29178" lon="5.03965">
        <ele>207.72381277311</ele>
        <time>2016-07-03T09:55:14Z</time>
      </trkpt>
      <trkpt lat="44.29164" lon="5.03942">
        <ele>207.50784086602</ele>
        <time>2016-07-03T09:55:18Z</time>
      </trkpt>
      <trkpt lat="44.29148" lon="5.03913">
        <ele>208.32681726638</ele>
        <time>2016-07-03T09:55:23Z</time>
      </trkpt>
      <trkpt lat="44.29134" lon="5.03888">
        <ele>209.47657760799</ele>
        <time>2016-07-03T09:55:27Z</time>
      </trkpt>
      <trkpt lat="44.29118" lon="5.03863">
        <ele>212.56695789967</ele>
        <time>2016-07-03T09:55:31Z</time>
      </trkpt>
      <trkpt lat="44.29097" lon="5.03835">
        <ele>215.29468598702</ele>
        <time>2016-07-03T09:55:36Z</time>
      </trkpt>
      <trkpt lat="44.29081" lon="5.03817">
        <ele>215.57764086425</ele>
        <time>2016-07-03T09:55:40Z</time>
      </trkpt>
      <trkpt lat="44.29067" lon="5.03799">
        <ele>214.80455247276</ele>
        <time>2016-07-03T09:55:44Z</time>
      </trkpt>
      <trkpt lat="44.29053" lon="5.03783">
        <ele>212.71264201607</ele>
        <time>2016-07-03T09:55:48Z</time>
      </trkpt>
      <trkpt lat="44.29041" lon="5.03765">
        <ele>208.68796155612</ele>
        <time>2016-07-03T09:55:52Z</time>
      </trkpt>
      <trkpt lat="44.29026" lon="5.03747">
        <ele>207.02025917534</ele>
        <time>2016-07-03T09:55:56Z</time>
      </trkpt>
      <trkpt lat="44.2901" lon="5.03723">
        <ele>205.32895217161</ele>
        <time>2016-07-03T09:56:01Z</time>
      </trkpt>
      <trkpt lat="44.28992" lon="5.03698">
        <ele>205.75149866478</ele>
        <time>2016-07-03T09:56:06Z</time>
      </trkpt>
      <trkpt lat="44.28979" lon="5.03681">
        <ele>204.93641146622</ele>
        <time>2016-07-03T09:56:10Z</time>
      </trkpt>
      <trkpt lat="44.28965" lon="5.03661">
        <ele>203.68837461675</ele>
        <time>2016-07-03T09:56:14Z</time>
      </trkpt>
      <trkpt lat="44.28952" lon="5.03642">
        <ele>204.76696715236</ele>
        <time>2016-07-03T09:56:18Z</time>
      </trkpt>
      <trkpt lat="44.28938" lon="5.03621">
        <ele>206.01722805169</ele>
        <time>2016-07-03T09:56:22Z</time>
      </trkpt>
      <trkpt lat="44.28923" lon="5.03598">
        <ele>205.76718770062</ele>
        <time>2016-07-03T09:56:27Z</time>
      </trkpt>
      <trkpt lat="44.28908" lon="5.03577">
        <ele>204.97533915206</ele>
        <time>2016-07-03T09:56:31Z</time>
      </trkpt>
      <trkpt lat="44.2889" lon="5.03551">
        <ele>205.04190114663</ele>
        <time>2016-07-03T09:56:36Z</time>
      </trkpt>
      <trkpt lat="44.28873" lon="5.03527">
        <ele>204.13515650561</ele>
        <time>2016-07-03T09:56:41Z</time>
      </trkpt>
      <trkpt lat="44.2886" lon="5.03508">
        <ele>203.30267400498</ele>
        <time>2016-07-03T09:56:45Z</time>
      </trkpt>
      <trkpt lat="44.28851" lon="5.03495">
        <ele>203.34225332264</ele>
        <time>2016-07-03T09:56:49Z</time>
      </trkpt>
      <trkpt lat="44.2884" lon="5.03494">
        <ele>203.52906843276</ele>
        <time>2016-07-03T09:56:53Z</time>
      </trkpt>
      <trkpt lat="44.28826" lon="5.03499">
        <ele>206.01416216823</ele>
        <time>2016-07-03T09:56:58Z</time>
      </trkpt>
      <trkpt lat="44.28811" lon="5.03504">
        <ele>208.10162638361</ele>
        <time>2016-07-03T09:57:02Z</time>
      </trkpt>
      <trkpt lat="44.28791" lon="5.03509">
        <ele>211.26849165155</ele>
        <time>2016-07-03T09:57:07Z</time>
      </trkpt>
      <trkpt lat="44.28775" lon="5.03512">
        <ele>215.30227966641</ele>
        <time>2016-07-03T09:57:11Z</time>
      </trkpt>
      <trkpt lat="44.28757" lon="5.03516">
        <ele>216.26714116625</ele>
        <time>2016-07-03T09:57:15Z</time>
      </trkpt>
      <trkpt lat="44.28739" lon="5.0352">
        <ele>216.28955786683</ele>
        <time>2016-07-03T09:57:19Z</time>
      </trkpt>
      <trkpt lat="44.28723" lon="5.03522">
        <ele>217.1028883196</ele>
        <time>2016-07-03T09:57:23Z</time>
      </trkpt>
      <trkpt lat="44.28703" lon="5.03525">
        <ele>216.64252993156</ele>
        <time>2016-07-03T09:57:28Z</time>
      </trkpt>
      <trkpt lat="44.2868" lon="5.03528">
        <ele>217.23284954022</ele>
        <time>2016-07-03T09:57:33Z</time>
      </trkpt>
      <trkpt lat="44.28661" lon="5.0353">
        <ele>219.23636743699</ele>
        <time>2016-07-03T09:57:37Z</time>
      </trkpt>
      <trkpt lat="44.28644" lon="5.03531">
        <ele>221.90941072716</ele>
        <time>2016-07-03T09:57:41Z</time>
      </trkpt>
      <trkpt lat="44.28627" lon="5.03532">
        <ele>223.15998812112</ele>
        <time>2016-07-03T09:57:45Z</time>
      </trkpt>
      <trkpt lat="44.28611" lon="5.03534">
        <ele>225.19571351653</ele>
        <time>2016-07-03T09:57:49Z</time>
      </trkpt>
      <trkpt lat="44.28595" lon="5.03535">
        <ele>227.74842801669</ele>
        <time>2016-07-03T09:57:53Z</time>
      </trkpt>
      <trkpt lat="44.2858" lon="5.03537">
        <ele>231.56183039183</ele>
        <time>2016-07-03T09:57:57Z</time>
      </trkpt>
      <trkpt lat="44.2856" lon="5.03537">
        <ele>235.43201632431</ele>
        <time>2016-07-03T09:58:02Z</time>
      </trkpt>
      <trkpt lat="44.28545" lon="5.03537">
        <ele>235.75273407865</ele>
        <time>2016-07-03T09:58:06Z</time>
      </trkpt>
      <trkpt lat="44.28529" lon="5.03537">
        <ele>235.56202816868</ele>
        <time>2016-07-03T09:58:11Z</time>
      </trkpt>
      <trkpt lat="44.28517" lon="5.03536">
        <ele>235.21941172112</ele>
        <time>2016-07-03T09:58:15Z</time>
      </trkpt>
      <trkpt lat="44.285" lon="5.03534">
        <ele>235.09338101959</ele>
        <time>2016-07-03T09:58:20Z</time>
      </trkpt>
      <trkpt lat="44.28484" lon="5.0353">
        <ele>235.34053665359</ele>
        <time>2016-07-03T09:58:25Z</time>
      </trkpt>
      <trkpt lat="44.28473" lon="5.03525">
        <ele>235.56219298373</ele>
        <time>2016-07-03T09:58:29Z</time>
      </trkpt>
      <trkpt lat="44.28461" lon="5.03518">
        <ele>235.88538810875</ele>
        <time>2016-07-03T09:58:34Z</time>
      </trkpt>
      <trkpt lat="44.28462" lon="5.03508">
        <ele>239.86376905597</ele>
        <time>2016-07-03T09:58:57Z</time>
      </trkpt>
      <trkpt lat="44.28473" lon="5.035">
        <ele>240.53577803998</ele>
        <time>2016-07-03T09:59:01Z</time>
      </trkpt>
      <trkpt lat="44.2848" lon="5.03492">
        <ele>240.85953280677</ele>
        <time>2016-07-03T09:59:05Z</time>
      </trkpt>
      <trkpt lat="44.28485" lon="5.03482">
        <ele>241.49108153845</ele>
        <time>2016-07-03T09:59:09Z</time>
      </trkpt>
      <trkpt lat="44.28488" lon="5.03469">
        <ele>242.323218144</ele>
        <time>2016-07-03T09:59:13Z</time>
      </trkpt>
      <trkpt lat="44.28491" lon="5.03454">
        <ele>243.50414200637</ele>
        <time>2016-07-03T09:59:18Z</time>
      </trkpt>
      <trkpt lat="44.28493" lon="5.03439">
        <ele>244.59591607402</ele>
        <time>2016-07-03T09:59:22Z</time>
      </trkpt>
      <trkpt lat="44.28495" lon="5.03419">
        <ele>246.20640224123</ele>
        <time>2016-07-03T09:59:27Z</time>
      </trkpt>
      <trkpt lat="44.28495" lon="5.03402">
        <ele>247.27833581857</ele>
        <time>2016-07-03T09:59:31Z</time>
      </trkpt>
      <trkpt lat="44.28492" lon="5.03385">
        <ele>248.29707505696</ele>
        <time>2016-07-03T09:59:35Z</time>
      </trkpt>
      <trkpt lat="44.2849" lon="5.03376">
        <ele>254.06767567754</ele>
        <time>2016-07-03T09:59:49Z</time>
      </trkpt>
      <trkpt lat="44.28482" lon="5.03378">
        <ele>256.64894803367</ele>
        <time>2016-07-03T10:00:28Z</time>
      </trkpt>
      <trkpt lat="44.28481" lon="5.03366">
        <ele>255.62428234746</ele>
        <time>2016-07-03T10:01:35Z</time>
      </trkpt>
      <trkpt lat="44.28483" lon="5.03378">
        <ele>255.81553325357</ele>
        <time>2016-07-03T10:01:40Z</time>
      </trkpt>
      <trkpt lat="44.28476" lon="5.03385">
        <ele>256.49022042252</ele>
        <time>2016-07-03T10:02:14Z</time>
      </trkpt>
      <trkpt lat="44.28468" lon="5.03386">
        <ele>257.69472361436</ele>
        <time>2016-07-03T10:02:24Z</time>
      </trkpt>
      <trkpt lat="44.28458" lon="5.03383">
        <ele>258.36770582005</ele>
        <time>2016-07-03T10:02:28Z</time>
      </trkpt>
      <trkpt lat="44.28451" lon="5.0338">
        <ele>258.74807357578</ele>
        <time>2016-07-03T10:02:32Z</time>
      </trkpt>
      <trkpt lat="44.2844" lon="5.03383">
        <ele>258.95496182032</ele>
        <time>2016-07-03T10:02:37Z</time>
      </trkpt>
      <trkpt lat="44.28435" lon="5.03391">
        <ele>258.96455514343</ele>
        <time>2016-07-03T10:02:41Z</time>
      </trkpt>
      <trkpt lat="44.28431" lon="5.03402">
        <ele>259.13550867994</ele>
        <time>2016-07-03T10:02:48Z</time>
      </trkpt>
      <trkpt lat="44.28437" lon="5.03409">
        <ele>259.21142398936</ele>
        <time>2016-07-03T10:02:56Z</time>
      </trkpt>
      <trkpt lat="44.28445" lon="5.03414">
        <ele>258.795479028</ele>
        <time>2016-07-03T10:03:01Z</time>
      </trkpt>
      <trkpt lat="44.28445" lon="5.03426">
        <ele>258.61163797213</ele>
        <time>2016-07-03T10:03:05Z</time>
      </trkpt>
      <trkpt lat="44.28444" lon="5.03436">
        <ele>258.47600821087</ele>
        <time>2016-07-03T10:03:09Z</time>
      </trkpt>
      <trkpt lat="44.28443" lon="5.03449">
        <ele>257.93411979292</ele>
        <time>2016-07-03T10:03:14Z</time>
      </trkpt>
      <trkpt lat="44.28447" lon="5.03438">
        <ele>264.49171915252</ele>
        <time>2016-07-03T10:04:10Z</time>
      </trkpt>
      <trkpt lat="44.28451" lon="5.03428">
        <ele>264.71800521322</ele>
        <time>2016-07-03T10:04:14Z</time>
      </trkpt>
      <trkpt lat="44.28455" lon="5.03417">
        <ele>264.35453521748</ele>
        <time>2016-07-03T10:04:18Z</time>
      </trkpt>
      <trkpt lat="44.28449" lon="5.03412">
        <ele>263.52303941455</ele>
        <time>2016-07-03T10:04:22Z</time>
      </trkpt>
      <trkpt lat="44.28438" lon="5.03408">
        <ele>262.61520559612</ele>
        <time>2016-07-03T10:04:27Z</time>
      </trkpt>
      <trkpt lat="44.2843" lon="5.03406">
        <ele>262.07112485505</ele>
        <time>2016-07-03T10:04:32Z</time>
      </trkpt>
      <trkpt lat="44.28424" lon="5.03413">
        <ele>261.62014880443</ele>
        <time>2016-07-03T10:04:36Z</time>
      </trkpt>
      <trkpt lat="44.28418" lon="5.03423">
        <ele>261.04784312227</ele>
        <time>2016-07-03T10:04:41Z</time>
      </trkpt>
      <trkpt lat="44.2841" lon="5.03429">
        <ele>260.65853423328</ele>
        <time>2016-07-03T10:04:48Z</time>
      </trkpt>
      <trkpt lat="44.28416" lon="5.03423">
        <ele>260.12930472931</ele>
        <time>2016-07-03T10:04:55Z</time>
      </trkpt>
      <trkpt lat="44.28419" lon="5.03411">
        <ele>258.79580889025</ele>
        <time>2016-07-03T10:05:08Z</time>
      </trkpt>
      <trkpt lat="44.28424" lon="5.03402">
        <ele>255.98755670523</ele>
        <time>2016-07-03T10:05:26Z</time>
      </trkpt>
      <trkpt lat="44.28419" lon="5.03412">
        <ele>250.94454344689</ele>
        <time>2016-07-03T10:06:29Z</time>
      </trkpt>
      <trkpt lat="44.28411" lon="5.03413">
        <ele>260.5230231597</ele>
        <time>2016-07-03T10:08:41Z</time>
      </trkpt>
      <trkpt lat="44.28402" lon="5.03415">
        <ele>261.29158761621</ele>
        <time>2016-07-03T10:08:55Z</time>
      </trkpt>
      <trkpt lat="44.28398" lon="5.0341">
        <ele>261.45500451786</ele>
        <time>2016-07-03T10:09:05Z</time>
      </trkpt>
      <trkpt lat="44.28394" lon="5.03363">
        <ele>262.38412671349</ele>
        <time>2016-07-03T10:09:46Z</time>
      </trkpt>
      <trkpt lat="44.28397" lon="5.03374">
        <ele>265.85383925723</ele>
        <time>2016-07-03T10:10:08Z</time>
      </trkpt>
      <trkpt lat="44.28402" lon="5.03384">
        <ele>266.40752094348</ele>
        <time>2016-07-03T10:10:12Z</time>
      </trkpt>
      <trkpt lat="44.2841" lon="5.03414">
        <ele>266.53500025737</ele>
        <time>2016-07-03T10:10:17Z</time>
      </trkpt>
      <trkpt lat="44.28413" lon="5.03425">
        <ele>261.92637377004</ele>
        <time>2016-07-03T10:11:39Z</time>
      </trkpt>
      <trkpt lat="44.28407" lon="5.03434">
        <ele>260.81953956795</ele>
        <time>2016-07-03T10:11:49Z</time>
      </trkpt>
      <trkpt lat="44.28406" lon="5.03448">
        <ele>260.39888918473</ele>
        <time>2016-07-03T10:11:53Z</time>
      </trkpt>
      <trkpt lat="44.28402" lon="5.03464">
        <ele>259.91388147283</ele>
        <time>2016-07-03T10:11:57Z</time>
      </trkpt>
      <trkpt lat="44.28402" lon="5.03486">
        <ele>259.28868221818</ele>
        <time>2016-07-03T10:12:02Z</time>
      </trkpt>
      <trkpt lat="44.28413" lon="5.03494">
        <ele>257.5408184184</ele>
        <time>2016-07-03T10:12:06Z</time>
      </trkpt>
      <trkpt lat="44.28424" lon="5.035">
        <ele>259.60804201954</ele>
        <time>2016-07-03T10:12:10Z</time>
      </trkpt>
      <trkpt lat="44.28435" lon="5.03507">
        <ele>259.70157763365</ele>
        <time>2016-07-03T10:12:14Z</time>
      </trkpt>
      <trkpt lat="44.28441" lon="5.03514">
        <ele>259.28957455793</ele>
        <time>2016-07-03T10:12:18Z</time>
      </trkpt>
      <trkpt lat="44.2845" lon="5.03523">
        <ele>258.82268694946</ele>
        <time>2016-07-03T10:12:23Z</time>
      </trkpt>
      <trkpt lat="44.28452" lon="5.03539">
        <ele>258.012709763</ele>
        <time>2016-07-03T10:12:28Z</time>
      </trkpt>
      <trkpt lat="44.28452" lon="5.0355">
        <ele>255.0786336021</ele>
        <time>2016-07-03T10:12:40Z</time>
      </trkpt>
      <trkpt lat="44.2845" lon="5.03538">
        <ele>251.40138627448</ele>
        <time>2016-07-03T10:12:57Z</time>
      </trkpt>
      <trkpt lat="44.28446" lon="5.03527">
        <ele>248.73409807751</ele>
        <time>2016-07-03T10:13:10Z</time>
      </trkpt>
      <trkpt lat="44.28444" lon="5.03538">
        <ele>247.24863363997</ele>
        <time>2016-07-03T10:13:27Z</time>
      </trkpt>
      <trkpt lat="44.28445" lon="5.03549">
        <ele>247.15438145656</ele>
        <time>2016-07-03T10:13:32Z</time>
      </trkpt>
      <trkpt lat="44.28452" lon="5.03554">
        <ele>245.68882518232</ele>
        <time>2016-07-03T10:13:59Z</time>
      </trkpt>
      <trkpt lat="44.28463" lon="5.03571">
        <ele>244.01895749271</ele>
        <time>2016-07-03T10:14:04Z</time>
      </trkpt>
      <trkpt lat="44.28474" lon="5.03581">
        <ele>243.25250268716</ele>
        <time>2016-07-03T10:14:08Z</time>
      </trkpt>
      <trkpt lat="44.28486" lon="5.0359">
        <ele>243.36059097258</ele>
        <time>2016-07-03T10:14:13Z</time>
      </trkpt>
      <trkpt lat="44.28496" lon="5.03597">
        <ele>243.60898978338</ele>
        <time>2016-07-03T10:14:17Z</time>
      </trkpt>
      <trkpt lat="44.28504" lon="5.03603">
        <ele>243.83621988304</ele>
        <time>2016-07-03T10:14:21Z</time>
      </trkpt>
      <trkpt lat="44.28515" lon="5.03612">
        <ele>243.76463974762</ele>
        <time>2016-07-03T10:14:25Z</time>
      </trkpt>
      <trkpt lat="44.2853" lon="5.03633">
        <ele>240.89252321505</ele>
        <time>2016-07-03T10:14:30Z</time>
      </trkpt>
      <trkpt lat="44.28542" lon="5.03661">
        <ele>242.05192026791</ele>
        <time>2016-07-03T10:14:35Z</time>
      </trkpt>
      <trkpt lat="44.28553" lon="5.03684">
        <ele>241.43840249394</ele>
        <time>2016-07-03T10:14:39Z</time>
      </trkpt>
      <trkpt lat="44.2855" lon="5.03711">
        <ele>240.49082948162</ele>
        <time>2016-07-03T10:14:43Z</time>
      </trkpt>
      <trkpt lat="44.28535" lon="5.03746">
        <ele>237.48239281856</ele>
        <time>2016-07-03T10:14:48Z</time>
      </trkpt>
      <trkpt lat="44.28521" lon="5.03773">
        <ele>234.74701457097</ele>
        <time>2016-07-03T10:14:52Z</time>
      </trkpt>
      <trkpt lat="44.28509" lon="5.03805">
        <ele>231.8345828952</ele>
        <time>2016-07-03T10:14:57Z</time>
      </trkpt>
      <trkpt lat="44.28517" lon="5.03833">
        <ele>229.78764535197</ele>
        <time>2016-07-03T10:15:01Z</time>
      </trkpt>
      <trkpt lat="44.28542" lon="5.03836">
        <ele>226.91013912422</ele>
        <time>2016-07-03T10:15:06Z</time>
      </trkpt>
      <trkpt lat="44.28565" lon="5.03825">
        <ele>225.75013330363</ele>
        <time>2016-07-03T10:15:10Z</time>
      </trkpt>
      <trkpt lat="44.2859" lon="5.03809">
        <ele>224.63010268543</ele>
        <time>2016-07-03T10:15:14Z</time>
      </trkpt>
      <trkpt lat="44.28615" lon="5.03794">
        <ele>222.49062074915</ele>
        <time>2016-07-03T10:15:18Z</time>
      </trkpt>
      <trkpt lat="44.28643" lon="5.03779">
        <ele>220.02491920985</ele>
        <time>2016-07-03T10:15:22Z</time>
      </trkpt>
      <trkpt lat="44.28679" lon="5.03763">
        <ele>217.54349487446</ele>
        <time>2016-07-03T10:15:27Z</time>
      </trkpt>
      <trkpt lat="44.28705" lon="5.03744">
        <ele>216.5168441898</ele>
        <time>2016-07-03T10:15:31Z</time>
      </trkpt>
      <trkpt lat="44.28736" lon="5.03708">
        <ele>215.10939782344</ele>
        <time>2016-07-03T10:15:36Z</time>
      </trkpt>
      <trkpt lat="44.28758" lon="5.03674">
        <ele>213.5906094828</ele>
        <time>2016-07-03T10:15:40Z</time>
      </trkpt>
      <trkpt lat="44.28779" lon="5.03634">
        <ele>214.22324077837</ele>
        <time>2016-07-03T10:15:44Z</time>
      </trkpt>
      <trkpt lat="44.28797" lon="5.03595">
        <ele>213.14150346628</ele>
        <time>2016-07-03T10:15:48Z</time>
      </trkpt>
      <trkpt lat="44.28821" lon="5.03544">
        <ele>211.3921410452</ele>
        <time>2016-07-03T10:15:53Z</time>
      </trkpt>
      <trkpt lat="44.28842" lon="5.03501">
        <ele>207.20152171979</ele>
        <time>2016-07-03T10:15:58Z</time>
      </trkpt>
      <trkpt lat="44.28864" lon="5.03472">
        <ele>203.71135947474</ele>
        <time>2016-07-03T10:16:02Z</time>
      </trkpt>
      <trkpt lat="44.28889" lon="5.03451">
        <ele>201.37128917866</ele>
        <time>2016-07-03T10:16:06Z</time>
      </trkpt>
      <trkpt lat="44.28923" lon="5.03433">
        <ele>198.86379977548</ele>
        <time>2016-07-03T10:16:11Z</time>
      </trkpt>
      <trkpt lat="44.2895" lon="5.0342">
        <ele>197.66120484725</ele>
        <time>2016-07-03T10:16:15Z</time>
      </trkpt>
      <trkpt lat="44.28985" lon="5.03403">
        <ele>195.57999278179</ele>
        <time>2016-07-03T10:16:20Z</time>
      </trkpt>
      <trkpt lat="44.29011" lon="5.03391">
        <ele>193.98101536109</ele>
        <time>2016-07-03T10:16:24Z</time>
      </trkpt>
      <trkpt lat="44.29034" lon="5.03372">
        <ele>193.47533190896</ele>
        <time>2016-07-03T10:16:28Z</time>
      </trkpt>
      <trkpt lat="44.29038" lon="5.03337">
        <ele>192.62382227468</ele>
        <time>2016-07-03T10:16:32Z</time>
      </trkpt>
      <trkpt lat="44.29032" lon="5.03296">
        <ele>191.64364364751</ele>
        <time>2016-07-03T10:16:37Z</time>
      </trkpt>
      <trkpt lat="44.29022" lon="5.03257">
        <ele>193.09530121477</ele>
        <time>2016-07-03T10:16:42Z</time>
      </trkpt>
      <trkpt lat="44.29014" lon="5.03227">
        <ele>194.45185274128</ele>
        <time>2016-07-03T10:16:46Z</time>
      </trkpt>
      <trkpt lat="44.29001" lon="5.03185">
        <ele>192.50430569266</ele>
        <time>2016-07-03T10:16:51Z</time>
      </trkpt>
      <trkpt lat="44.28992" lon="5.03152">
        <ele>190.7272275251</ele>
        <time>2016-07-03T10:16:55Z</time>
      </trkpt>
      <trkpt lat="44.28983" lon="5.03112">
        <ele>191.97993325789</ele>
        <time>2016-07-03T10:17:00Z</time>
      </trkpt>
      <trkpt lat="44.28976" lon="5.03081">
        <ele>191.73885939603</ele>
        <time>2016-07-03T10:17:04Z</time>
      </trkpt>
      <trkpt lat="44.28968" lon="5.03051">
        <ele>191.98706036056</ele>
        <time>2016-07-03T10:17:08Z</time>
      </trkpt>
      <trkpt lat="44.28959" lon="5.03013">
        <ele>192.42773905967</ele>
        <time>2016-07-03T10:17:13Z</time>
      </trkpt>
      <trkpt lat="44.2895" lon="5.02976">
        <ele>191.90521587012</ele>
        <time>2016-07-03T10:17:18Z</time>
      </trkpt>
      <trkpt lat="44.28942" lon="5.02948">
        <ele>190.91607997755</ele>
        <time>2016-07-03T10:17:22Z</time>
      </trkpt>
      <trkpt lat="44.28934" lon="5.02917">
        <ele>190.48671667828</ele>
        <time>2016-07-03T10:17:26Z</time>
      </trkpt>
      <trkpt lat="44.28924" lon="5.02877">
        <ele>190.10676175449</ele>
        <time>2016-07-03T10:17:31Z</time>
      </trkpt>
      <trkpt lat="44.28913" lon="5.02839">
        <ele>188.00931035085</ele>
        <time>2016-07-03T10:17:36Z</time>
      </trkpt>
      <trkpt lat="44.28903" lon="5.0281">
        <ele>186.77630029156</ele>
        <time>2016-07-03T10:17:40Z</time>
      </trkpt>
      <trkpt lat="44.2889" lon="5.02782">
        <ele>186.77912379196</ele>
        <time>2016-07-03T10:17:45Z</time>
      </trkpt>
      <trkpt lat="44.28882" lon="5.02764">
        <ele>187.52638378826</ele>
        <time>2016-07-03T10:17:49Z</time>
      </trkpt>
      <trkpt lat="44.28873" lon="5.02745">
        <ele>188.51432869854</ele>
        <time>2016-07-03T10:17:53Z</time>
      </trkpt>
      <trkpt lat="44.2886" lon="5.02716">
        <ele>190.90163899069</ele>
        <time>2016-07-03T10:17:58Z</time>
      </trkpt>
      <trkpt lat="44.28845" lon="5.02687">
        <ele>190.33709441727</ele>
        <time>2016-07-03T10:18:03Z</time>
      </trkpt>
      <trkpt lat="44.28831" lon="5.02659">
        <ele>188.15058584718</ele>
        <time>2016-07-03T10:18:08Z</time>
      </trkpt>
      <trkpt lat="44.28819" lon="5.02632">
        <ele>187.09773221088</ele>
        <time>2016-07-03T10:18:13Z</time>
      </trkpt>
      <trkpt lat="44.28808" lon="5.02608">
        <ele>186.08022678398</ele>
        <time>2016-07-03T10:18:17Z</time>
      </trkpt>
      <trkpt lat="44.28794" lon="5.02577">
        <ele>185.74821312805</ele>
        <time>2016-07-03T10:18:22Z</time>
      </trkpt>
      <trkpt lat="44.28782" lon="5.0255">
        <ele>185.70011694324</ele>
        <time>2016-07-03T10:18:26Z</time>
      </trkpt>
      <trkpt lat="44.28767" lon="5.02519">
        <ele>184.82461765558</ele>
        <time>2016-07-03T10:18:31Z</time>
      </trkpt>
      <trkpt lat="44.28756" lon="5.02492">
        <ele>184.47520554243</ele>
        <time>2016-07-03T10:18:35Z</time>
      </trkpt>
      <trkpt lat="44.28748" lon="5.02455">
        <ele>183.61761217271</ele>
        <time>2016-07-03T10:18:40Z</time>
      </trkpt>
      <trkpt lat="44.28744" lon="5.02425">
        <ele>183.18045670291</ele>
        <time>2016-07-03T10:18:44Z</time>
      </trkpt>
      <trkpt lat="44.28736" lon="5.02388">
        <ele>183.26013977709</ele>
        <time>2016-07-03T10:18:49Z</time>
      </trkpt>
      <trkpt lat="44.28728" lon="5.02361">
        <ele>183.49015179454</ele>
        <time>2016-07-03T10:18:53Z</time>
      </trkpt>
      <trkpt lat="44.28717" lon="5.02324">
        <ele>183.87939025689</ele>
        <time>2016-07-03T10:18:58Z</time>
      </trkpt>
      <trkpt lat="44.28708" lon="5.02294">
        <ele>183.55002128062</ele>
        <time>2016-07-03T10:19:02Z</time>
      </trkpt>
      <trkpt lat="44.28696" lon="5.02264">
        <ele>184.11745194251</ele>
        <time>2016-07-03T10:19:07Z</time>
      </trkpt>
      <trkpt lat="44.2869" lon="5.02255">
        <ele>184.82105397152</ele>
        <time>2016-07-03T10:20:11Z</time>
      </trkpt>
      <trkpt lat="44.28683" lon="5.02241">
        <ele>185.04951994609</ele>
        <time>2016-07-03T10:20:15Z</time>
      </trkpt>
      <trkpt lat="44.28674" lon="5.02223">
        <ele>186.20345820542</ele>
        <time>2016-07-03T10:20:19Z</time>
      </trkpt>
      <trkpt lat="44.28664" lon="5.02205">
        <ele>186.7018507558</ele>
        <time>2016-07-03T10:20:23Z</time>
      </trkpt>
      <trkpt lat="44.2865" lon="5.02182">
        <ele>186.24361782975</ele>
        <time>2016-07-03T10:20:28Z</time>
      </trkpt>
      <trkpt lat="44.28638" lon="5.02162">
        <ele>186.37089228625</ele>
        <time>2016-07-03T10:20:32Z</time>
      </trkpt>
      <trkpt lat="44.28626" lon="5.02141">
        <ele>185.58712149136</ele>
        <time>2016-07-03T10:20:36Z</time>
      </trkpt>
      <trkpt lat="44.28614" lon="5.02119">
        <ele>186.05276712539</ele>
        <time>2016-07-03T10:20:40Z</time>
      </trkpt>
      <trkpt lat="44.28599" lon="5.02091">
        <ele>185.19480513755</ele>
        <time>2016-07-03T10:20:45Z</time>
      </trkpt>
      <trkpt lat="44.28587" lon="5.02069">
        <ele>184.6057025633</ele>
        <time>2016-07-03T10:20:49Z</time>
      </trkpt>
      <trkpt lat="44.28572" lon="5.02042">
        <ele>185.75039311649</ele>
        <time>2016-07-03T10:20:54Z</time>
      </trkpt>
      <trkpt lat="44.28555" lon="5.02013">
        <ele>185.91968272222</ele>
        <time>2016-07-03T10:20:59Z</time>
      </trkpt>
      <trkpt lat="44.2854" lon="5.01988">
        <ele>185.1775227521</ele>
        <time>2016-07-03T10:21:03Z</time>
      </trkpt>
      <trkpt lat="44.28526" lon="5.01961">
        <ele>185.02065543177</ele>
        <time>2016-07-03T10:21:08Z</time>
      </trkpt>
      <trkpt lat="44.28519" lon="5.01937">
        <ele>186.47554730557</ele>
        <time>2016-07-03T10:21:12Z</time>
      </trkpt>
      <trkpt lat="44.2851" lon="5.01905">
        <ele>186.92716663014</ele>
        <time>2016-07-03T10:21:17Z</time>
      </trkpt>
      <trkpt lat="44.28505" lon="5.01878">
        <ele>184.4324152316</ele>
        <time>2016-07-03T10:21:21Z</time>
      </trkpt>
      <trkpt lat="44.28498" lon="5.01849">
        <ele>183.57116362275</ele>
        <time>2016-07-03T10:21:25Z</time>
      </trkpt>
      <trkpt lat="44.28492" lon="5.01821">
        <ele>182.65871392382</ele>
        <time>2016-07-03T10:21:29Z</time>
      </trkpt>
      <trkpt lat="44.28486" lon="5.0179">
        <ele>182.97923754101</ele>
        <time>2016-07-03T10:21:33Z</time>
      </trkpt>
      <trkpt lat="44.28479" lon="5.01761">
        <ele>183.26423668997</ele>
        <time>2016-07-03T10:21:37Z</time>
      </trkpt>
      <trkpt lat="44.28475" lon="5.01731">
        <ele>183.62761345262</ele>
        <time>2016-07-03T10:21:41Z</time>
      </trkpt>
      <trkpt lat="44.28472" lon="5.017">
        <ele>184.25102503481</ele>
        <time>2016-07-03T10:21:45Z</time>
      </trkpt>
      <trkpt lat="44.28468" lon="5.01659">
        <ele>183.82873894741</ele>
        <time>2016-07-03T10:21:50Z</time>
      </trkpt>
      <trkpt lat="44.28465" lon="5.01626">
        <ele>184.24782260386</ele>
        <time>2016-07-03T10:21:54Z</time>
      </trkpt>
      <trkpt lat="44.28457" lon="5.01585">
        <ele>185.67591833281</ele>
        <time>2016-07-03T10:21:59Z</time>
      </trkpt>
      <trkpt lat="44.28443" lon="5.01554">
        <ele>184.91741408041</ele>
        <time>2016-07-03T10:22:03Z</time>
      </trkpt>
      <trkpt lat="44.28428" lon="5.01526">
        <ele>183.61230872043</ele>
        <time>2016-07-03T10:22:07Z</time>
      </trkpt>
      <trkpt lat="44.28411" lon="5.01492">
        <ele>183.2777693342</ele>
        <time>2016-07-03T10:22:12Z</time>
      </trkpt>
      <trkpt lat="44.28402" lon="5.01461">
        <ele>184.20861813971</ele>
        <time>2016-07-03T10:22:16Z</time>
      </trkpt>
      <trkpt lat="44.28404" lon="5.01427">
        <ele>183.70461283447</ele>
        <time>2016-07-03T10:22:20Z</time>
      </trkpt>
      <trkpt lat="44.28409" lon="5.01394">
        <ele>182.91198672801</ele>
        <time>2016-07-03T10:22:24Z</time>
      </trkpt>
      <trkpt lat="44.28409" lon="5.01352">
        <ele>181.4570550583</ele>
        <time>2016-07-03T10:22:29Z</time>
      </trkpt>
      <trkpt lat="44.28399" lon="5.01314">
        <ele>181.69721455129</ele>
        <time>2016-07-03T10:22:34Z</time>
      </trkpt>
      <trkpt lat="44.28394" lon="5.01283">
        <ele>182.87539373646</ele>
        <time>2016-07-03T10:22:38Z</time>
      </trkpt>
      <trkpt lat="44.28394" lon="5.0125">
        <ele>182.6682671782</ele>
        <time>2016-07-03T10:22:42Z</time>
      </trkpt>
      <trkpt lat="44.28401" lon="5.01209">
        <ele>178.57076582574</ele>
        <time>2016-07-03T10:22:47Z</time>
      </trkpt>
      <trkpt lat="44.28408" lon="5.01176">
        <ele>177.40685395737</ele>
        <time>2016-07-03T10:22:51Z</time>
      </trkpt>
      <trkpt lat="44.28412" lon="5.01144">
        <ele>177.08135439398</ele>
        <time>2016-07-03T10:22:55Z</time>
      </trkpt>
      <trkpt lat="44.28407" lon="5.01104">
        <ele>179.98049830245</ele>
        <time>2016-07-03T10:23:00Z</time>
      </trkpt>
      <trkpt lat="44.28396" lon="5.01075">
        <ele>181.44211136731</ele>
        <time>2016-07-03T10:23:04Z</time>
      </trkpt>
      <trkpt lat="44.28386" lon="5.01042">
        <ele>183.71218989124</ele>
        <time>2016-07-03T10:23:08Z</time>
      </trkpt>
      <trkpt lat="44.28382" lon="5.01">
        <ele>187.54964349198</ele>
        <time>2016-07-03T10:23:13Z</time>
      </trkpt>
      <trkpt lat="44.28381" lon="5.0096">
        <ele>187.37055035847</ele>
        <time>2016-07-03T10:23:18Z</time>
      </trkpt>
      <trkpt lat="44.28379" lon="5.00926">
        <ele>186.79592246009</ele>
        <time>2016-07-03T10:23:22Z</time>
      </trkpt>
      <trkpt lat="44.28375" lon="5.00894">
        <ele>188.56132343572</ele>
        <time>2016-07-03T10:23:26Z</time>
      </trkpt>
      <trkpt lat="44.28371" lon="5.00854">
        <ele>190.33071564822</ele>
        <time>2016-07-03T10:23:31Z</time>
      </trkpt>
      <trkpt lat="44.28368" lon="5.00829">
        <ele>190.7648421576</ele>
        <time>2016-07-03T10:23:35Z</time>
      </trkpt>
      <trkpt lat="44.28367" lon="5.00818">
        <ele>191.84695810039</ele>
        <time>2016-07-03T10:25:03Z</time>
      </trkpt>
      <trkpt lat="44.28368" lon="5.00798">
        <ele>191.99480663643</ele>
        <time>2016-07-03T10:25:07Z</time>
      </trkpt>
      <trkpt lat="44.28369" lon="5.00781">
        <ele>191.72369982603</ele>
        <time>2016-07-03T10:25:11Z</time>
      </trkpt>
      <trkpt lat="44.28369" lon="5.00761">
        <ele>191.36721146595</ele>
        <time>2016-07-03T10:25:15Z</time>
      </trkpt>
      <trkpt lat="44.28368" lon="5.0074">
        <ele>188.19363697558</ele>
        <time>2016-07-03T10:25:19Z</time>
      </trkpt>
      <trkpt lat="44.28369" lon="5.00717">
        <ele>187.16021191767</ele>
        <time>2016-07-03T10:25:23Z</time>
      </trkpt>
      <trkpt lat="44.28368" lon="5.00695">
        <ele>185.52814804637</ele>
        <time>2016-07-03T10:25:27Z</time>
      </trkpt>
      <trkpt lat="44.28368" lon="5.00667">
        <ele>185.4179528463</ele>
        <time>2016-07-03T10:25:31Z</time>
      </trkpt>
      <trkpt lat="44.28367" lon="5.00633">
        <ele>184.85558302927</ele>
        <time>2016-07-03T10:25:36Z</time>
      </trkpt>
      <trkpt lat="44.28363" lon="5.00606">
        <ele>183.91608396446</ele>
        <time>2016-07-03T10:25:40Z</time>
      </trkpt>
      <trkpt lat="44.28357" lon="5.00577">
        <ele>182.70963659259</ele>
        <time>2016-07-03T10:25:44Z</time>
      </trkpt>
      <trkpt lat="44.2835" lon="5.00548">
        <ele>180.8728467332</ele>
        <time>2016-07-03T10:25:48Z</time>
      </trkpt>
      <trkpt lat="44.28343" lon="5.0051">
        <ele>179.96477967481</ele>
        <time>2016-07-03T10:25:53Z</time>
      </trkpt>
      <trkpt lat="44.28338" lon="5.00477">
        <ele>181.10338134231</ele>
        <time>2016-07-03T10:25:57Z</time>
      </trkpt>
      <trkpt lat="44.28335" lon="5.00445">
        <ele>182.07486069544</ele>
        <time>2016-07-03T10:26:01Z</time>
      </trkpt>
      <trkpt lat="44.28333" lon="5.00412">
        <ele>185.31533070973</ele>
        <time>2016-07-03T10:26:05Z</time>
      </trkpt>
      <trkpt lat="44.2833" lon="5.00372">
        <ele>188.26811846309</ele>
        <time>2016-07-03T10:26:10Z</time>
      </trkpt>
      <trkpt lat="44.28324" lon="5.00341">
        <ele>188.8499742992</ele>
        <time>2016-07-03T10:26:14Z</time>
      </trkpt>
      <trkpt lat="44.28317" lon="5.00311">
        <ele>188.82367084322</ele>
        <time>2016-07-03T10:26:18Z</time>
      </trkpt>
      <trkpt lat="44.28308" lon="5.00281">
        <ele>186.80261537277</ele>
        <time>2016-07-03T10:26:22Z</time>
      </trkpt>
      <trkpt lat="44.28299" lon="5.00252">
        <ele>185.77635007118</ele>
        <time>2016-07-03T10:26:26Z</time>
      </trkpt>
      <trkpt lat="44.2829" lon="5.00211">
        <ele>185.31389096197</ele>
        <time>2016-07-03T10:26:31Z</time>
      </trkpt>
      <trkpt lat="44.28283" lon="5.00178">
        <ele>185.61399165832</ele>
        <time>2016-07-03T10:26:35Z</time>
      </trkpt>
      <trkpt lat="44.28271" lon="5.00141">
        <ele>186.89872162727</ele>
        <time>2016-07-03T10:26:40Z</time>
      </trkpt>
      <trkpt lat="44.28264" lon="5.00111">
        <ele>188.3214911021</ele>
        <time>2016-07-03T10:26:44Z</time>
      </trkpt>
      <trkpt lat="44.28259" lon="5.00079">
        <ele>187.36234534844</ele>
        <time>2016-07-03T10:26:48Z</time>
      </trkpt>
      <trkpt lat="44.28253" lon="5.00038">
        <ele>185.79214877989</ele>
        <time>2016-07-03T10:26:53Z</time>
      </trkpt>
      <trkpt lat="44.28249" lon="5.00002">
        <ele>183.84148502123</ele>
        <time>2016-07-03T10:26:57Z</time>
      </trkpt>
      <trkpt lat="44.28243" lon="4.99956">
        <ele>182.72314632417</ele>
        <time>2016-07-03T10:27:02Z</time>
      </trkpt>
      <trkpt lat="44.28237" lon="4.9991">
        <ele>181.90503875234</ele>
        <time>2016-07-03T10:27:07Z</time>
      </trkpt>
      <trkpt lat="44.28232" lon="4.99874">
        <ele>181.72729156586</ele>
        <time>2016-07-03T10:27:11Z</time>
      </trkpt>
      <trkpt lat="44.28227" lon="4.99839">
        <ele>182.50236630646</ele>
        <time>2016-07-03T10:27:15Z</time>
      </trkpt>
      <trkpt lat="44.2822" lon="4.99816">
        <ele>182.04366057066</ele>
        <time>2016-07-03T10:27:19Z</time>
      </trkpt>
      <trkpt lat="44.28204" lon="4.99824">
        <ele>183.02901192191</ele>
        <time>2016-07-03T10:27:24Z</time>
      </trkpt>
      <trkpt lat="44.28182" lon="4.9984">
        <ele>180.33712687312</ele>
        <time>2016-07-03T10:27:29Z</time>
      </trkpt>
      <trkpt lat="44.28164" lon="4.99852">
        <ele>179.13311504174</ele>
        <time>2016-07-03T10:27:33Z</time>
      </trkpt>
      <trkpt lat="44.28147" lon="4.99864">
        <ele>180.28903836031</ele>
        <time>2016-07-03T10:27:37Z</time>
      </trkpt>
      <trkpt lat="44.28129" lon="4.99877">
        <ele>182.84299140342</ele>
        <time>2016-07-03T10:27:41Z</time>
      </trkpt>
      <trkpt lat="44.28107" lon="4.99895">
        <ele>185.78965827729</ele>
        <time>2016-07-03T10:27:46Z</time>
      </trkpt>
      <trkpt lat="44.2809" lon="4.9991">
        <ele>189.36611541249</ele>
        <time>2016-07-03T10:27:50Z</time>
      </trkpt>
      <trkpt lat="44.28068" lon="4.99931">
        <ele>190.55613600516</ele>
        <time>2016-07-03T10:27:55Z</time>
      </trkpt>
      <trkpt lat="44.28044" lon="4.9995">
        <ele>187.94851918222</ele>
        <time>2016-07-03T10:28:00Z</time>
      </trkpt>
      <trkpt lat="44.28026" lon="4.99963">
        <ele>186.28209194537</ele>
        <time>2016-07-03T10:28:04Z</time>
      </trkpt>
      <trkpt lat="44.2801" lon="4.99971">
        <ele>187.79677613125</ele>
        <time>2016-07-03T10:28:08Z</time>
      </trkpt>
      <trkpt lat="44.27994" lon="4.99976">
        <ele>193.35990770518</ele>
        <time>2016-07-03T10:28:12Z</time>
      </trkpt>
      <trkpt lat="44.27975" lon="4.99981">
        <ele>196.9026022143</ele>
        <time>2016-07-03T10:28:16Z</time>
      </trkpt>
      <trkpt lat="44.27957" lon="4.99989">
        <ele>198.46619691876</ele>
        <time>2016-07-03T10:28:20Z</time>
      </trkpt>
      <trkpt lat="44.27935" lon="5.00003">
        <ele>199.98067699012</ele>
        <time>2016-07-03T10:28:25Z</time>
      </trkpt>
      <trkpt lat="44.27917" lon="5.00014">
        <ele>202.02316723372</ele>
        <time>2016-07-03T10:28:30Z</time>
      </trkpt>
      <trkpt lat="44.27904" lon="5.00016">
        <ele>203.14905021584</ele>
        <time>2016-07-03T10:28:34Z</time>
      </trkpt>
      <trkpt lat="44.27891" lon="5.00005">
        <ele>203.59823889311</ele>
        <time>2016-07-03T10:28:38Z</time>
      </trkpt>
      <trkpt lat="44.27887" lon="4.99982">
        <ele>203.21399442568</ele>
        <time>2016-07-03T10:28:42Z</time>
      </trkpt>
      <trkpt lat="44.27895" lon="4.99958">
        <ele>204.84813224906</ele>
        <time>2016-07-03T10:28:46Z</time>
      </trkpt>
      <trkpt lat="44.27906" lon="4.99929">
        <ele>205.12798694541</ele>
        <time>2016-07-03T10:28:51Z</time>
      </trkpt>
      <trkpt lat="44.27918" lon="4.99905">
        <ele>204.36139301183</ele>
        <time>2016-07-03T10:28:55Z</time>
      </trkpt>
      <trkpt lat="44.27932" lon="4.99879">
        <ele>204.07519375038</ele>
        <time>2016-07-03T10:29:00Z</time>
      </trkpt>
      <trkpt lat="44.27951" lon="4.99859">
        <ele>204.75324117795</ele>
        <time>2016-07-03T10:29:05Z</time>
      </trkpt>
      <trkpt lat="44.27967" lon="4.99843">
        <ele>204.78168095978</ele>
        <time>2016-07-03T10:29:09Z</time>
      </trkpt>
      <trkpt lat="44.27978" lon="4.99831">
        <ele>204.21251977895</ele>
        <time>2016-07-03T10:29:13Z</time>
      </trkpt>
      <trkpt lat="44.27984" lon="4.99824">
        <ele>204.4121469885</ele>
        <time>2016-07-03T10:29:18Z</time>
      </trkpt>
      <trkpt lat="44.27987" lon="4.99816">
        <ele>204.99155421211</ele>
        <time>2016-07-03T10:29:22Z</time>
      </trkpt>
      <trkpt lat="44.27985" lon="4.99797">
        <ele>205.83888147393</ele>
        <time>2016-07-03T10:29:27Z</time>
      </trkpt>
      <trkpt lat="44.27984" lon="4.99782">
        <ele>207.14444907521</ele>
        <time>2016-07-03T10:29:32Z</time>
      </trkpt>
      <trkpt lat="44.27985" lon="4.99778">
        <ele>208.32874476148</ele>
        <time>2016-07-03T10:29:41Z</time>
      </trkpt>
      <trkpt lat="44.28" lon="4.99773">
        <ele>208.7418589831</ele>
        <time>2016-07-03T10:29:45Z</time>
      </trkpt>
      <trkpt lat="44.28008" lon="4.99771">
        <ele>209.08285181577</ele>
        <time>2016-07-03T10:29:50Z</time>
      </trkpt>
      <trkpt lat="44.28015" lon="4.99767">
        <ele>210.05933246556</ele>
        <time>2016-07-03T10:29:55Z</time>
      </trkpt>
      <trkpt lat="44.28022" lon="4.99764">
        <ele>210.67486531995</ele>
        <time>2016-07-03T10:30:01Z</time>
      </trkpt>
      <trkpt lat="44.28025" lon="4.99762">
        <ele>213.42935465584</ele>
        <time>2016-07-03T10:31:01Z</time>
      </trkpt>
      <trkpt lat="44.28033" lon="4.99756">
        <ele>213.81947005897</ele>
        <time>2016-07-03T10:31:13Z</time>
      </trkpt>
      <trkpt lat="44.28035" lon="4.99753">
        <ele>213.60703989695</ele>
        <time>2016-07-03T10:31:20Z</time>
      </trkpt>
      <trkpt lat="44.28038" lon="4.99746">
        <ele>213.8060670273</ele>
        <time>2016-07-03T10:32:11Z</time>
      </trkpt>
      <trkpt lat="44.28054" lon="4.99734">
        <ele>214.24101898519</ele>
        <time>2016-07-03T10:32:15Z</time>
      </trkpt>
      <trkpt lat="44.28062" lon="4.99736">
        <ele>215.04314212271</ele>
        <time>2016-07-03T10:32:24Z</time>
      </trkpt>
      <trkpt lat="44.28069" lon="4.99732">
        <ele>215.14996223287</ele>
        <time>2016-07-03T10:32:29Z</time>
      </trkpt>
      <trkpt lat="44.28078" lon="4.99736">
        <ele>215.33048054183</ele>
        <time>2016-07-03T10:32:42Z</time>
      </trkpt>
      <trkpt lat="44.28075" lon="4.99748">
        <ele>218.28748304274</ele>
        <time>2016-07-03T10:33:13Z</time>
      </trkpt>
      <trkpt lat="44.28071" lon="4.99758">
        <ele>218.93915147109</ele>
        <time>2016-07-03T10:33:19Z</time>
      </trkpt>
      <trkpt lat="44.28065" lon="4.99766">
        <ele>218.43340639888</ele>
        <time>2016-07-03T10:33:26Z</time>
      </trkpt>
      <trkpt lat="44.28057" lon="4.9977">
        <ele>217.83750495381</ele>
        <time>2016-07-03T10:33:34Z</time>
      </trkpt>
      <trkpt lat="44.28049" lon="4.99775">
        <ele>217.5935961506</ele>
        <time>2016-07-03T10:33:39Z</time>
      </trkpt>
      <trkpt lat="44.28045" lon="4.99766">
        <ele>216.97992521552</ele>
        <time>2016-07-03T10:33:44Z</time>
      </trkpt>
      <trkpt lat="44.28045" lon="4.99755">
        <ele>216.77255829336</ele>
        <time>2016-07-03T10:33:50Z</time>
      </trkpt>
      <trkpt lat="44.28041" lon="4.99744">
        <ele>216.45200841211</ele>
        <time>2016-07-03T10:33:55Z</time>
      </trkpt>
      <trkpt lat="44.28038" lon="4.99733">
        <ele>216.28800209244</ele>
        <time>2016-07-03T10:34:01Z</time>
      </trkpt>
      <trkpt lat="44.28037" lon="4.9972">
        <ele>215.55356676307</ele>
        <time>2016-07-03T10:34:07Z</time>
      </trkpt>
      <trkpt lat="44.28042" lon="4.9973">
        <ele>213.8768870363</ele>
        <time>2016-07-03T10:34:33Z</time>
      </trkpt>
      <trkpt lat="44.28037" lon="4.99741">
        <ele>216.70512771374</ele>
        <time>2016-07-03T10:35:07Z</time>
      </trkpt>
      <trkpt lat="44.28045" lon="4.99738">
        <ele>220.74770836422</ele>
        <time>2016-07-03T10:35:30Z</time>
      </trkpt>
      <trkpt lat="44.28048" lon="4.99748">
        <ele>229.79327815386</ele>
        <time>2016-07-03T10:37:24Z</time>
      </trkpt>
      <trkpt lat="44.28053" lon="4.99759">
        <ele>229.51505454535</ele>
        <time>2016-07-03T10:37:28Z</time>
      </trkpt>
      <trkpt lat="44.28054" lon="4.99771">
        <ele>229.63055418696</ele>
        <time>2016-07-03T10:37:32Z</time>
      </trkpt>
      <trkpt lat="44.28041" lon="4.9978">
        <ele>229.18526659988</ele>
        <time>2016-07-03T10:37:37Z</time>
      </trkpt>
      <trkpt lat="44.28032" lon="4.99783">
        <ele>228.36245294916</ele>
        <time>2016-07-03T10:37:48Z</time>
      </trkpt>
      <trkpt lat="44.28026" lon="4.99776">
        <ele>226.63484319948</ele>
        <time>2016-07-03T10:37:58Z</time>
      </trkpt>
      <trkpt lat="44.28021" lon="4.99768">
        <ele>225.84022914863</ele>
        <time>2016-07-03T10:38:02Z</time>
      </trkpt>
      <trkpt lat="44.28016" lon="4.99759">
        <ele>225.47108226032</ele>
        <time>2016-07-03T10:38:06Z</time>
      </trkpt>
      <trkpt lat="44.28004" lon="4.99756">
        <ele>225.01527691526</ele>
        <time>2016-07-03T10:38:10Z</time>
      </trkpt>
      <trkpt lat="44.27993" lon="4.99755">
        <ele>223.80033837449</ele>
        <time>2016-07-03T10:38:15Z</time>
      </trkpt>
      <trkpt lat="44.27986" lon="4.9975">
        <ele>222.69654447554</ele>
        <time>2016-07-03T10:38:19Z</time>
      </trkpt>
      <trkpt lat="44.27984" lon="4.99735">
        <ele>221.94127675146</ele>
        <time>2016-07-03T10:38:23Z</time>
      </trkpt>
      <trkpt lat="44.27992" lon="4.99721">
        <ele>220.61322265469</ele>
        <time>2016-07-03T10:38:28Z</time>
      </trkpt>
      <trkpt lat="44.28004" lon="4.99708">
        <ele>218.95256312449</ele>
        <time>2016-07-03T10:38:33Z</time>
      </trkpt>
      <trkpt lat="44.28016" lon="4.99696">
        <ele>217.83360507114</ele>
        <time>2016-07-03T10:38:37Z</time>
      </trkpt>
      <trkpt lat="44.28028" lon="4.99682">
        <ele>216.3678225851</ele>
        <time>2016-07-03T10:38:42Z</time>
      </trkpt>
      <trkpt lat="44.28038" lon="4.99663">
        <ele>208.2025181195</ele>
        <time>2016-07-03T10:38:46Z</time>
      </trkpt>
      <trkpt lat="44.28053" lon="4.99638">
        <ele>200.32224628463</ele>
        <time>2016-07-03T10:38:50Z</time>
      </trkpt>
      <trkpt lat="44.2807" lon="4.99611">
        <ele>195.85656392324</ele>
        <time>2016-07-03T10:38:54Z</time>
      </trkpt>
      <trkpt lat="44.28086" lon="4.99591">
        <ele>192.87733950456</ele>
        <time>2016-07-03T10:38:58Z</time>
      </trkpt>
      <trkpt lat="44.28101" lon="4.99567">
        <ele>188.0839649024</ele>
        <time>2016-07-03T10:39:02Z</time>
      </trkpt>
      <trkpt lat="44.28108" lon="4.99537">
        <ele>183.35336062184</ele>
        <time>2016-07-03T10:39:07Z</time>
      </trkpt>
      <trkpt lat="44.2811" lon="4.99504">
        <ele>180.7905049673</ele>
        <time>2016-07-03T10:39:11Z</time>
      </trkpt>
      <trkpt lat="44.28112" lon="4.99469">
        <ele>178.52410017692</ele>
        <time>2016-07-03T10:39:15Z</time>
      </trkpt>
      <trkpt lat="44.28114" lon="4.99438">
        <ele>178.09562020631</ele>
        <time>2016-07-03T10:39:19Z</time>
      </trkpt>
      <trkpt lat="44.28118" lon="4.99399">
        <ele>178.43596498516</ele>
        <time>2016-07-03T10:39:24Z</time>
      </trkpt>
      <trkpt lat="44.2812" lon="4.99367">
        <ele>178.13259831329</ele>
        <time>2016-07-03T10:39:28Z</time>
      </trkpt>
      <trkpt lat="44.28122" lon="4.99338">
        <ele>176.51075914665</ele>
        <time>2016-07-03T10:39:32Z</time>
      </trkpt>
      <trkpt lat="44.28119" lon="4.99314">
        <ele>175.70839418573</ele>
        <time>2016-07-03T10:39:36Z</time>
      </trkpt>
      <trkpt lat="44.2811" lon="4.99284">
        <ele>179.33940020347</ele>
        <time>2016-07-03T10:39:41Z</time>
      </trkpt>
      <trkpt lat="44.28102" lon="4.99259">
        <ele>182.50552952498</ele>
        <time>2016-07-03T10:39:45Z</time>
      </trkpt>
      <trkpt lat="44.28099" lon="4.99234">
        <ele>183.20958682378</ele>
        <time>2016-07-03T10:39:49Z</time>
      </trkpt>
      <trkpt lat="44.28099" lon="4.99207">
        <ele>184.28169841922</ele>
        <time>2016-07-03T10:39:54Z</time>
      </trkpt>
      <trkpt lat="44.28097" lon="4.99183">
        <ele>185.21964495327</ele>
        <time>2016-07-03T10:39:58Z</time>
      </trkpt>
      <trkpt lat="44.28082" lon="4.99171">
        <ele>183.2382822448</ele>
        <time>2016-07-03T10:40:02Z</time>
      </trkpt>
      <trkpt lat="44.28059" lon="4.99163">
        <ele>179.93915801632</ele>
        <time>2016-07-03T10:40:07Z</time>
      </trkpt>
      <trkpt lat="44.28044" lon="4.99144">
        <ele>178.00092512446</ele>
        <time>2016-07-03T10:40:12Z</time>
      </trkpt>
      <trkpt lat="44.28038" lon="4.99131">
        <ele>177.80461361528</ele>
        <time>2016-07-03T10:40:16Z</time>
      </trkpt>
      <trkpt lat="44.28038" lon="4.99141">
        <ele>177.68461279837</ele>
        <time>2016-07-03T10:40:21Z</time>
      </trkpt>
      <trkpt lat="44.28046" lon="4.99156">
        <ele>178.05617862278</ele>
        <time>2016-07-03T10:40:25Z</time>
      </trkpt>
      <trkpt lat="44.28053" lon="4.99166">
        <ele>178.38985391928</ele>
        <time>2016-07-03T10:40:29Z</time>
      </trkpt>
      <trkpt lat="44.28059" lon="4.99175">
        <ele>180.41335884524</ele>
        <time>2016-07-03T10:44:17Z</time>
      </trkpt>
      <trkpt lat="44.28059" lon="4.99166">
        <ele>177.24797209952</ele>
        <time>2016-07-03T10:47:49Z</time>
      </trkpt>
      <trkpt lat="44.28049" lon="4.9915">
        <ele>177.19048683224</ele>
        <time>2016-07-03T10:47:53Z</time>
      </trkpt>
      <trkpt lat="44.28039" lon="4.99129">
        <ele>177.53489831097</ele>
        <time>2016-07-03T10:47:58Z</time>
      </trkpt>
      <trkpt lat="44.2803" lon="4.99103">
        <ele>177.90768009657</ele>
        <time>2016-07-03T10:48:03Z</time>
      </trkpt>
      <trkpt lat="44.28025" lon="4.9908">
        <ele>178.55340033369</ele>
        <time>2016-07-03T10:48:07Z</time>
      </trkpt>
      <trkpt lat="44.28021" lon="4.99056">
        <ele>178.19110224233</ele>
        <time>2016-07-03T10:48:11Z</time>
      </trkpt>
      <trkpt lat="44.28016" lon="4.99026">
        <ele>177.44975922295</ele>
        <time>2016-07-03T10:48:16Z</time>
      </trkpt>
      <trkpt lat="44.28012" lon="4.99004">
        <ele>177.13614413668</ele>
        <time>2016-07-03T10:48:20Z</time>
      </trkpt>
      <trkpt lat="44.28007" lon="4.98974">
        <ele>177.04681939255</ele>
        <time>2016-07-03T10:48:25Z</time>
      </trkpt>
      <trkpt lat="44.28003" lon="4.9895">
        <ele>176.46780930548</ele>
        <time>2016-07-03T10:48:29Z</time>
      </trkpt>
      <trkpt lat="44.27998" lon="4.98924">
        <ele>176.72170575712</ele>
        <time>2016-07-03T10:48:33Z</time>
      </trkpt>
      <trkpt lat="44.27991" lon="4.9889">
        <ele>179.17004302929</ele>
        <time>2016-07-03T10:48:38Z</time>
      </trkpt>
      <trkpt lat="44.27986" lon="4.98863">
        <ele>179.34388205548</ele>
        <time>2016-07-03T10:48:42Z</time>
      </trkpt>
      <trkpt lat="44.27977" lon="4.9883">
        <ele>179.31748076191</ele>
        <time>2016-07-03T10:48:47Z</time>
      </trkpt>
      <trkpt lat="44.27966" lon="4.98807">
        <ele>180.3815318786</ele>
        <time>2016-07-03T10:48:51Z</time>
      </trkpt>
      <trkpt lat="44.27949" lon="4.98777">
        <ele>179.2982033405</ele>
        <time>2016-07-03T10:48:56Z</time>
      </trkpt>
      <trkpt lat="44.27932" lon="4.98748">
        <ele>176.42129796086</ele>
        <time>2016-07-03T10:49:01Z</time>
      </trkpt>
      <trkpt lat="44.27916" lon="4.98729">
        <ele>174.79920975849</ele>
        <time>2016-07-03T10:49:05Z</time>
      </trkpt>
      <trkpt lat="44.27894" lon="4.98705">
        <ele>173.23579407328</ele>
        <time>2016-07-03T10:49:10Z</time>
      </trkpt>
      <trkpt lat="44.27879" lon="4.98684">
        <ele>173.45247728382</ele>
        <time>2016-07-03T10:49:14Z</time>
      </trkpt>
      <trkpt lat="44.27866" lon="4.98656">
        <ele>172.47208234977</ele>
        <time>2016-07-03T10:49:18Z</time>
      </trkpt>
      <trkpt lat="44.27858" lon="4.98619">
        <ele>171.81513173653</ele>
        <time>2016-07-03T10:49:23Z</time>
      </trkpt>
      <trkpt lat="44.27858" lon="4.98586">
        <ele>172.22133942083</ele>
        <time>2016-07-03T10:49:27Z</time>
      </trkpt>
      <trkpt lat="44.27859" lon="4.98545">
        <ele>173.80423035601</ele>
        <time>2016-07-03T10:49:32Z</time>
      </trkpt>
      <trkpt lat="44.2786" lon="4.98507">
        <ele>173.49573202067</ele>
        <time>2016-07-03T10:49:37Z</time>
      </trkpt>
      <trkpt lat="44.27859" lon="4.9847">
        <ele>174.97621374606</ele>
        <time>2016-07-03T10:49:42Z</time>
      </trkpt>
      <trkpt lat="44.27855" lon="4.98438">
        <ele>175.05352171794</ele>
        <time>2016-07-03T10:49:46Z</time>
      </trkpt>
      <trkpt lat="44.27848" lon="4.98394">
        <ele>174.72432031805</ele>
        <time>2016-07-03T10:49:51Z</time>
      </trkpt>
      <trkpt lat="44.27841" lon="4.98359">
        <ele>175.94460581459</ele>
        <time>2016-07-03T10:49:55Z</time>
      </trkpt>
      <trkpt lat="44.27826" lon="4.98326">
        <ele>177.09312643716</ele>
        <time>2016-07-03T10:50:00Z</time>
      </trkpt>
      <trkpt lat="44.27806" lon="4.98296">
        <ele>176.45165266845</ele>
        <time>2016-07-03T10:50:05Z</time>
      </trkpt>
      <trkpt lat="44.27787" lon="4.98264">
        <ele>174.03972047249</ele>
        <time>2016-07-03T10:50:10Z</time>
      </trkpt>
      <trkpt lat="44.27774" lon="4.98235">
        <ele>172.98662550448</ele>
        <time>2016-07-03T10:50:14Z</time>
      </trkpt>
      <trkpt lat="44.27763" lon="4.98204">
        <ele>172.32261572689</ele>
        <time>2016-07-03T10:50:18Z</time>
      </trkpt>
      <trkpt lat="44.2775" lon="4.98163">
        <ele>172.75743416023</ele>
        <time>2016-07-03T10:50:23Z</time>
      </trkpt>
      <trkpt lat="44.27741" lon="4.98119">
        <ele>173.8691334772</ele>
        <time>2016-07-03T10:50:28Z</time>
      </trkpt>
      <trkpt lat="44.27733" lon="4.98084">
        <ele>173.83260982251</ele>
        <time>2016-07-03T10:50:32Z</time>
      </trkpt>
      <trkpt lat="44.27724" lon="4.98042">
        <ele>174.97002895296</ele>
        <time>2016-07-03T10:50:37Z</time>
      </trkpt>
      <trkpt lat="44.27716" lon="4.98008">
        <ele>174.57507131194</ele>
        <time>2016-07-03T10:50:41Z</time>
      </trkpt>
      <trkpt lat="44.27707" lon="4.97963">
        <ele>174.91874359741</ele>
        <time>2016-07-03T10:50:46Z</time>
      </trkpt>
      <trkpt lat="44.27698" lon="4.97919">
        <ele>176.47178454902</ele>
        <time>2016-07-03T10:50:51Z</time>
      </trkpt>
      <trkpt lat="44.27692" lon="4.9789">
        <ele>175.82433507438</ele>
        <time>2016-07-03T10:50:55Z</time>
      </trkpt>
      <trkpt lat="44.2768" lon="4.9786">
        <ele>171.2888358995</ele>
        <time>2016-07-03T10:50:59Z</time>
      </trkpt>
      <trkpt lat="44.27668" lon="4.97827">
        <ele>170.02492831961</ele>
        <time>2016-07-03T10:51:03Z</time>
      </trkpt>
      <trkpt lat="44.27657" lon="4.97795">
        <ele>169.1627545787</ele>
        <time>2016-07-03T10:51:07Z</time>
      </trkpt>
      <trkpt lat="44.27646" lon="4.97765">
        <ele>166.71411000513</ele>
        <time>2016-07-03T10:51:11Z</time>
      </trkpt>
      <trkpt lat="44.27634" lon="4.97736">
        <ele>165.68999308031</ele>
        <time>2016-07-03T10:51:15Z</time>
      </trkpt>
      <trkpt lat="44.27622" lon="4.97708">
        <ele>165.16872638344</ele>
        <time>2016-07-03T10:51:19Z</time>
      </trkpt>
      <trkpt lat="44.27608" lon="4.97673">
        <ele>165.03258568184</ele>
        <time>2016-07-03T10:51:24Z</time>
      </trkpt>
      <trkpt lat="44.27599" lon="4.97645">
        <ele>166.6657019595</ele>
        <time>2016-07-03T10:51:28Z</time>
      </trkpt>
      <trkpt lat="44.27589" lon="4.97604">
        <ele>169.49386389413</ele>
        <time>2016-07-03T10:51:33Z</time>
      </trkpt>
      <trkpt lat="44.27582" lon="4.97572">
        <ele>171.84117973165</ele>
        <time>2016-07-03T10:51:37Z</time>
      </trkpt>
      <trkpt lat="44.27571" lon="4.97545">
        <ele>174.91384704312</ele>
        <time>2016-07-03T10:51:41Z</time>
      </trkpt>
      <trkpt lat="44.27554" lon="4.97516">
        <ele>173.34476462161</ele>
        <time>2016-07-03T10:51:45Z</time>
      </trkpt>
      <trkpt lat="44.27534" lon="4.97491">
        <ele>168.39050098168</ele>
        <time>2016-07-03T10:51:50Z</time>
      </trkpt>
      <trkpt lat="44.27515" lon="4.97457">
        <ele>166.87746302887</ele>
        <time>2016-07-03T10:51:55Z</time>
      </trkpt>
      <trkpt lat="44.27501" lon="4.97419">
        <ele>167.60300838267</ele>
        <time>2016-07-03T10:52:00Z</time>
      </trkpt>
      <trkpt lat="44.2749" lon="4.97392">
        <ele>168.35099718832</ele>
        <time>2016-07-03T10:52:04Z</time>
      </trkpt>
      <trkpt lat="44.27477" lon="4.97361">
        <ele>167.30456777829</ele>
        <time>2016-07-03T10:52:08Z</time>
      </trkpt>
      <trkpt lat="44.27459" lon="4.97329">
        <ele>166.0206262903</ele>
        <time>2016-07-03T10:52:12Z</time>
      </trkpt>
      <trkpt lat="44.27434" lon="4.97287">
        <ele>165.58496089122</ele>
        <time>2016-07-03T10:52:17Z</time>
      </trkpt>
      <trkpt lat="44.27413" lon="4.97255">
        <ele>163.49499028378</ele>
        <time>2016-07-03T10:52:21Z</time>
      </trkpt>
      <trkpt lat="44.27391" lon="4.97229">
        <ele>161.35878203113</ele>
        <time>2016-07-03T10:52:25Z</time>
      </trkpt>
      <trkpt lat="44.2736" lon="4.97192">
        <ele>158.59382829438</ele>
        <time>2016-07-03T10:52:30Z</time>
      </trkpt>
      <trkpt lat="44.2734" lon="4.97159">
        <ele>157.2441954629</ele>
        <time>2016-07-03T10:52:34Z</time>
      </trkpt>
      <trkpt lat="44.27327" lon="4.97126">
        <ele>158.53235735423</ele>
        <time>2016-07-03T10:52:38Z</time>
      </trkpt>
      <trkpt lat="44.27314" lon="4.97083">
        <ele>159.57996416091</ele>
        <time>2016-07-03T10:52:43Z</time>
      </trkpt>
      <trkpt lat="44.27303" lon="4.97038">
        <ele>160.6321876407</ele>
        <time>2016-07-03T10:52:48Z</time>
      </trkpt>
      <trkpt lat="44.27295" lon="4.97006">
        <ele>162.12027552272</ele>
        <time>2016-07-03T10:52:52Z</time>
      </trkpt>
      <trkpt lat="44.27287" lon="4.96973">
        <ele>163.0352347611</ele>
        <time>2016-07-03T10:52:56Z</time>
      </trkpt>
      <trkpt lat="44.27278" lon="4.96941">
        <ele>162.76241480922</ele>
        <time>2016-07-03T10:53:00Z</time>
      </trkpt>
      <trkpt lat="44.27271" lon="4.96911">
        <ele>165.01496509906</ele>
        <time>2016-07-03T10:53:05Z</time>
      </trkpt>
      <trkpt lat="44.27262" lon="4.96885">
        <ele>164.29148499598</ele>
        <time>2016-07-03T10:53:10Z</time>
      </trkpt>
      <trkpt lat="44.27256" lon="4.9686">
        <ele>163.96427876851</ele>
        <time>2016-07-03T10:53:14Z</time>
      </trkpt>
      <trkpt lat="44.2725" lon="4.96822">
        <ele>162.85603268934</ele>
        <time>2016-07-03T10:53:19Z</time>
      </trkpt>
      <trkpt lat="44.27243" lon="4.96783">
        <ele>161.39396356194</ele>
        <time>2016-07-03T10:53:23Z</time>
      </trkpt>
      <trkpt lat="44.27235" lon="4.96745">
        <ele>162.65072185237</ele>
        <time>2016-07-03T10:53:27Z</time>
      </trkpt>
      <trkpt lat="44.27222" lon="4.96711">
        <ele>163.62697367378</ele>
        <time>2016-07-03T10:53:31Z</time>
      </trkpt>
      <trkpt lat="44.27203" lon="4.9668">
        <ele>163.52169552075</ele>
        <time>2016-07-03T10:53:35Z</time>
      </trkpt>
      <trkpt lat="44.27185" lon="4.96653">
        <ele>163.83770195925</ele>
        <time>2016-07-03T10:53:39Z</time>
      </trkpt>
      <trkpt lat="44.27169" lon="4.9663">
        <ele>163.28145972907</ele>
        <time>2016-07-03T10:53:43Z</time>
      </trkpt>
      <trkpt lat="44.27152" lon="4.96601">
        <ele>162.56933310715</ele>
        <time>2016-07-03T10:53:48Z</time>
      </trkpt>
      <trkpt lat="44.2714" lon="4.96576">
        <ele>163.86962560143</ele>
        <time>2016-07-03T10:53:52Z</time>
      </trkpt>
      <trkpt lat="44.27126" lon="4.96548">
        <ele>163.93588624404</ele>
        <time>2016-07-03T10:53:57Z</time>
      </trkpt>
      <trkpt lat="44.27112" lon="4.96523">
        <ele>163.31774827015</ele>
        <time>2016-07-03T10:54:01Z</time>
      </trkpt>
      <trkpt lat="44.27099" lon="4.96498">
        <ele>162.92792028225</ele>
        <time>2016-07-03T10:54:05Z</time>
      </trkpt>
      <trkpt lat="44.27085" lon="4.96475">
        <ele>165.52162747604</ele>
        <time>2016-07-03T10:54:09Z</time>
      </trkpt>
      <trkpt lat="44.27072" lon="4.96441">
        <ele>164.94257784462</ele>
        <time>2016-07-03T10:54:14Z</time>
      </trkpt>
      <trkpt lat="44.27064" lon="4.96419">
        <ele>164.34141076199</ele>
        <time>2016-07-03T10:54:19Z</time>
      </trkpt>
      <trkpt lat="44.27059" lon="4.96411">
        <ele>164.53411137279</ele>
        <time>2016-07-03T10:54:23Z</time>
      </trkpt>
      <trkpt lat="44.27056" lon="4.96397">
        <ele>164.62861546657</ele>
        <time>2016-07-03T10:54:28Z</time>
      </trkpt>
      <trkpt lat="44.27049" lon="4.96389">
        <ele>164.27794646418</ele>
        <time>2016-07-03T10:58:35Z</time>
      </trkpt>
      <trkpt lat="44.27047" lon="4.96374">
        <ele>164.40136945625</ele>
        <time>2016-07-03T10:58:39Z</time>
      </trkpt>
      <trkpt lat="44.27043" lon="4.96346">
        <ele>166.59231599588</ele>
        <time>2016-07-03T10:58:44Z</time>
      </trkpt>
      <trkpt lat="44.27036" lon="4.9632">
        <ele>164.89341612619</ele>
        <time>2016-07-03T10:58:48Z</time>
      </trkpt>
      <trkpt lat="44.27021" lon="4.96286">
        <ele>161.83865263126</ele>
        <time>2016-07-03T10:58:53Z</time>
      </trkpt>
      <trkpt lat="44.27005" lon="4.96256">
        <ele>159.63305774744</ele>
        <time>2016-07-03T10:58:57Z</time>
      </trkpt>
      <trkpt lat="44.26987" lon="4.96227">
        <ele>158.4012063849</ele>
        <time>2016-07-03T10:59:01Z</time>
      </trkpt>
      <trkpt lat="44.26973" lon="4.96197">
        <ele>157.22810757655</ele>
        <time>2016-07-03T10:59:05Z</time>
      </trkpt>
      <trkpt lat="44.26952" lon="4.96165">
        <ele>156.01328526722</ele>
        <time>2016-07-03T10:59:10Z</time>
      </trkpt>
      <trkpt lat="44.26937" lon="4.96136">
        <ele>155.49928238202</ele>
        <time>2016-07-03T10:59:14Z</time>
      </trkpt>
      <trkpt lat="44.26921" lon="4.96102">
        <ele>156.20266471338</ele>
        <time>2016-07-03T10:59:19Z</time>
      </trkpt>
      <trkpt lat="44.2691" lon="4.96076">
        <ele>156.53851544602</ele>
        <time>2016-07-03T10:59:23Z</time>
      </trkpt>
      <trkpt lat="44.26897" lon="4.96038">
        <ele>155.31470289878</ele>
        <time>2016-07-03T10:59:28Z</time>
      </trkpt>
      <trkpt lat="44.26884" lon="4.95999">
        <ele>153.21005214641</ele>
        <time>2016-07-03T10:59:33Z</time>
      </trkpt>
      <trkpt lat="44.26874" lon="4.95967">
        <ele>153.08738704026</ele>
        <time>2016-07-03T10:59:37Z</time>
      </trkpt>
      <trkpt lat="44.26865" lon="4.95936">
        <ele>153.2340290288</ele>
        <time>2016-07-03T10:59:41Z</time>
      </trkpt>
      <trkpt lat="44.26856" lon="4.95909">
        <ele>153.20110193615</ele>
        <time>2016-07-03T10:59:45Z</time>
      </trkpt>
      <trkpt lat="44.26844" lon="4.95879">
        <ele>153.31588220258</ele>
        <time>2016-07-03T10:59:50Z</time>
      </trkpt>
      <trkpt lat="44.26835" lon="4.95857">
        <ele>153.76489268909</ele>
        <time>2016-07-03T10:59:55Z</time>
      </trkpt>
      <trkpt lat="44.26826" lon="4.95846">
        <ele>154.01661918652</ele>
        <time>2016-07-03T10:59:59Z</time>
      </trkpt>
      <trkpt lat="44.26815" lon="4.9585">
        <ele>154.35285444322</ele>
        <time>2016-07-03T11:00:03Z</time>
      </trkpt>
      <trkpt lat="44.26799" lon="4.95867">
        <ele>158.07976243278</ele>
        <time>2016-07-03T11:00:08Z</time>
      </trkpt>
      <trkpt lat="44.26788" lon="4.95877">
        <ele>158.60257870877</ele>
        <time>2016-07-03T11:00:12Z</time>
      </trkpt>
      <trkpt lat="44.26781" lon="4.95887">
        <ele>158.52964747999</ele>
        <time>2016-07-03T11:00:17Z</time>
      </trkpt>
      <trkpt lat="44.26779" lon="4.95896">
        <ele>159.38131039027</ele>
        <time>2016-07-03T11:00:34Z</time>
      </trkpt>
      <trkpt lat="44.26782" lon="4.95912">
        <ele>159.61941394003</ele>
        <time>2016-07-03T11:00:38Z</time>
      </trkpt>
      <trkpt lat="44.26786" lon="4.95936">
        <ele>159.78254822214</ele>
        <time>2016-07-03T11:00:43Z</time>
      </trkpt>
      <trkpt lat="44.26793" lon="4.95955">
        <ele>161.6071919944</ele>
        <time>2016-07-03T11:00:47Z</time>
      </trkpt>
      <trkpt lat="44.26805" lon="4.95979">
        <ele>162.7123268009</ele>
        <time>2016-07-03T11:00:52Z</time>
      </trkpt>
      <trkpt lat="44.26816" lon="4.96">
        <ele>163.86321626123</ele>
        <time>2016-07-03T11:00:57Z</time>
      </trkpt>
      <trkpt lat="44.26824" lon="4.96016">
        <ele>164.23438357322</ele>
        <time>2016-07-03T11:01:01Z</time>
      </trkpt>
      <trkpt lat="44.2683" lon="4.96031">
        <ele>164.59396917762</ele>
        <time>2016-07-03T11:01:05Z</time>
      </trkpt>
      <trkpt lat="44.26837" lon="4.96055">
        <ele>165.21166767001</ele>
        <time>2016-07-03T11:01:10Z</time>
      </trkpt>
      <trkpt lat="44.26841" lon="4.96071">
        <ele>165.69456353557</ele>
        <time>2016-07-03T11:01:14Z</time>
      </trkpt>
      <trkpt lat="44.26844" lon="4.96089">
        <ele>166.07105005096</ele>
        <time>2016-07-03T11:01:18Z</time>
      </trkpt>
      <trkpt lat="44.26843" lon="4.96107">
        <ele>166.23284525099</ele>
        <time>2016-07-03T11:01:22Z</time>
      </trkpt>
      <trkpt lat="44.26843" lon="4.96128">
        <ele>166.25638872445</ele>
        <time>2016-07-03T11:01:27Z</time>
      </trkpt>
      <trkpt lat="44.26842" lon="4.96146">
        <ele>165.9825753465</ele>
        <time>2016-07-03T11:01:31Z</time>
      </trkpt>
      <trkpt lat="44.26846" lon="4.96166">
        <ele>165.62372904506</ele>
        <time>2016-07-03T11:01:35Z</time>
      </trkpt>
      <trkpt lat="44.26848" lon="4.96188">
        <ele>165.26136440191</ele>
        <time>2016-07-03T11:01:40Z</time>
      </trkpt>
      <trkpt lat="44.26853" lon="4.96209">
        <ele>165.3337659915</ele>
        <time>2016-07-03T11:01:44Z</time>
      </trkpt>
      <trkpt lat="44.26859" lon="4.96233">
        <ele>165.52308966716</ele>
        <time>2016-07-03T11:01:49Z</time>
      </trkpt>
      <trkpt lat="44.2686" lon="4.9626">
        <ele>165.0086615149</ele>
        <time>2016-07-03T11:01:54Z</time>
      </trkpt>
      <trkpt lat="44.2686" lon="4.96282">
        <ele>162.5078577795</ele>
        <time>2016-07-03T11:01:58Z</time>
      </trkpt>
      <trkpt lat="44.26864" lon="4.96308">
        <ele>162.74993760181</ele>
        <time>2016-07-03T11:02:03Z</time>
      </trkpt>
      <trkpt lat="44.2687" lon="4.96326">
        <ele>162.98583500148</ele>
        <time>2016-07-03T11:02:07Z</time>
      </trkpt>
      <trkpt lat="44.26865" lon="4.96353">
        <ele>163.3076457645</ele>
        <time>2016-07-03T11:02:12Z</time>
      </trkpt>
      <trkpt lat="44.2685" lon="4.96355">
        <ele>166.32606277359</ele>
        <time>2016-07-03T11:02:16Z</time>
      </trkpt>
      <trkpt lat="44.26835" lon="4.96353">
        <ele>168.98002394564</ele>
        <time>2016-07-03T11:02:20Z</time>
      </trkpt>
      <trkpt lat="44.2682" lon="4.96346">
        <ele>170.06300328321</ele>
        <time>2016-07-03T11:02:25Z</time>
      </trkpt>
      <trkpt lat="44.26809" lon="4.96332">
        <ele>175.24731054471</ele>
        <time>2016-07-03T11:02:29Z</time>
      </trkpt>
      <trkpt lat="44.26802" lon="4.96315">
        <ele>181.45765046489</ele>
        <time>2016-07-03T11:02:33Z</time>
      </trkpt>
      <trkpt lat="44.2679" lon="4.96295">
        <ele>185.73360925476</ele>
        <time>2016-07-03T11:02:38Z</time>
      </trkpt>
      <trkpt lat="44.26773" lon="4.96289">
        <ele>192.86992192816</ele>
        <time>2016-07-03T11:02:43Z</time>
      </trkpt>
      <trkpt lat="44.26755" lon="4.96283">
        <ele>195.22186705926</ele>
        <time>2016-07-03T11:02:47Z</time>
      </trkpt>
      <trkpt lat="44.26739" lon="4.96277">
        <ele>197.0780035136</ele>
        <time>2016-07-03T11:02:51Z</time>
      </trkpt>
      <trkpt lat="44.2672" lon="4.96271">
        <ele>197.5234055936</ele>
        <time>2016-07-03T11:02:56Z</time>
      </trkpt>
      <trkpt lat="44.26707" lon="4.96272">
        <ele>197.83916913362</ele>
        <time>2016-07-03T11:03:00Z</time>
      </trkpt>
      <trkpt lat="44.26693" lon="4.9628">
        <ele>199.63177948616</ele>
        <time>2016-07-03T11:03:04Z</time>
      </trkpt>
      <trkpt lat="44.2668" lon="4.96289">
        <ele>200.89975869914</ele>
        <time>2016-07-03T11:03:08Z</time>
      </trkpt>
      <trkpt lat="44.26668" lon="4.963">
        <ele>201.73197510059</ele>
        <time>2016-07-03T11:03:12Z</time>
      </trkpt>
      <trkpt lat="44.26657" lon="4.96312">
        <ele>209.06277126844</ele>
        <time>2016-07-03T11:03:16Z</time>
      </trkpt>
      <trkpt lat="44.26643" lon="4.96329">
        <ele>215.33371332192</ele>
        <time>2016-07-03T11:03:21Z</time>
      </trkpt>
      <trkpt lat="44.26634" lon="4.96349">
        <ele>214.2195862416</ele>
        <time>2016-07-03T11:03:25Z</time>
      </trkpt>
      <trkpt lat="44.26626" lon="4.96373">
        <ele>208.79538576131</ele>
        <time>2016-07-03T11:03:29Z</time>
      </trkpt>
      <trkpt lat="44.26616" lon="4.96402">
        <ele>204.31978735796</ele>
        <time>2016-07-03T11:03:34Z</time>
      </trkpt>
      <trkpt lat="44.2661" lon="4.96423">
        <ele>202.9904568346</ele>
        <time>2016-07-03T11:03:38Z</time>
      </trkpt>
      <trkpt lat="44.26601" lon="4.96445">
        <ele>203.97127032167</ele>
        <time>2016-07-03T11:03:42Z</time>
      </trkpt>
      <trkpt lat="44.26589" lon="4.96461">
        <ele>206.32586654812</ele>
        <time>2016-07-03T11:03:46Z</time>
      </trkpt>
      <trkpt lat="44.2657" lon="4.96473">
        <ele>213.61790994672</ele>
        <time>2016-07-03T11:03:51Z</time>
      </trkpt>
      <trkpt lat="44.26556" lon="4.96478">
        <ele>222.78280844632</ele>
        <time>2016-07-03T11:03:55Z</time>
      </trkpt>
      <trkpt lat="44.26541" lon="4.9648">
        <ele>228.05640275557</ele>
        <time>2016-07-03T11:03:59Z</time>
      </trkpt>
      <trkpt lat="44.26524" lon="4.96485">
        <ele>226.43020259311</ele>
        <time>2016-07-03T11:04:03Z</time>
      </trkpt>
      <trkpt lat="44.26509" lon="4.96498">
        <ele>225.89756137518</ele>
        <time>2016-07-03T11:04:07Z</time>
      </trkpt>
      <trkpt lat="44.26502" lon="4.96519">
        <ele>225.6854244881</ele>
        <time>2016-07-03T11:04:11Z</time>
      </trkpt>
      <trkpt lat="44.26501" lon="4.9655">
        <ele>222.9295158789</ele>
        <time>2016-07-03T11:04:16Z</time>
      </trkpt>
      <trkpt lat="44.26501" lon="4.96573">
        <ele>222.42170632682</ele>
        <time>2016-07-03T11:04:20Z</time>
      </trkpt>
      <trkpt lat="44.26501" lon="4.96595">
        <ele>223.26186110453</ele>
        <time>2016-07-03T11:04:24Z</time>
      </trkpt>
      <trkpt lat="44.26501" lon="4.96617">
        <ele>224.15117967508</ele>
        <time>2016-07-03T11:04:28Z</time>
      </trkpt>
      <trkpt lat="44.26498" lon="4.96637">
        <ele>225.48794919316</ele>
        <time>2016-07-03T11:04:32Z</time>
      </trkpt>
      <trkpt lat="44.2648" lon="4.96641">
        <ele>228.52795685492</ele>
        <time>2016-07-03T11:04:37Z</time>
      </trkpt>
      <trkpt lat="44.26468" lon="4.96629">
        <ele>229.91007265476</ele>
        <time>2016-07-03T11:04:41Z</time>
      </trkpt>
      <trkpt lat="44.2645" lon="4.96615">
        <ele>231.74469194305</ele>
        <time>2016-07-03T11:04:46Z</time>
      </trkpt>
      <trkpt lat="44.26435" lon="4.96611">
        <ele>233.08194787479</ele>
        <time>2016-07-03T11:04:50Z</time>
      </trkpt>
      <trkpt lat="44.2642" lon="4.96611">
        <ele>232.95584987287</ele>
        <time>2016-07-03T11:04:54Z</time>
      </trkpt>
      <trkpt lat="44.26407" lon="4.96613">
        <ele>234.12800221831</ele>
        <time>2016-07-03T11:04:58Z</time>
      </trkpt>
      <trkpt lat="44.26397" lon="4.96616">
        <ele>234.34023660913</ele>
        <time>2016-07-03T11:05:02Z</time>
      </trkpt>
      <trkpt lat="44.26385" lon="4.96623">
        <ele>234.89835131093</ele>
        <time>2016-07-03T11:05:06Z</time>
      </trkpt>
      <trkpt lat="44.26375" lon="4.96634">
        <ele>235.64667242704</ele>
        <time>2016-07-03T11:05:10Z</time>
      </trkpt>
      <trkpt lat="44.26363" lon="4.9665">
        <ele>236.6302786185</ele>
        <time>2016-07-03T11:05:15Z</time>
      </trkpt>
      <trkpt lat="44.26352" lon="4.96657">
        <ele>236.84519276899</ele>
        <time>2016-07-03T11:05:19Z</time>
      </trkpt>
      <trkpt lat="44.2634" lon="4.96659">
        <ele>237.76755412721</ele>
        <time>2016-07-03T11:05:24Z</time>
      </trkpt>
      <trkpt lat="44.2632" lon="4.96656">
        <ele>241.18928429795</ele>
        <time>2016-07-03T11:05:28Z</time>
      </trkpt>
      <trkpt lat="44.26302" lon="4.9665">
        <ele>244.74196823741</ele>
        <time>2016-07-03T11:05:33Z</time>
      </trkpt>
      <trkpt lat="44.26286" lon="4.96645">
        <ele>245.3434659114</ele>
        <time>2016-07-03T11:05:38Z</time>
      </trkpt>
      <trkpt lat="44.26273" lon="4.96642">
        <ele>245.90872567072</ele>
        <time>2016-07-03T11:05:42Z</time>
      </trkpt>
      <trkpt lat="44.26258" lon="4.96651">
        <ele>246.80843127007</ele>
        <time>2016-07-03T11:05:47Z</time>
      </trkpt>
      <trkpt lat="44.26257" lon="4.96664">
        <ele>247.85545750058</ele>
        <time>2016-07-03T11:05:51Z</time>
      </trkpt>
      <trkpt lat="44.26265" lon="4.96679">
        <ele>248.75446190399</ele>
        <time>2016-07-03T11:05:55Z</time>
      </trkpt>
      <trkpt lat="44.26275" lon="4.96694">
        <ele>249.55197305172</ele>
        <time>2016-07-03T11:05:59Z</time>
      </trkpt>
      <trkpt lat="44.26288" lon="4.96711">
        <ele>250.32756126371</ele>
        <time>2016-07-03T11:06:04Z</time>
      </trkpt>
      <trkpt lat="44.26298" lon="4.96726">
        <ele>250.65244476823</ele>
        <time>2016-07-03T11:06:08Z</time>
      </trkpt>
      <trkpt lat="44.26306" lon="4.96738">
        <ele>250.91173877581</ele>
        <time>2016-07-03T11:06:12Z</time>
      </trkpt>
      <trkpt lat="44.2631" lon="4.96763">
        <ele>251.49050398518</ele>
        <time>2016-07-03T11:06:17Z</time>
      </trkpt>
      <trkpt lat="44.26302" lon="4.96777">
        <ele>252.4203588075</ele>
        <time>2016-07-03T11:06:21Z</time>
      </trkpt>
      <trkpt lat="44.26281" lon="4.96786">
        <ele>255.01662315034</ele>
        <time>2016-07-03T11:06:26Z</time>
      </trkpt>
      <trkpt lat="44.26267" lon="4.96784">
        <ele>255.71724787683</ele>
        <time>2016-07-03T11:06:30Z</time>
      </trkpt>
      <trkpt lat="44.2625" lon="4.96778">
        <ele>257.20952066822</ele>
        <time>2016-07-03T11:06:35Z</time>
      </trkpt>
      <trkpt lat="44.26236" lon="4.96772">
        <ele>258.65273926902</ele>
        <time>2016-07-03T11:06:39Z</time>
      </trkpt>
      <trkpt lat="44.26221" lon="4.96765">
        <ele>260.09637447923</ele>
        <time>2016-07-03T11:06:44Z</time>
      </trkpt>
      <trkpt lat="44.26205" lon="4.9676">
        <ele>261.06543561677</ele>
        <time>2016-07-03T11:06:48Z</time>
      </trkpt>
      <trkpt lat="44.26193" lon="4.96754">
        <ele>261.92885860963</ele>
        <time>2016-07-03T11:06:52Z</time>
      </trkpt>
      <trkpt lat="44.26181" lon="4.9675">
        <ele>262.71148152018</ele>
        <time>2016-07-03T11:06:56Z</time>
      </trkpt>
      <trkpt lat="44.26169" lon="4.96746">
        <ele>263.54223231867</ele>
        <time>2016-07-03T11:07:01Z</time>
      </trkpt>
      <trkpt lat="44.26157" lon="4.96737">
        <ele>265.01336681256</ele>
        <time>2016-07-03T11:07:06Z</time>
      </trkpt>
      <trkpt lat="44.26146" lon="4.96725">
        <ele>266.22733463078</ele>
        <time>2016-07-03T11:07:10Z</time>
      </trkpt>
      <trkpt lat="44.2613" lon="4.96702">
        <ele>267.90103699811</ele>
        <time>2016-07-03T11:07:15Z</time>
      </trkpt>
      <trkpt lat="44.26118" lon="4.96687">
        <ele>268.65801129629</ele>
        <time>2016-07-03T11:07:19Z</time>
      </trkpt>
      <trkpt lat="44.26107" lon="4.96673">
        <ele>271.7998255551</ele>
        <time>2016-07-03T11:07:23Z</time>
      </trkpt>
      <trkpt lat="44.2609" lon="4.96651">
        <ele>276.24988396634</ele>
        <time>2016-07-03T11:07:28Z</time>
      </trkpt>
      <trkpt lat="44.26074" lon="4.96629">
        <ele>279.94519128894</ele>
        <time>2016-07-03T11:07:33Z</time>
      </trkpt>
      <trkpt lat="44.26063" lon="4.96612">
        <ele>283.19561397208</ele>
        <time>2016-07-03T11:07:38Z</time>
      </trkpt>
      <trkpt lat="44.26051" lon="4.96596">
        <ele>283.75662486636</ele>
        <time>2016-07-03T11:07:42Z</time>
      </trkpt>
      <trkpt lat="44.26042" lon="4.96581">
        <ele>283.47253180755</ele>
        <time>2016-07-03T11:07:46Z</time>
      </trkpt>
      <trkpt lat="44.26031" lon="4.96564">
        <ele>284.78065937253</ele>
        <time>2016-07-03T11:07:50Z</time>
      </trkpt>
      <trkpt lat="44.26016" lon="4.96543">
        <ele>284.94944478203</ele>
        <time>2016-07-03T11:07:55Z</time>
      </trkpt>
      <trkpt lat="44.26008" lon="4.96525">
        <ele>287.23757177738</ele>
        <time>2016-07-03T11:07:59Z</time>
      </trkpt>
      <trkpt lat="44.26" lon="4.96499">
        <ele>285.62146403752</ele>
        <time>2016-07-03T11:08:04Z</time>
      </trkpt>
      <trkpt lat="44.2599" lon="4.9648">
        <ele>287.9435617062</ele>
        <time>2016-07-03T11:08:08Z</time>
      </trkpt>
      <trkpt lat="44.2598" lon="4.96462">
        <ele>290.4846658881</ele>
        <time>2016-07-03T11:08:12Z</time>
      </trkpt>
      <trkpt lat="44.25971" lon="4.96434">
        <ele>290.6666076278</ele>
        <time>2016-07-03T11:08:17Z</time>
      </trkpt>
      <trkpt lat="44.25962" lon="4.96416">
        <ele>292.08337679375</ele>
        <time>2016-07-03T11:08:21Z</time>
      </trkpt>
      <trkpt lat="44.25951" lon="4.96408">
        <ele>292.89572746118</ele>
        <time>2016-07-03T11:08:25Z</time>
      </trkpt>
      <trkpt lat="44.25942" lon="4.96408">
        <ele>293.11189622567</ele>
        <time>2016-07-03T11:08:30Z</time>
      </trkpt>
      <trkpt lat="44.25936" lon="4.96417">
        <ele>296.47761131965</ele>
        <time>2016-07-03T11:08:58Z</time>
      </trkpt>
      <trkpt lat="44.25928" lon="4.96436">
        <ele>296.61803531959</ele>
        <time>2016-07-03T11:09:03Z</time>
      </trkpt>
      <trkpt lat="44.25924" lon="4.96451">
        <ele>296.61081491433</ele>
        <time>2016-07-03T11:09:07Z</time>
      </trkpt>
      <trkpt lat="44.25921" lon="4.96461">
        <ele>296.45376538007</ele>
        <time>2016-07-03T11:09:11Z</time>
      </trkpt>
      <trkpt lat="44.25916" lon="4.96474">
        <ele>296.48422473503</ele>
        <time>2016-07-03T11:09:16Z</time>
      </trkpt>
      <trkpt lat="44.25912" lon="4.96488">
        <ele>296.6190648392</ele>
        <time>2016-07-03T11:09:21Z</time>
      </trkpt>
      <trkpt lat="44.25909" lon="4.96498">
        <ele>296.72669800254</ele>
        <time>2016-07-03T11:09:25Z</time>
      </trkpt>
      <trkpt lat="44.25906" lon="4.96508">
        <ele>296.94402519138</ele>
        <time>2016-07-03T11:09:29Z</time>
      </trkpt>
      <trkpt lat="44.25899" lon="4.96526">
        <ele>297.38189686266</ele>
        <time>2016-07-03T11:09:34Z</time>
      </trkpt>
      <trkpt lat="44.25891" lon="4.96543">
        <ele>297.74754592761</ele>
        <time>2016-07-03T11:09:38Z</time>
      </trkpt>
      <trkpt lat="44.25879" lon="4.96566">
        <ele>298.37107069164</ele>
        <time>2016-07-03T11:09:43Z</time>
      </trkpt>
      <trkpt lat="44.2587" lon="4.9658">
        <ele>298.74434465489</ele>
        <time>2016-07-03T11:09:47Z</time>
      </trkpt>
      <trkpt lat="44.25859" lon="4.966">
        <ele>299.24498387728</ele>
        <time>2016-07-03T11:09:52Z</time>
      </trkpt>
      <trkpt lat="44.25848" lon="4.96613">
        <ele>299.66335085527</ele>
        <time>2016-07-03T11:09:56Z</time>
      </trkpt>
      <trkpt lat="44.25834" lon="4.96629">
        <ele>300.33167111795</ele>
        <time>2016-07-03T11:10:01Z</time>
      </trkpt>
      <trkpt lat="44.25822" lon="4.96647">
        <ele>305.14535287752</ele>
        <time>2016-07-03T11:10:05Z</time>
      </trkpt>
      <trkpt lat="44.2581" lon="4.96659">
        <ele>305.62797862917</ele>
        <time>2016-07-03T11:10:09Z</time>
      </trkpt>
      <trkpt lat="44.25797" lon="4.96673">
        <ele>306.41087490977</ele>
        <time>2016-07-03T11:10:13Z</time>
      </trkpt>
      <trkpt lat="44.25784" lon="4.96684">
        <ele>306.95315537214</ele>
        <time>2016-07-03T11:10:17Z</time>
      </trkpt>
      <trkpt lat="44.2577" lon="4.96698">
        <ele>307.69302191534</ele>
        <time>2016-07-03T11:10:22Z</time>
      </trkpt>
      <trkpt lat="44.25756" lon="4.96716">
        <ele>308.07310664014</ele>
        <time>2016-07-03T11:10:26Z</time>
      </trkpt>
      <trkpt lat="44.25746" lon="4.96729">
        <ele>308.35311719153</ele>
        <time>2016-07-03T11:10:30Z</time>
      </trkpt>
      <trkpt lat="44.2573" lon="4.96745">
        <ele>311.95352802863</ele>
        <time>2016-07-03T11:10:35Z</time>
      </trkpt>
      <trkpt lat="44.25716" lon="4.96752">
        <ele>312.82605234119</ele>
        <time>2016-07-03T11:10:39Z</time>
      </trkpt>
      <trkpt lat="44.25698" lon="4.96753">
        <ele>312.9604480139</ele>
        <time>2016-07-03T11:10:43Z</time>
      </trkpt>
      <trkpt lat="44.25681" lon="4.96758">
        <ele>316.55642146987</ele>
        <time>2016-07-03T11:10:48Z</time>
      </trkpt>
      <trkpt lat="44.25669" lon="4.96771">
        <ele>318.78674775487</ele>
        <time>2016-07-03T11:10:52Z</time>
      </trkpt>
      <trkpt lat="44.25657" lon="4.96788">
        <ele>318.83138077905</ele>
        <time>2016-07-03T11:10:56Z</time>
      </trkpt>
      <trkpt lat="44.25647" lon="4.96799">
        <ele>319.22171813503</ele>
        <time>2016-07-03T11:11:00Z</time>
      </trkpt>
      <trkpt lat="44.25632" lon="4.96817">
        <ele>321.06482904587</ele>
        <time>2016-07-03T11:11:05Z</time>
      </trkpt>
      <trkpt lat="44.25621" lon="4.96827">
        <ele>321.08121699737</ele>
        <time>2016-07-03T11:11:09Z</time>
      </trkpt>
      <trkpt lat="44.25609" lon="4.96845">
        <ele>321.25256369894</ele>
        <time>2016-07-03T11:11:14Z</time>
      </trkpt>
      <trkpt lat="44.25601" lon="4.9687">
        <ele>322.78243441299</ele>
        <time>2016-07-03T11:11:19Z</time>
      </trkpt>
      <trkpt lat="44.25599" lon="4.96894">
        <ele>326.31968991464</ele>
        <time>2016-07-03T11:11:23Z</time>
      </trkpt>
      <trkpt lat="44.25601" lon="4.96918">
        <ele>326.9296936925</ele>
        <time>2016-07-03T11:11:28Z</time>
      </trkpt>
      <trkpt lat="44.25606" lon="4.96939">
        <ele>329.10704330371</ele>
        <time>2016-07-03T11:11:32Z</time>
      </trkpt>
      <trkpt lat="44.25613" lon="4.96959">
        <ele>330.43568804337</ele>
        <time>2016-07-03T11:11:36Z</time>
      </trkpt>
      <trkpt lat="44.25627" lon="4.96975">
        <ele>330.00104554026</ele>
        <time>2016-07-03T11:11:41Z</time>
      </trkpt>
      <trkpt lat="44.2564" lon="4.96993">
        <ele>329.74082427545</ele>
        <time>2016-07-03T11:11:46Z</time>
      </trkpt>
      <trkpt lat="44.25647" lon="4.97017">
        <ele>330.41143813121</ele>
        <time>2016-07-03T11:11:51Z</time>
      </trkpt>
      <trkpt lat="44.25645" lon="4.97045">
        <ele>332.44477410856</ele>
        <time>2016-07-03T11:11:56Z</time>
      </trkpt>
      <trkpt lat="44.25638" lon="4.97064">
        <ele>333.08000009527</ele>
        <time>2016-07-03T11:12:00Z</time>
      </trkpt>
      <trkpt lat="44.25628" lon="4.97077">
        <ele>333.69252336265</ele>
        <time>2016-07-03T11:12:04Z</time>
      </trkpt>
      <trkpt lat="44.25614" lon="4.97086">
        <ele>334.31026451562</ele>
        <time>2016-07-03T11:12:09Z</time>
      </trkpt>
      <trkpt lat="44.25602" lon="4.97093">
        <ele>334.67315233526</ele>
        <time>2016-07-03T11:12:13Z</time>
      </trkpt>
      <trkpt lat="44.25589" lon="4.97102">
        <ele>334.71432396689</ele>
        <time>2016-07-03T11:12:17Z</time>
      </trkpt>
      <trkpt lat="44.25573" lon="4.97109">
        <ele>334.62384576822</ele>
        <time>2016-07-03T11:12:22Z</time>
      </trkpt>
      <trkpt lat="44.25558" lon="4.97118">
        <ele>335.27399615823</ele>
        <time>2016-07-03T11:12:26Z</time>
      </trkpt>
      <trkpt lat="44.25539" lon="4.97127">
        <ele>338.4090424196</ele>
        <time>2016-07-03T11:12:31Z</time>
      </trkpt>
      <trkpt lat="44.25522" lon="4.97136">
        <ele>338.69629530286</ele>
        <time>2016-07-03T11:12:35Z</time>
      </trkpt>
      <trkpt lat="44.25501" lon="4.97146">
        <ele>338.90368341038</ele>
        <time>2016-07-03T11:12:40Z</time>
      </trkpt>
      <trkpt lat="44.25485" lon="4.97156">
        <ele>340.89036466717</ele>
        <time>2016-07-03T11:12:44Z</time>
      </trkpt>
      <trkpt lat="44.25472" lon="4.97171">
        <ele>341.74501463735</ele>
        <time>2016-07-03T11:12:48Z</time>
      </trkpt>
      <trkpt lat="44.25466" lon="4.97201">
        <ele>341.3563234297</ele>
        <time>2016-07-03T11:12:53Z</time>
      </trkpt>
      <trkpt lat="44.25465" lon="4.97217">
        <ele>341.23509494543</ele>
        <time>2016-07-03T11:12:57Z</time>
      </trkpt>
      <trkpt lat="44.25465" lon="4.97236">
        <ele>340.93168511512</ele>
        <time>2016-07-03T11:13:01Z</time>
      </trkpt>
      <trkpt lat="44.25463" lon="4.97258">
        <ele>338.58365081828</ele>
        <time>2016-07-03T11:13:05Z</time>
      </trkpt>
      <trkpt lat="44.25463" lon="4.97279">
        <ele>337.85771140197</ele>
        <time>2016-07-03T11:13:09Z</time>
      </trkpt>
      <trkpt lat="44.25464" lon="4.97299">
        <ele>337.89807542102</ele>
        <time>2016-07-03T11:13:13Z</time>
      </trkpt>
      <trkpt lat="44.2547" lon="4.97319">
        <ele>337.59007696092</ele>
        <time>2016-07-03T11:13:17Z</time>
      </trkpt>
      <trkpt lat="44.25487" lon="4.97332">
        <ele>337.11284145382</ele>
        <time>2016-07-03T11:13:22Z</time>
      </trkpt>
      <trkpt lat="44.25503" lon="4.97333">
        <ele>337.33338514425</ele>
        <time>2016-07-03T11:13:26Z</time>
      </trkpt>
      <trkpt lat="44.25527" lon="4.97328">
        <ele>338.50902572383</ele>
        <time>2016-07-03T11:13:31Z</time>
      </trkpt>
      <trkpt lat="44.25547" lon="4.97332">
        <ele>340.30827425285</ele>
        <time>2016-07-03T11:13:35Z</time>
      </trkpt>
      <trkpt lat="44.25577" lon="4.97343">
        <ele>342.23167862995</ele>
        <time>2016-07-03T11:13:40Z</time>
      </trkpt>
      <trkpt lat="44.25601" lon="4.97355">
        <ele>341.74119857884</ele>
        <time>2016-07-03T11:13:44Z</time>
      </trkpt>
      <trkpt lat="44.25626" lon="4.97372">
        <ele>340.99301827495</ele>
        <time>2016-07-03T11:13:48Z</time>
      </trkpt>
      <trkpt lat="44.25643" lon="4.97405">
        <ele>334.84476214517</ele>
        <time>2016-07-03T11:13:52Z</time>
      </trkpt>
      <trkpt lat="44.25663" lon="4.97442">
        <ele>327.84574960831</ele>
        <time>2016-07-03T11:13:57Z</time>
      </trkpt>
      <trkpt lat="44.25683" lon="4.97462">
        <ele>325.58233422668</ele>
        <time>2016-07-03T11:14:01Z</time>
      </trkpt>
      <trkpt lat="44.2569" lon="4.97486">
        <ele>321.38129664406</ele>
        <time>2016-07-03T11:14:06Z</time>
      </trkpt>
      <trkpt lat="44.25668" lon="4.97486">
        <ele>321.05298963238</ele>
        <time>2016-07-03T11:14:10Z</time>
      </trkpt>
      <trkpt lat="44.25633" lon="4.97485">
        <ele>319.30309090665</ele>
        <time>2016-07-03T11:14:15Z</time>
      </trkpt>
      <trkpt lat="44.25607" lon="4.97484">
        <ele>316.84273906969</ele>
        <time>2016-07-03T11:14:19Z</time>
      </trkpt>
      <trkpt lat="44.25584" lon="4.97484">
        <ele>314.94619708694</ele>
        <time>2016-07-03T11:14:23Z</time>
      </trkpt>
      <trkpt lat="44.25555" lon="4.97485">
        <ele>313.46649357656</ele>
        <time>2016-07-03T11:14:28Z</time>
      </trkpt>
      <trkpt lat="44.25532" lon="4.97494">
        <ele>311.97196749784</ele>
        <time>2016-07-03T11:14:32Z</time>
      </trkpt>
      <trkpt lat="44.25509" lon="4.97516">
        <ele>308.74022424878</ele>
        <time>2016-07-03T11:14:37Z</time>
      </trkpt>
      <trkpt lat="44.255" lon="4.97537">
        <ele>309.1682770303</ele>
        <time>2016-07-03T11:14:41Z</time>
      </trkpt>
      <trkpt lat="44.25503" lon="4.97565">
        <ele>308.35907340855</ele>
        <time>2016-07-03T11:14:45Z</time>
      </trkpt>
      <trkpt lat="44.25519" lon="4.97603">
        <ele>307.68947737637</ele>
        <time>2016-07-03T11:14:50Z</time>
      </trkpt>
      <trkpt lat="44.25534" lon="4.97633">
        <ele>308.08232534416</ele>
        <time>2016-07-03T11:14:54Z</time>
      </trkpt>
      <trkpt lat="44.2555" lon="4.97659">
        <ele>307.47997595829</ele>
        <time>2016-07-03T11:14:58Z</time>
      </trkpt>
      <trkpt lat="44.25562" lon="4.97687">
        <ele>309.42288658775</ele>
        <time>2016-07-03T11:15:03Z</time>
      </trkpt>
      <trkpt lat="44.25543" lon="4.97694">
        <ele>310.53741102068</ele>
        <time>2016-07-03T11:15:07Z</time>
      </trkpt>
      <trkpt lat="44.25518" lon="4.97684">
        <ele>309.72734374608</ele>
        <time>2016-07-03T11:15:11Z</time>
      </trkpt>
      <trkpt lat="44.25492" lon="4.97669">
        <ele>309.66063441304</ele>
        <time>2016-07-03T11:15:15Z</time>
      </trkpt>
      <trkpt lat="44.25461" lon="4.97645">
        <ele>311.6339087192</ele>
        <time>2016-07-03T11:15:20Z</time>
      </trkpt>
      <trkpt lat="44.25424" lon="4.97619">
        <ele>311.9118119852</ele>
        <time>2016-07-03T11:15:25Z</time>
      </trkpt>
      <trkpt lat="44.25391" lon="4.97602">
        <ele>307.68955903695</ele>
        <time>2016-07-03T11:15:29Z</time>
      </trkpt>
      <trkpt lat="44.25351" lon="4.97577">
        <ele>302.8488766391</ele>
        <time>2016-07-03T11:15:34Z</time>
      </trkpt>
      <trkpt lat="44.25318" lon="4.97557">
        <ele>302.84721055483</ele>
        <time>2016-07-03T11:15:38Z</time>
      </trkpt>
      <trkpt lat="44.25283" lon="4.9754">
        <ele>302.349300789</ele>
        <time>2016-07-03T11:15:43Z</time>
      </trkpt>
      <trkpt lat="44.25249" lon="4.97537">
        <ele>298.62296623014</ele>
        <time>2016-07-03T11:15:47Z</time>
      </trkpt>
      <trkpt lat="44.25218" lon="4.9754">
        <ele>296.18416980309</ele>
        <time>2016-07-03T11:15:51Z</time>
      </trkpt>
      <trkpt lat="44.25177" lon="4.97551">
        <ele>295.30133995774</ele>
        <time>2016-07-03T11:15:56Z</time>
      </trkpt>
      <trkpt lat="44.25148" lon="4.97566">
        <ele>297.10945660737</ele>
        <time>2016-07-03T11:16:00Z</time>
      </trkpt>
      <trkpt lat="44.25108" lon="4.97593">
        <ele>292.55186815772</ele>
        <time>2016-07-03T11:16:05Z</time>
      </trkpt>
      <trkpt lat="44.25078" lon="4.97613">
        <ele>290.31646298135</ele>
        <time>2016-07-03T11:16:09Z</time>
      </trkpt>
      <trkpt lat="44.25039" lon="4.97644">
        <ele>291.61032837063</ele>
        <time>2016-07-03T11:16:14Z</time>
      </trkpt>
      <trkpt lat="44.25" lon="4.97671">
        <ele>291.01848918022</ele>
        <time>2016-07-03T11:16:18Z</time>
      </trkpt>
      <trkpt lat="44.24965" lon="4.97697">
        <ele>289.90926540131</ele>
        <time>2016-07-03T11:16:22Z</time>
      </trkpt>
      <trkpt lat="44.24917" lon="4.97716">
        <ele>287.35144921664</ele>
        <time>2016-07-03T11:16:27Z</time>
      </trkpt>
      <trkpt lat="44.24877" lon="4.9772">
        <ele>281.76384512308</ele>
        <time>2016-07-03T11:16:31Z</time>
      </trkpt>
      <trkpt lat="44.24834" lon="4.97727">
        <ele>278.83876615628</ele>
        <time>2016-07-03T11:16:36Z</time>
      </trkpt>
      <trkpt lat="44.24789" lon="4.97742">
        <ele>279.63451558428</ele>
        <time>2016-07-03T11:16:41Z</time>
      </trkpt>
      <trkpt lat="44.24749" lon="4.97753">
        <ele>279.12930177973</ele>
        <time>2016-07-03T11:16:45Z</time>
      </trkpt>
      <trkpt lat="44.24694" lon="4.97752">
        <ele>279.68687409517</ele>
        <time>2016-07-03T11:16:50Z</time>
      </trkpt>
      <trkpt lat="44.24653" lon="4.97737">
        <ele>277.79029501609</ele>
        <time>2016-07-03T11:16:54Z</time>
      </trkpt>
      <trkpt lat="44.24603" lon="4.97718">
        <ele>276.23231431281</ele>
        <time>2016-07-03T11:16:59Z</time>
      </trkpt>
      <trkpt lat="44.24562" lon="4.97712">
        <ele>276.00512613015</ele>
        <time>2016-07-03T11:17:03Z</time>
      </trkpt>
      <trkpt lat="44.24521" lon="4.97709">
        <ele>274.60227761865</ele>
        <time>2016-07-03T11:17:07Z</time>
      </trkpt>
      <trkpt lat="44.24484" lon="4.97713">
        <ele>275.8507174145</ele>
        <time>2016-07-03T11:17:11Z</time>
      </trkpt>
      <trkpt lat="44.24448" lon="4.97718">
        <ele>277.77783551704</ele>
        <time>2016-07-03T11:17:15Z</time>
      </trkpt>
      <trkpt lat="44.24406" lon="4.97724">
        <ele>271.41890441979</ele>
        <time>2016-07-03T11:17:20Z</time>
      </trkpt>
      <trkpt lat="44.24367" lon="4.97741">
        <ele>265.93796889995</ele>
        <time>2016-07-03T11:17:25Z</time>
      </trkpt>
      <trkpt lat="44.24333" lon="4.97767">
        <ele>259.67410220415</ele>
        <time>2016-07-03T11:17:29Z</time>
      </trkpt>
      <trkpt lat="44.24302" lon="4.97797">
        <ele>249.6662302142</ele>
        <time>2016-07-03T11:17:33Z</time>
      </trkpt>
      <trkpt lat="44.24268" lon="4.97826">
        <ele>243.59744448451</ele>
        <time>2016-07-03T11:17:37Z</time>
      </trkpt>
      <trkpt lat="44.24229" lon="4.97861">
        <ele>238.99541054719</ele>
        <time>2016-07-03T11:17:42Z</time>
      </trkpt>
      <trkpt lat="44.24196" lon="4.97894">
        <ele>233.35487963483</ele>
        <time>2016-07-03T11:17:47Z</time>
      </trkpt>
      <trkpt lat="44.24173" lon="4.97917">
        <ele>229.34910115553</ele>
        <time>2016-07-03T11:17:51Z</time>
      </trkpt>
      <trkpt lat="44.24129" lon="4.97923">
        <ele>227.73063469205</ele>
        <time>2016-07-03T11:17:56Z</time>
      </trkpt>
      <trkpt lat="44.241" lon="4.97927">
        <ele>226.47962288961</ele>
        <time>2016-07-03T11:18:00Z</time>
      </trkpt>
      <trkpt lat="44.24064" lon="4.97944">
        <ele>224.50992989281</ele>
        <time>2016-07-03T11:18:05Z</time>
      </trkpt>
      <trkpt lat="44.24037" lon="4.97956">
        <ele>223.82030140802</ele>
        <time>2016-07-03T11:18:09Z</time>
      </trkpt>
      <trkpt lat="44.24016" lon="4.97965">
        <ele>223.48880626733</ele>
        <time>2016-07-03T11:18:14Z</time>
      </trkpt>
      <trkpt lat="44.23997" lon="4.97973">
        <ele>225.57750742595</ele>
        <time>2016-07-03T11:18:19Z</time>
      </trkpt>
      <trkpt lat="44.23983" lon="4.97978">
        <ele>228.31208847474</ele>
        <time>2016-07-03T11:18:23Z</time>
      </trkpt>
      <trkpt lat="44.23963" lon="4.97979">
        <ele>230.26616182432</ele>
        <time>2016-07-03T11:18:28Z</time>
      </trkpt>
      <trkpt lat="44.23948" lon="4.9798">
        <ele>231.01212585759</ele>
        <time>2016-07-03T11:18:32Z</time>
      </trkpt>
      <trkpt lat="44.23934" lon="4.97988">
        <ele>231.394978457</ele>
        <time>2016-07-03T11:18:36Z</time>
      </trkpt>
      <trkpt lat="44.23914" lon="4.98002">
        <ele>234.5777289462</ele>
        <time>2016-07-03T11:18:40Z</time>
      </trkpt>
      <trkpt lat="44.23896" lon="4.98019">
        <ele>234.75843896445</ele>
        <time>2016-07-03T11:18:44Z</time>
      </trkpt>
      <trkpt lat="44.2388" lon="4.98048">
        <ele>232.81688943278</ele>
        <time>2016-07-03T11:18:49Z</time>
      </trkpt>
      <trkpt lat="44.23867" lon="4.98077">
        <ele>230.70127378666</ele>
        <time>2016-07-03T11:18:53Z</time>
      </trkpt>
      <trkpt lat="44.23847" lon="4.98103">
        <ele>231.1167078385</ele>
        <time>2016-07-03T11:18:57Z</time>
      </trkpt>
      <trkpt lat="44.23822" lon="4.98125">
        <ele>231.17528788472</ele>
        <time>2016-07-03T11:19:01Z</time>
      </trkpt>
      <trkpt lat="44.23784" lon="4.98142">
        <ele>231.4824059932</ele>
        <time>2016-07-03T11:19:06Z</time>
      </trkpt>
      <trkpt lat="44.23751" lon="4.98149">
        <ele>230.60836060069</ele>
        <time>2016-07-03T11:19:10Z</time>
      </trkpt>
      <trkpt lat="44.23715" lon="4.98157">
        <ele>229.90721505346</ele>
        <time>2016-07-03T11:19:15Z</time>
      </trkpt>
      <trkpt lat="44.23692" lon="4.98172">
        <ele>230.12201329071</ele>
        <time>2016-07-03T11:19:19Z</time>
      </trkpt>
      <trkpt lat="44.23675" lon="4.98194">
        <ele>231.50730547083</ele>
        <time>2016-07-03T11:19:23Z</time>
      </trkpt>
      <trkpt lat="44.23661" lon="4.98218">
        <ele>231.71598153029</ele>
        <time>2016-07-03T11:19:27Z</time>
      </trkpt>
      <trkpt lat="44.2365" lon="4.98242">
        <ele>232.34948547803</ele>
        <time>2016-07-03T11:19:31Z</time>
      </trkpt>
      <trkpt lat="44.2364" lon="4.98266">
        <ele>232.31103479028</ele>
        <time>2016-07-03T11:19:36Z</time>
      </trkpt>
      <trkpt lat="44.23629" lon="4.98289">
        <ele>232.99646187648</ele>
        <time>2016-07-03T11:19:41Z</time>
      </trkpt>
      <trkpt lat="44.23614" lon="4.98319">
        <ele>230.94670353813</ele>
        <time>2016-07-03T11:19:46Z</time>
      </trkpt>
      <trkpt lat="44.23603" lon="4.98341">
        <ele>230.3524655226</ele>
        <time>2016-07-03T11:19:50Z</time>
      </trkpt>
      <trkpt lat="44.23587" lon="4.9837">
        <ele>229.09640227414</ele>
        <time>2016-07-03T11:19:55Z</time>
      </trkpt>
      <trkpt lat="44.23572" lon="4.98392">
        <ele>225.47391017718</ele>
        <time>2016-07-03T11:19:59Z</time>
      </trkpt>
      <trkpt lat="44.23551" lon="4.98422">
        <ele>222.19015948576</ele>
        <time>2016-07-03T11:20:04Z</time>
      </trkpt>
      <trkpt lat="44.23535" lon="4.98446">
        <ele>221.94545619226</ele>
        <time>2016-07-03T11:20:08Z</time>
      </trkpt>
      <trkpt lat="44.23513" lon="4.98481">
        <ele>221.98664072524</ele>
        <time>2016-07-03T11:20:13Z</time>
      </trkpt>
      <trkpt lat="44.23497" lon="4.98513">
        <ele>224.0077291443</ele>
        <time>2016-07-03T11:20:17Z</time>
      </trkpt>
      <trkpt lat="44.23477" lon="4.98555">
        <ele>223.74060899681</ele>
        <time>2016-07-03T11:20:22Z</time>
      </trkpt>
      <trkpt lat="44.2346" lon="4.9859">
        <ele>223.81981342136</ele>
        <time>2016-07-03T11:20:26Z</time>
      </trkpt>
      <trkpt lat="44.23437" lon="4.98631">
        <ele>224.54970358437</ele>
        <time>2016-07-03T11:20:31Z</time>
      </trkpt>
      <trkpt lat="44.23415" lon="4.98666">
        <ele>225.76993698468</ele>
        <time>2016-07-03T11:20:36Z</time>
      </trkpt>
      <trkpt lat="44.23396" lon="4.98689">
        <ele>226.79970594208</ele>
        <time>2016-07-03T11:20:40Z</time>
      </trkpt>
      <trkpt lat="44.23378" lon="4.98707">
        <ele>226.80811456342</ele>
        <time>2016-07-03T11:20:44Z</time>
      </trkpt>
      <trkpt lat="44.23362" lon="4.98721">
        <ele>226.96489464405</ele>
        <time>2016-07-03T11:20:48Z</time>
      </trkpt>
      <trkpt lat="44.23339" lon="4.98736">
        <ele>229.80765601186</ele>
        <time>2016-07-03T11:20:53Z</time>
      </trkpt>
      <trkpt lat="44.23315" lon="4.98753">
        <ele>230.84932002523</ele>
        <time>2016-07-03T11:20:58Z</time>
      </trkpt>
      <trkpt lat="44.23296" lon="4.98766">
        <ele>231.18641726346</ele>
        <time>2016-07-03T11:21:03Z</time>
      </trkpt>
      <trkpt lat="44.23286" lon="4.98771">
        <ele>231.22260725501</ele>
        <time>2016-07-03T11:21:07Z</time>
      </trkpt>
      <trkpt lat="44.23277" lon="4.98775">
        <ele>231.32062095425</ele>
        <time>2016-07-03T11:21:17Z</time>
      </trkpt>
      <trkpt lat="44.2327" lon="4.98772">
        <ele>229.75039172948</ele>
        <time>2016-07-03T11:23:34Z</time>
      </trkpt>
      <trkpt lat="44.23259" lon="4.98771">
        <ele>229.65628897017</ele>
        <time>2016-07-03T11:23:38Z</time>
      </trkpt>
      <trkpt lat="44.23246" lon="4.98766">
        <ele>229.74314410851</ele>
        <time>2016-07-03T11:23:43Z</time>
      </trkpt>
      <trkpt lat="44.23234" lon="4.98762">
        <ele>230.45273517635</ele>
        <time>2016-07-03T11:23:47Z</time>
      </trkpt>
      <trkpt lat="44.23218" lon="4.98757">
        <ele>231.18632060879</ele>
        <time>2016-07-03T11:23:52Z</time>
      </trkpt>
      <trkpt lat="44.23207" lon="4.98754">
        <ele>231.95512526014</ele>
        <time>2016-07-03T11:23:56Z</time>
      </trkpt>
      <trkpt lat="44.23203" lon="4.98743">
        <ele>233.55691168497</ele>
        <time>2016-07-03T11:24:20Z</time>
      </trkpt>
      <trkpt lat="44.23196" lon="4.98739">
        <ele>234.1272633626</ele>
        <time>2016-07-03T11:24:36Z</time>
      </trkpt>
      <trkpt lat="44.23182" lon="4.98736">
        <ele>233.92099779567</ele>
        <time>2016-07-03T11:24:41Z</time>
      </trkpt>
      <trkpt lat="44.23176" lon="4.98728">
        <ele>233.90655732529</ele>
        <time>2016-07-03T11:24:45Z</time>
      </trkpt>
      <trkpt lat="44.23183" lon="4.98733">
        <ele>234.474673168</ele>
        <time>2016-07-03T11:25:08Z</time>
      </trkpt>
      <trkpt lat="44.23192" lon="4.98735">
        <ele>233.79519981515</ele>
        <time>2016-07-03T11:25:16Z</time>
      </trkpt>
      <trkpt lat="44.23199" lon="4.98736">
        <ele>234.2850053127</ele>
        <time>2016-07-03T11:25:31Z</time>
      </trkpt>
      <trkpt lat="44.23206" lon="4.98734">
        <ele>234.7814951749</ele>
        <time>2016-07-03T11:25:37Z</time>
      </trkpt>
      <trkpt lat="44.23216" lon="4.98732">
        <ele>234.91580336836</ele>
        <time>2016-07-03T11:25:42Z</time>
      </trkpt>
      <trkpt lat="44.23225" lon="4.98732">
        <ele>234.98854577392</ele>
        <time>2016-07-03T11:25:47Z</time>
      </trkpt>
      <trkpt lat="44.23219" lon="4.98739">
        <ele>234.43551575493</ele>
        <time>2016-07-03T11:25:58Z</time>
      </trkpt>
      <trkpt lat="44.23209" lon="4.98741">
        <ele>234.75948118875</ele>
        <time>2016-07-03T11:26:02Z</time>
      </trkpt>
      <trkpt lat="44.23201" lon="4.98743">
        <ele>235.41868690018</ele>
        <time>2016-07-03T11:26:11Z</time>
      </trkpt>
      <trkpt lat="44.23195" lon="4.98737">
        <ele>219.61834742257</ele>
        <time>2016-07-03T11:27:35Z</time>
      </trkpt>
      <trkpt lat="44.23179" lon="4.98732">
        <ele>218.00185756336</ele>
        <time>2016-07-03T11:27:40Z</time>
      </trkpt>
      <trkpt lat="44.23166" lon="4.98721">
        <ele>213.74839499258</ele>
        <time>2016-07-03T11:27:45Z</time>
      </trkpt>
      <trkpt lat="44.2316" lon="4.98712">
        <ele>213.02376932765</ele>
        <time>2016-07-03T11:27:49Z</time>
      </trkpt>
      <trkpt lat="44.23155" lon="4.98702">
        <ele>212.7423365833</ele>
        <time>2016-07-03T11:27:53Z</time>
      </trkpt>
      <trkpt lat="44.23149" lon="4.98686">
        <ele>213.15889618597</ele>
        <time>2016-07-03T11:27:58Z</time>
      </trkpt>
      <trkpt lat="44.23142" lon="4.98674">
        <ele>213.59976930818</ele>
        <time>2016-07-03T11:28:02Z</time>
      </trkpt>
      <trkpt lat="44.23145" lon="4.98663">
        <ele>230.84249245566</ele>
        <time>2016-07-03T11:29:40Z</time>
      </trkpt>
      <trkpt lat="44.23149" lon="4.98654">
        <ele>231.31465830702</ele>
        <time>2016-07-03T11:29:47Z</time>
      </trkpt>
      <trkpt lat="44.23149" lon="4.98643">
        <ele>231.70880497101</ele>
        <time>2016-07-03T11:29:54Z</time>
      </trkpt>
      <trkpt lat="44.23148" lon="4.98631">
        <ele>232.35153415087</ele>
        <time>2016-07-03T11:30:06Z</time>
      </trkpt>
      <trkpt lat="44.23151" lon="4.9864">
        <ele>232.92516120002</ele>
        <time>2016-07-03T11:30:24Z</time>
      </trkpt>
      <trkpt lat="44.23153" lon="4.98651">
        <ele>231.98278241032</ele>
        <time>2016-07-03T11:30:32Z</time>
      </trkpt>
      <trkpt lat="44.23153" lon="4.98659">
        <ele>231.54041074373</ele>
        <time>2016-07-03T11:30:54Z</time>
      </trkpt>
      <trkpt lat="44.23142" lon="4.98663">
        <ele>231.76480137593</ele>
        <time>2016-07-03T11:30:58Z</time>
      </trkpt>
      <trkpt lat="44.23135" lon="4.98668">
        <ele>233.20686183374</ele>
        <time>2016-07-03T11:31:53Z</time>
      </trkpt>
      <trkpt lat="44.23117" lon="4.98656">
        <ele>231.90183134916</ele>
        <time>2016-07-03T11:31:58Z</time>
      </trkpt>
      <trkpt lat="44.231" lon="4.98643">
        <ele>230.34219927198</ele>
        <time>2016-07-03T11:32:03Z</time>
      </trkpt>
      <trkpt lat="44.23081" lon="4.9863">
        <ele>228.2018481453</ele>
        <time>2016-07-03T11:32:08Z</time>
      </trkpt>
      <trkpt lat="44.23065" lon="4.98617">
        <ele>226.84532553819</ele>
        <time>2016-07-03T11:32:12Z</time>
      </trkpt>
      <trkpt lat="44.23051" lon="4.98606">
        <ele>225.63091825369</ele>
        <time>2016-07-03T11:32:16Z</time>
      </trkpt>
      <trkpt lat="44.23044" lon="4.98598">
        <ele>225.33453823157</ele>
        <time>2016-07-03T11:32:20Z</time>
      </trkpt>
      <trkpt lat="44.2303" lon="4.98579">
        <ele>231.57666636056</ele>
        <time>2016-07-03T11:32:25Z</time>
      </trkpt>
      <trkpt lat="44.23018" lon="4.98559">
        <ele>232.52529053363</ele>
        <time>2016-07-03T11:32:29Z</time>
      </trkpt>
      <trkpt lat="44.23003" lon="4.98536">
        <ele>231.90777008634</ele>
        <time>2016-07-03T11:32:34Z</time>
      </trkpt>
      <trkpt lat="44.22995" lon="4.98528">
        <ele>231.7054338553</ele>
        <time>2016-07-03T11:32:38Z</time>
      </trkpt>
      <trkpt lat="44.22991" lon="4.98537">
        <ele>230.70723131384</ele>
        <time>2016-07-03T11:32:43Z</time>
      </trkpt>
      <trkpt lat="44.22992" lon="4.98549">
        <ele>229.99921376247</ele>
        <time>2016-07-03T11:32:47Z</time>
      </trkpt>
      <trkpt lat="44.22991" lon="4.98562">
        <ele>229.38502736836</ele>
        <time>2016-07-03T11:32:51Z</time>
      </trkpt>
      <trkpt lat="44.22987" lon="4.98579">
        <ele>228.96707000762</ele>
        <time>2016-07-03T11:32:55Z</time>
      </trkpt>
      <trkpt lat="44.22979" lon="4.98597">
        <ele>228.5913825462</ele>
        <time>2016-07-03T11:32:59Z</time>
      </trkpt>
      <trkpt lat="44.22963" lon="4.98606">
        <ele>227.1839413603</ele>
        <time>2016-07-03T11:33:03Z</time>
      </trkpt>
      <trkpt lat="44.22942" lon="4.98607">
        <ele>227.01136844977</ele>
        <time>2016-07-03T11:33:07Z</time>
      </trkpt>
      <trkpt lat="44.22921" lon="4.98605">
        <ele>225.80069199348</ele>
        <time>2016-07-03T11:33:11Z</time>
      </trkpt>
      <trkpt lat="44.229" lon="4.98604">
        <ele>223.61741459231</ele>
        <time>2016-07-03T11:33:15Z</time>
      </trkpt>
      <trkpt lat="44.22877" lon="4.98605">
        <ele>222.41217597802</ele>
        <time>2016-07-03T11:33:19Z</time>
      </trkpt>
      <trkpt lat="44.22852" lon="4.98613">
        <ele>220.35842859134</ele>
        <time>2016-07-03T11:33:24Z</time>
      </trkpt>
      <trkpt lat="44.22836" lon="4.98621">
        <ele>216.12991018305</ele>
        <time>2016-07-03T11:33:28Z</time>
      </trkpt>
      <trkpt lat="44.22816" lon="4.9863">
        <ele>212.6816867385</ele>
        <time>2016-07-03T11:33:33Z</time>
      </trkpt>
      <trkpt lat="44.22801" lon="4.98637">
        <ele>210.62360988147</ele>
        <time>2016-07-03T11:33:37Z</time>
      </trkpt>
      <trkpt lat="44.22791" lon="4.98641">
        <ele>210.63115341728</ele>
        <time>2016-07-03T11:33:41Z</time>
      </trkpt>
      <trkpt lat="44.22778" lon="4.98647">
        <ele>210.54467276441</ele>
        <time>2016-07-03T11:33:45Z</time>
      </trkpt>
      <trkpt lat="44.22768" lon="4.98654">
        <ele>210.27637925002</ele>
        <time>2016-07-03T11:33:50Z</time>
      </trkpt>
      <trkpt lat="44.2276" lon="4.98657">
        <ele>208.84381281154</ele>
        <time>2016-07-03T11:34:31Z</time>
      </trkpt>
      <trkpt lat="44.22748" lon="4.98663">
        <ele>207.69740191016</ele>
        <time>2016-07-03T11:34:35Z</time>
      </trkpt>
      <trkpt lat="44.22731" lon="4.98672">
        <ele>207.24308352548</ele>
        <time>2016-07-03T11:34:39Z</time>
      </trkpt>
      <trkpt lat="44.22711" lon="4.98684">
        <ele>208.01361930919</ele>
        <time>2016-07-03T11:34:43Z</time>
      </trkpt>
      <trkpt lat="44.22677" lon="4.98701">
        <ele>207.82674331619</ele>
        <time>2016-07-03T11:34:48Z</time>
      </trkpt>
      <trkpt lat="44.22639" lon="4.98721">
        <ele>206.3919452266</ele>
        <time>2016-07-03T11:34:53Z</time>
      </trkpt>
      <trkpt lat="44.22607" lon="4.98741">
        <ele>203.23638611631</ele>
        <time>2016-07-03T11:34:57Z</time>
      </trkpt>
      <trkpt lat="44.22577" lon="4.98766">
        <ele>200.25833027792</ele>
        <time>2016-07-03T11:35:01Z</time>
      </trkpt>
      <trkpt lat="44.22552" lon="4.98798">
        <ele>197.34205205972</ele>
        <time>2016-07-03T11:35:05Z</time>
      </trkpt>
      <trkpt lat="44.22527" lon="4.98839">
        <ele>194.45237140546</ele>
        <time>2016-07-03T11:35:10Z</time>
      </trkpt>
      <trkpt lat="44.22509" lon="4.98867">
        <ele>193.51126220241</ele>
        <time>2016-07-03T11:35:14Z</time>
      </trkpt>
      <trkpt lat="44.22479" lon="4.98883">
        <ele>193.94319140814</ele>
        <time>2016-07-03T11:35:19Z</time>
      </trkpt>
      <trkpt lat="44.2247" lon="4.9891">
        <ele>195.35120200717</ele>
        <time>2016-07-03T11:35:24Z</time>
      </trkpt>
      <trkpt lat="44.22484" lon="4.98923">
        <ele>193.16749396929</ele>
        <time>2016-07-03T11:35:28Z</time>
      </trkpt>
      <trkpt lat="44.22508" lon="4.98943">
        <ele>190.85953871272</ele>
        <time>2016-07-03T11:35:33Z</time>
      </trkpt>
      <trkpt lat="44.22526" lon="4.98966">
        <ele>189.83846505921</ele>
        <time>2016-07-03T11:35:37Z</time>
      </trkpt>
      <trkpt lat="44.22548" lon="4.98995">
        <ele>189.39622588595</ele>
        <time>2016-07-03T11:35:42Z</time>
      </trkpt>
      <trkpt lat="44.22564" lon="4.99012">
        <ele>188.11396565737</ele>
        <time>2016-07-03T11:35:46Z</time>
      </trkpt>
      <trkpt lat="44.22582" lon="4.9903">
        <ele>185.75923742195</ele>
        <time>2016-07-03T11:35:51Z</time>
      </trkpt>
      <trkpt lat="44.22595" lon="4.99043">
        <ele>183.86377757204</ele>
        <time>2016-07-03T11:35:55Z</time>
      </trkpt>
      <trkpt lat="44.22611" lon="4.9906">
        <ele>182.09618395318</ele>
        <time>2016-07-03T11:36:00Z</time>
      </trkpt>
      <trkpt lat="44.22622" lon="4.99076">
        <ele>182.05600083044</ele>
        <time>2016-07-03T11:36:04Z</time>
      </trkpt>
      <trkpt lat="44.22632" lon="4.99094">
        <ele>182.79564356824</ele>
        <time>2016-07-03T11:36:08Z</time>
      </trkpt>
      <trkpt lat="44.22643" lon="4.99116">
        <ele>183.00958911086</ele>
        <time>2016-07-03T11:36:12Z</time>
      </trkpt>
      <trkpt lat="44.22656" lon="4.9914">
        <ele>180.55058135634</ele>
        <time>2016-07-03T11:36:16Z</time>
      </trkpt>
      <trkpt lat="44.22669" lon="4.99165">
        <ele>178.85523588207</ele>
        <time>2016-07-03T11:36:20Z</time>
      </trkpt>
      <trkpt lat="44.22686" lon="4.992">
        <ele>177.63147408233</ele>
        <time>2016-07-03T11:36:25Z</time>
      </trkpt>
      <trkpt lat="44.22701" lon="4.99231">
        <ele>176.96537776329</ele>
        <time>2016-07-03T11:36:29Z</time>
      </trkpt>
      <trkpt lat="44.2272" lon="4.99269">
        <ele>175.48147928536</ele>
        <time>2016-07-03T11:36:34Z</time>
      </trkpt>
      <trkpt lat="44.22736" lon="4.99301">
        <ele>174.04736647762</ele>
        <time>2016-07-03T11:36:38Z</time>
      </trkpt>
      <trkpt lat="44.22756" lon="4.99341">
        <ele>171.42079794625</ele>
        <time>2016-07-03T11:36:43Z</time>
      </trkpt>
      <trkpt lat="44.22772" lon="4.99374">
        <ele>169.26299066804</ele>
        <time>2016-07-03T11:36:47Z</time>
      </trkpt>
      <trkpt lat="44.22793" lon="4.99413">
        <ele>167.67298368672</ele>
        <time>2016-07-03T11:36:52Z</time>
      </trkpt>
      <trkpt lat="44.22815" lon="4.99431">
        <ele>167.98324416706</ele>
        <time>2016-07-03T11:36:56Z</time>
      </trkpt>
      <trkpt lat="44.22849" lon="4.99434">
        <ele>166.6865862266</ele>
        <time>2016-07-03T11:37:01Z</time>
      </trkpt>
      <trkpt lat="44.22876" lon="4.99432">
        <ele>164.16870571518</ele>
        <time>2016-07-03T11:37:05Z</time>
      </trkpt>
      <trkpt lat="44.22903" lon="4.99435">
        <ele>162.97313652153</ele>
        <time>2016-07-03T11:37:09Z</time>
      </trkpt>
      <trkpt lat="44.22922" lon="4.99459">
        <ele>162.09972185736</ele>
        <time>2016-07-03T11:37:13Z</time>
      </trkpt>
      <trkpt lat="44.22931" lon="4.99491">
        <ele>162.14851364487</ele>
        <time>2016-07-03T11:37:17Z</time>
      </trkpt>
      <trkpt lat="44.22918" lon="4.99528">
        <ele>160.9350723281</ele>
        <time>2016-07-03T11:37:22Z</time>
      </trkpt>
      <trkpt lat="44.22897" lon="4.99548">
        <ele>161.35241300393</ele>
        <time>2016-07-03T11:37:26Z</time>
      </trkpt>
      <trkpt lat="44.22869" lon="4.99571">
        <ele>162.39850353187</ele>
        <time>2016-07-03T11:37:31Z</time>
      </trkpt>
      <trkpt lat="44.22844" lon="4.99595">
        <ele>162.99684012835</ele>
        <time>2016-07-03T11:37:36Z</time>
      </trkpt>
      <trkpt lat="44.22826" lon="4.99619">
        <ele>162.50047406583</ele>
        <time>2016-07-03T11:37:40Z</time>
      </trkpt>
      <trkpt lat="44.22815" lon="4.9965">
        <ele>162.18337847354</ele>
        <time>2016-07-03T11:37:44Z</time>
      </trkpt>
      <trkpt lat="44.22814" lon="4.99694">
        <ele>161.82258372639</ele>
        <time>2016-07-03T11:37:49Z</time>
      </trkpt>
      <trkpt lat="44.22822" lon="4.99726">
        <ele>160.05055408873</ele>
        <time>2016-07-03T11:37:53Z</time>
      </trkpt>
      <trkpt lat="44.22835" lon="4.99754">
        <ele>159.15801915487</ele>
        <time>2016-07-03T11:37:57Z</time>
      </trkpt>
      <trkpt lat="44.22849" lon="4.99781">
        <ele>157.77660519728</ele>
        <time>2016-07-03T11:38:01Z</time>
      </trkpt>
      <trkpt lat="44.22867" lon="4.99809">
        <ele>156.43346439095</ele>
        <time>2016-07-03T11:38:06Z</time>
      </trkpt>
      <trkpt lat="44.22878" lon="4.99826">
        <ele>156.8439852803</ele>
        <time>2016-07-03T11:38:10Z</time>
      </trkpt>
      <trkpt lat="44.22896" lon="4.99848">
        <ele>157.6262699439</ele>
        <time>2016-07-03T11:38:15Z</time>
      </trkpt>
      <trkpt lat="44.22911" lon="4.99862">
        <ele>157.19308942983</ele>
        <time>2016-07-03T11:38:19Z</time>
      </trkpt>
      <trkpt lat="44.22927" lon="4.99872">
        <ele>158.59501209331</ele>
        <time>2016-07-03T11:38:23Z</time>
      </trkpt>
      <trkpt lat="44.22946" lon="4.9988">
        <ele>157.40779778952</ele>
        <time>2016-07-03T11:38:27Z</time>
      </trkpt>
      <trkpt lat="44.22964" lon="4.99881">
        <ele>157.01650852353</ele>
        <time>2016-07-03T11:38:31Z</time>
      </trkpt>
      <trkpt lat="44.22993" lon="4.99886">
        <ele>156.14494394524</ele>
        <time>2016-07-03T11:38:36Z</time>
      </trkpt>
      <trkpt lat="44.23015" lon="4.99903">
        <ele>154.93461073724</ele>
        <time>2016-07-03T11:38:40Z</time>
      </trkpt>
      <trkpt lat="44.23034" lon="4.99921">
        <ele>154.46260930443</ele>
        <time>2016-07-03T11:38:44Z</time>
      </trkpt>
      <trkpt lat="44.23059" lon="4.99937">
        <ele>154.98357684767</ele>
        <time>2016-07-03T11:38:49Z</time>
      </trkpt>
      <trkpt lat="44.23087" lon="4.99941">
        <ele>155.38380177409</ele>
        <time>2016-07-03T11:38:54Z</time>
      </trkpt>
      <trkpt lat="44.23109" lon="4.9994">
        <ele>155.14199464517</ele>
        <time>2016-07-03T11:38:58Z</time>
      </trkpt>
      <trkpt lat="44.23137" lon="4.99938">
        <ele>154.83331276061</ele>
        <time>2016-07-03T11:39:03Z</time>
      </trkpt>
      <trkpt lat="44.23159" lon="4.99936">
        <ele>155.07385478077</ele>
        <time>2016-07-03T11:39:07Z</time>
      </trkpt>
      <trkpt lat="44.2318" lon="4.99932">
        <ele>155.70433979564</ele>
        <time>2016-07-03T11:39:11Z</time>
      </trkpt>
      <trkpt lat="44.23201" lon="4.99924">
        <ele>156.34630994091</ele>
        <time>2016-07-03T11:39:15Z</time>
      </trkpt>
      <trkpt lat="44.23221" lon="4.99914">
        <ele>157.06832979472</ele>
        <time>2016-07-03T11:39:19Z</time>
      </trkpt>
      <trkpt lat="44.23248" lon="4.99901">
        <ele>157.83557927352</ele>
        <time>2016-07-03T11:39:24Z</time>
      </trkpt>
      <trkpt lat="44.23273" lon="4.99893">
        <ele>158.87871701229</ele>
        <time>2016-07-03T11:39:29Z</time>
      </trkpt>
      <trkpt lat="44.23294" lon="4.99893">
        <ele>159.46990362327</ele>
        <time>2016-07-03T11:39:33Z</time>
      </trkpt>
      <trkpt lat="44.23323" lon="4.99896">
        <ele>159.44147370057</ele>
        <time>2016-07-03T11:39:38Z</time>
      </trkpt>
      <trkpt lat="44.23344" lon="4.99898">
        <ele>160.22135890625</ele>
        <time>2016-07-03T11:39:42Z</time>
      </trkpt>
      <trkpt lat="44.23364" lon="4.99901">
        <ele>160.59321299749</ele>
        <time>2016-07-03T11:39:46Z</time>
      </trkpt>
      <trkpt lat="44.23392" lon="4.99908">
        <ele>160.61770203112</ele>
        <time>2016-07-03T11:39:51Z</time>
      </trkpt>
      <trkpt lat="44.23413" lon="4.99919">
        <ele>160.29858482999</ele>
        <time>2016-07-03T11:39:55Z</time>
      </trkpt>
      <trkpt lat="44.23432" lon="4.99933">
        <ele>160.09434056739</ele>
        <time>2016-07-03T11:39:59Z</time>
      </trkpt>
      <trkpt lat="44.2345" lon="4.99949">
        <ele>161.80010978512</ele>
        <time>2016-07-03T11:40:03Z</time>
      </trkpt>
      <trkpt lat="44.23471" lon="4.9997">
        <ele>162.43775391332</ele>
        <time>2016-07-03T11:40:08Z</time>
      </trkpt>
      <trkpt lat="44.23487" lon="4.99983">
        <ele>163.25174457248</ele>
        <time>2016-07-03T11:40:12Z</time>
      </trkpt>
      <trkpt lat="44.2351" lon="5.00005">
        <ele>162.58984359744</ele>
        <time>2016-07-03T11:40:17Z</time>
      </trkpt>
      <trkpt lat="44.23529" lon="5.00029">
        <ele>162.09911129619</ele>
        <time>2016-07-03T11:40:22Z</time>
      </trkpt>
      <trkpt lat="44.2355" lon="5.00057">
        <ele>160.63403105564</ele>
        <time>2016-07-03T11:40:27Z</time>
      </trkpt>
      <trkpt lat="44.23566" lon="5.0008">
        <ele>157.77074938881</ele>
        <time>2016-07-03T11:40:31Z</time>
      </trkpt>
      <trkpt lat="44.23583" lon="5.00105">
        <ele>155.99328220685</ele>
        <time>2016-07-03T11:40:36Z</time>
      </trkpt>
      <trkpt lat="44.23596" lon="5.00125">
        <ele>157.6630388181</ele>
        <time>2016-07-03T11:40:40Z</time>
      </trkpt>
      <trkpt lat="44.23614" lon="5.00145">
        <ele>158.75551625897</ele>
        <time>2016-07-03T11:40:44Z</time>
      </trkpt>
      <trkpt lat="44.23632" lon="5.00166">
        <ele>158.87582939922</ele>
        <time>2016-07-03T11:40:48Z</time>
      </trkpt>
      <trkpt lat="44.23646" lon="5.0019">
        <ele>159.29321416628</ele>
        <time>2016-07-03T11:40:52Z</time>
      </trkpt>
      <trkpt lat="44.23656" lon="5.00214">
        <ele>160.95618828254</ele>
        <time>2016-07-03T11:40:56Z</time>
      </trkpt>
      <trkpt lat="44.23669" lon="5.00251">
        <ele>162.96353335941</ele>
        <time>2016-07-03T11:41:01Z</time>
      </trkpt>
      <trkpt lat="44.23683" lon="5.00291">
        <ele>164.7575802969</ele>
        <time>2016-07-03T11:41:06Z</time>
      </trkpt>
      <trkpt lat="44.23695" lon="5.00327">
        <ele>164.97640186537</ele>
        <time>2016-07-03T11:41:11Z</time>
      </trkpt>
      <trkpt lat="44.23707" lon="5.00355">
        <ele>163.65497395083</ele>
        <time>2016-07-03T11:41:15Z</time>
      </trkpt>
      <trkpt lat="44.23715" lon="5.00383">
        <ele>163.35383799618</ele>
        <time>2016-07-03T11:41:19Z</time>
      </trkpt>
      <trkpt lat="44.23721" lon="5.00418">
        <ele>165.12183649111</ele>
        <time>2016-07-03T11:41:24Z</time>
      </trkpt>
      <trkpt lat="44.23723" lon="5.00451">
        <ele>163.69014004039</ele>
        <time>2016-07-03T11:41:28Z</time>
      </trkpt>
      <trkpt lat="44.23724" lon="5.0049">
        <ele>161.6205477671</ele>
        <time>2016-07-03T11:41:33Z</time>
      </trkpt>
      <trkpt lat="44.23727" lon="5.00527">
        <ele>161.27096689845</ele>
        <time>2016-07-03T11:41:38Z</time>
      </trkpt>
      <trkpt lat="44.2373" lon="5.00564">
        <ele>162.19396852564</ele>
        <time>2016-07-03T11:41:43Z</time>
      </trkpt>
      <trkpt lat="44.23733" lon="5.00592">
        <ele>161.97651127523</ele>
        <time>2016-07-03T11:41:47Z</time>
      </trkpt>
      <trkpt lat="44.23736" lon="5.0062">
        <ele>161.23045791061</ele>
        <time>2016-07-03T11:41:51Z</time>
      </trkpt>
      <trkpt lat="44.23739" lon="5.00653">
        <ele>160.55535993788</ele>
        <time>2016-07-03T11:41:56Z</time>
      </trkpt>
      <trkpt lat="44.23744" lon="5.00682">
        <ele>159.56545598604</ele>
        <time>2016-07-03T11:42:00Z</time>
      </trkpt>
      <trkpt lat="44.23757" lon="5.00714">
        <ele>160.66556015736</ele>
        <time>2016-07-03T11:42:05Z</time>
      </trkpt>
      <trkpt lat="44.23772" lon="5.00737">
        <ele>160.32342399483</ele>
        <time>2016-07-03T11:42:09Z</time>
      </trkpt>
      <trkpt lat="44.23786" lon="5.00756">
        <ele>159.47414955905</ele>
        <time>2016-07-03T11:42:13Z</time>
      </trkpt>
      <trkpt lat="44.238" lon="5.00775">
        <ele>160.53075114896</ele>
        <time>2016-07-03T11:42:18Z</time>
      </trkpt>
      <trkpt lat="44.23815" lon="5.00797">
        <ele>162.72347820724</ele>
        <time>2016-07-03T11:42:23Z</time>
      </trkpt>
      <trkpt lat="44.23828" lon="5.00815">
        <ele>163.33848688281</ele>
        <time>2016-07-03T11:42:27Z</time>
      </trkpt>
      <trkpt lat="44.2384" lon="5.00834">
        <ele>163.9509898733</ele>
        <time>2016-07-03T11:42:31Z</time>
      </trkpt>
      <trkpt lat="44.23854" lon="5.00856">
        <ele>164.81712422839</ele>
        <time>2016-07-03T11:42:36Z</time>
      </trkpt>
      <trkpt lat="44.23867" lon="5.00877">
        <ele>165.60312407118</ele>
        <time>2016-07-03T11:42:41Z</time>
      </trkpt>
      <trkpt lat="44.23878" lon="5.00891">
        <ele>165.68529474547</ele>
        <time>2016-07-03T11:42:45Z</time>
      </trkpt>
      <trkpt lat="44.23888" lon="5.00906">
        <ele>165.30678804808</ele>
        <time>2016-07-03T11:42:49Z</time>
      </trkpt>
      <trkpt lat="44.23903" lon="5.00925">
        <ele>162.77913164203</ele>
        <time>2016-07-03T11:42:54Z</time>
      </trkpt>
      <trkpt lat="44.23915" lon="5.00942">
        <ele>162.15442396798</ele>
        <time>2016-07-03T11:42:58Z</time>
      </trkpt>
      <trkpt lat="44.23927" lon="5.0096">
        <ele>162.42949070776</ele>
        <time>2016-07-03T11:43:02Z</time>
      </trkpt>
      <trkpt lat="44.23942" lon="5.00984">
        <ele>162.88464002442</ele>
        <time>2016-07-03T11:43:07Z</time>
      </trkpt>
      <trkpt lat="44.23954" lon="5.01">
        <ele>163.30558235954</ele>
        <time>2016-07-03T11:43:11Z</time>
      </trkpt>
      <trkpt lat="44.23966" lon="5.01017">
        <ele>163.64719070921</ele>
        <time>2016-07-03T11:43:15Z</time>
      </trkpt>
      <trkpt lat="44.23982" lon="5.01039">
        <ele>163.17044177398</ele>
        <time>2016-07-03T11:43:20Z</time>
      </trkpt>
      <trkpt lat="44.23994" lon="5.01056">
        <ele>163.06311902233</ele>
        <time>2016-07-03T11:43:24Z</time>
      </trkpt>
      <trkpt lat="44.24008" lon="5.01076">
        <ele>163.94260918211</ele>
        <time>2016-07-03T11:43:29Z</time>
      </trkpt>
      <trkpt lat="44.24023" lon="5.01098">
        <ele>164.42124587914</ele>
        <time>2016-07-03T11:43:34Z</time>
      </trkpt>
      <trkpt lat="44.24035" lon="5.01116">
        <ele>164.2401560903</ele>
        <time>2016-07-03T11:43:38Z</time>
      </trkpt>
      <trkpt lat="44.2405" lon="5.01137">
        <ele>163.98755798189</ele>
        <time>2016-07-03T11:43:43Z</time>
      </trkpt>
      <trkpt lat="44.24062" lon="5.01155">
        <ele>164.20675361371</ele>
        <time>2016-07-03T11:43:47Z</time>
      </trkpt>
      <trkpt lat="44.24077" lon="5.01176">
        <ele>164.7555609831</ele>
        <time>2016-07-03T11:43:52Z</time>
      </trkpt>
      <trkpt lat="44.24089" lon="5.01194">
        <ele>165.36165538419</ele>
        <time>2016-07-03T11:43:56Z</time>
      </trkpt>
      <trkpt lat="44.24104" lon="5.01215">
        <ele>166.8184312328</ele>
        <time>2016-07-03T11:44:01Z</time>
      </trkpt>
      <trkpt lat="44.2412" lon="5.01238">
        <ele>167.16641168144</ele>
        <time>2016-07-03T11:44:06Z</time>
      </trkpt>
      <trkpt lat="44.24134" lon="5.0126">
        <ele>168.13424634031</ele>
        <time>2016-07-03T11:44:11Z</time>
      </trkpt>
      <trkpt lat="44.24144" lon="5.01274">
        <ele>168.76018514285</ele>
        <time>2016-07-03T11:44:15Z</time>
      </trkpt>
      <trkpt lat="44.24158" lon="5.01294">
        <ele>169.38512736268</ele>
        <time>2016-07-03T11:44:20Z</time>
      </trkpt>
      <trkpt lat="44.24169" lon="5.0131">
        <ele>169.12023450956</ele>
        <time>2016-07-03T11:44:24Z</time>
      </trkpt>
      <trkpt lat="44.24182" lon="5.01329">
        <ele>168.52077450383</ele>
        <time>2016-07-03T11:44:29Z</time>
      </trkpt>
      <trkpt lat="44.24198" lon="5.01349">
        <ele>167.75263129119</ele>
        <time>2016-07-03T11:44:34Z</time>
      </trkpt>
      <trkpt lat="44.24212" lon="5.01363">
        <ele>167.54248472671</ele>
        <time>2016-07-03T11:44:38Z</time>
      </trkpt>
      <trkpt lat="44.24227" lon="5.01374">
        <ele>166.57674027856</ele>
        <time>2016-07-03T11:44:42Z</time>
      </trkpt>
      <trkpt lat="44.24248" lon="5.01387">
        <ele>166.64136424273</ele>
        <time>2016-07-03T11:44:47Z</time>
      </trkpt>
      <trkpt lat="44.24264" lon="5.01399">
        <ele>166.34593202606</ele>
        <time>2016-07-03T11:44:51Z</time>
      </trkpt>
      <trkpt lat="44.24277" lon="5.01407">
        <ele>166.37499071409</ele>
        <time>2016-07-03T11:44:55Z</time>
      </trkpt>
      <trkpt lat="44.2429" lon="5.01417">
        <ele>165.37720147189</ele>
        <time>2016-07-03T11:44:59Z</time>
      </trkpt>
      <trkpt lat="44.24302" lon="5.01427">
        <ele>165.54583953474</ele>
        <time>2016-07-03T11:45:03Z</time>
      </trkpt>
      <trkpt lat="44.24318" lon="5.01452">
        <ele>167.49934603165</ele>
        <time>2016-07-03T11:45:08Z</time>
      </trkpt>
      <trkpt lat="44.24327" lon="5.01473">
        <ele>169.81977659406</ele>
        <time>2016-07-03T11:45:12Z</time>
      </trkpt>
      <trkpt lat="44.24336" lon="5.01493">
        <ele>170.52936781614</ele>
        <time>2016-07-03T11:45:16Z</time>
      </trkpt>
      <trkpt lat="44.24346" lon="5.01515">
        <ele>170.69463057196</ele>
        <time>2016-07-03T11:45:21Z</time>
      </trkpt>
      <trkpt lat="44.24354" lon="5.01533">
        <ele>171.30682797031</ele>
        <time>2016-07-03T11:45:25Z</time>
      </trkpt>
      <trkpt lat="44.24371" lon="5.01556">
        <ele>170.41756768644</ele>
        <time>2016-07-03T11:45:30Z</time>
      </trkpt>
      <trkpt lat="44.24381" lon="5.0157">
        <ele>169.62946185073</ele>
        <time>2016-07-03T11:45:34Z</time>
      </trkpt>
      <trkpt lat="44.24393" lon="5.01589">
        <ele>168.73699881321</ele>
        <time>2016-07-03T11:45:39Z</time>
      </trkpt>
      <trkpt lat="44.24406" lon="5.01609">
        <ele>168.79786755315</ele>
        <time>2016-07-03T11:45:44Z</time>
      </trkpt>
      <trkpt lat="44.24416" lon="5.01624">
        <ele>168.74203324527</ele>
        <time>2016-07-03T11:45:48Z</time>
      </trkpt>
      <trkpt lat="44.24426" lon="5.01644">
        <ele>169.73694779961</ele>
        <time>2016-07-03T11:45:53Z</time>
      </trkpt>
      <trkpt lat="44.24441" lon="5.01667">
        <ele>169.99229495068</ele>
        <time>2016-07-03T11:45:58Z</time>
      </trkpt>
      <trkpt lat="44.24455" lon="5.01689">
        <ele>169.75731519046</ele>
        <time>2016-07-03T11:46:03Z</time>
      </trkpt>
      <trkpt lat="44.24464" lon="5.01705">
        <ele>169.58223725893</ele>
        <time>2016-07-03T11:46:07Z</time>
      </trkpt>
      <trkpt lat="44.24474" lon="5.0172">
        <ele>169.5618718776</ele>
        <time>2016-07-03T11:46:11Z</time>
      </trkpt>
      <trkpt lat="44.2448" lon="5.01737">
        <ele>169.58081921577</ele>
        <time>2016-07-03T11:46:15Z</time>
      </trkpt>
      <trkpt lat="44.24482" lon="5.01761">
        <ele>169.58097584817</ele>
        <time>2016-07-03T11:46:20Z</time>
      </trkpt>
      <trkpt lat="44.24495" lon="5.01771">
        <ele>169.39503858926</ele>
        <time>2016-07-03T11:46:24Z</time>
      </trkpt>
      <trkpt lat="44.24508" lon="5.0178">
        <ele>169.43543266742</ele>
        <time>2016-07-03T11:46:28Z</time>
      </trkpt>
      <trkpt lat="44.24522" lon="5.01802">
        <ele>169.38716738641</ele>
        <time>2016-07-03T11:46:33Z</time>
      </trkpt>
      <trkpt lat="44.24536" lon="5.0182">
        <ele>168.60684149583</ele>
        <time>2016-07-03T11:46:38Z</time>
      </trkpt>
      <trkpt lat="44.24547" lon="5.01832">
        <ele>168.50438675118</ele>
        <time>2016-07-03T11:46:42Z</time>
      </trkpt>
      <trkpt lat="44.24562" lon="5.01849">
        <ele>168.35915063787</ele>
        <time>2016-07-03T11:46:47Z</time>
      </trkpt>
      <trkpt lat="44.24575" lon="5.01865">
        <ele>168.51257070334</ele>
        <time>2016-07-03T11:46:51Z</time>
      </trkpt>
      <trkpt lat="44.24587" lon="5.01879">
        <ele>168.71489169931</ele>
        <time>2016-07-03T11:46:55Z</time>
      </trkpt>
      <trkpt lat="44.24601" lon="5.01895">
        <ele>167.42934002023</ele>
        <time>2016-07-03T11:46:59Z</time>
      </trkpt>
      <trkpt lat="44.24616" lon="5.0191">
        <ele>165.81752184041</ele>
        <time>2016-07-03T11:47:03Z</time>
      </trkpt>
      <trkpt lat="44.24628" lon="5.01924">
        <ele>165.59488169641</ele>
        <time>2016-07-03T11:47:07Z</time>
      </trkpt>
      <trkpt lat="44.24639" lon="5.01937">
        <ele>165.36336563079</ele>
        <time>2016-07-03T11:47:11Z</time>
      </trkpt>
      <trkpt lat="44.24653" lon="5.01951">
        <ele>165.70430444702</ele>
        <time>2016-07-03T11:47:16Z</time>
      </trkpt>
      <trkpt lat="44.24668" lon="5.01968">
        <ele>167.09280709861</ele>
        <time>2016-07-03T11:47:21Z</time>
      </trkpt>
      <trkpt lat="44.24683" lon="5.01986">
        <ele>169.03039157585</ele>
        <time>2016-07-03T11:47:26Z</time>
      </trkpt>
      <trkpt lat="44.24699" lon="5.02008">
        <ele>169.23365714602</ele>
        <time>2016-07-03T11:47:31Z</time>
      </trkpt>
      <trkpt lat="44.24709" lon="5.02027">
        <ele>169.21295004894</ele>
        <time>2016-07-03T11:47:35Z</time>
      </trkpt>
      <trkpt lat="44.24718" lon="5.02045">
        <ele>168.68460913525</ele>
        <time>2016-07-03T11:47:39Z</time>
      </trkpt>
      <trkpt lat="44.2473" lon="5.0207">
        <ele>167.51561081478</ele>
        <time>2016-07-03T11:47:44Z</time>
      </trkpt>
      <trkpt lat="44.24736" lon="5.02089">
        <ele>168.20785246742</ele>
        <time>2016-07-03T11:47:48Z</time>
      </trkpt>
      <trkpt lat="44.24743" lon="5.02118">
        <ele>167.48600290763</ele>
        <time>2016-07-03T11:47:53Z</time>
      </trkpt>
      <trkpt lat="44.24749" lon="5.02145">
        <ele>168.40242121934</ele>
        <time>2016-07-03T11:47:58Z</time>
      </trkpt>
      <trkpt lat="44.24753" lon="5.02167">
        <ele>168.43556818143</ele>
        <time>2016-07-03T11:48:02Z</time>
      </trkpt>
      <trkpt lat="44.24758" lon="5.02199">
        <ele>169.01651242454</ele>
        <time>2016-07-03T11:48:07Z</time>
      </trkpt>
      <trkpt lat="44.24762" lon="5.02224">
        <ele>170.47372508843</ele>
        <time>2016-07-03T11:48:11Z</time>
      </trkpt>
      <trkpt lat="44.24766" lon="5.02254">
        <ele>173.3367232317</ele>
        <time>2016-07-03T11:48:16Z</time>
      </trkpt>
      <trkpt lat="44.2477" lon="5.02285">
        <ele>176.34802069933</ele>
        <time>2016-07-03T11:48:21Z</time>
      </trkpt>
      <trkpt lat="44.24773" lon="5.02308">
        <ele>178.73592754526</ele>
        <time>2016-07-03T11:48:25Z</time>
      </trkpt>
      <trkpt lat="44.24776" lon="5.02332">
        <ele>179.13284354815</ele>
        <time>2016-07-03T11:48:29Z</time>
      </trkpt>
      <trkpt lat="44.2478" lon="5.02363">
        <ele>175.99979442688</ele>
        <time>2016-07-03T11:48:34Z</time>
      </trkpt>
      <trkpt lat="44.24786" lon="5.02386">
        <ele>174.22897150896</ele>
        <time>2016-07-03T11:48:38Z</time>
      </trkpt>
      <trkpt lat="44.24795" lon="5.02414">
        <ele>172.53221052028</ele>
        <time>2016-07-03T11:48:43Z</time>
      </trkpt>
      <trkpt lat="44.24804" lon="5.02436">
        <ele>171.21703777246</ele>
        <time>2016-07-03T11:48:47Z</time>
      </trkpt>
      <trkpt lat="44.24814" lon="5.02455">
        <ele>170.9868172727</ele>
        <time>2016-07-03T11:48:51Z</time>
      </trkpt>
      <trkpt lat="44.24828" lon="5.02479">
        <ele>171.34597774058</ele>
        <time>2016-07-03T11:48:56Z</time>
      </trkpt>
      <trkpt lat="44.24839" lon="5.02499">
        <ele>171.93885557891</ele>
        <time>2016-07-03T11:49:00Z</time>
      </trkpt>
      <trkpt lat="44.24852" lon="5.02522">
        <ele>171.76951675759</ele>
        <time>2016-07-03T11:49:05Z</time>
      </trkpt>
      <trkpt lat="44.24865" lon="5.02544">
        <ele>172.01595529168</ele>
        <time>2016-07-03T11:49:10Z</time>
      </trkpt>
      <trkpt lat="44.24875" lon="5.02561">
        <ele>173.6114862841</ele>
        <time>2016-07-03T11:49:14Z</time>
      </trkpt>
      <trkpt lat="44.24886" lon="5.02581">
        <ele>173.51197682672</ele>
        <time>2016-07-03T11:49:18Z</time>
      </trkpt>
      <trkpt lat="44.24896" lon="5.02598">
        <ele>174.09703903585</ele>
        <time>2016-07-03T11:49:22Z</time>
      </trkpt>
      <trkpt lat="44.24907" lon="5.02617">
        <ele>174.81201314884</ele>
        <time>2016-07-03T11:49:26Z</time>
      </trkpt>
      <trkpt lat="44.24917" lon="5.02634">
        <ele>174.62116161896</ele>
        <time>2016-07-03T11:49:30Z</time>
      </trkpt>
      <trkpt lat="44.2493" lon="5.02655">
        <ele>174.89827344571</ele>
        <time>2016-07-03T11:49:35Z</time>
      </trkpt>
      <trkpt lat="44.24942" lon="5.02674">
        <ele>175.86527449643</ele>
        <time>2016-07-03T11:49:39Z</time>
      </trkpt>
      <trkpt lat="44.24951" lon="5.02691">
        <ele>175.95073728732</ele>
        <time>2016-07-03T11:49:43Z</time>
      </trkpt>
      <trkpt lat="44.24962" lon="5.0271">
        <ele>175.42233503201</ele>
        <time>2016-07-03T11:49:47Z</time>
      </trkpt>
      <trkpt lat="44.24976" lon="5.02733">
        <ele>174.35728064986</ele>
        <time>2016-07-03T11:49:52Z</time>
      </trkpt>
      <trkpt lat="44.24987" lon="5.02751">
        <ele>174.21155677472</ele>
        <time>2016-07-03T11:49:56Z</time>
      </trkpt>
      <trkpt lat="44.24999" lon="5.02774">
        <ele>174.2533468191</ele>
        <time>2016-07-03T11:50:01Z</time>
      </trkpt>
      <trkpt lat="44.2501" lon="5.02794">
        <ele>172.89047735309</ele>
        <time>2016-07-03T11:50:05Z</time>
      </trkpt>
      <trkpt lat="44.25022" lon="5.02815">
        <ele>171.0380976497</ele>
        <time>2016-07-03T11:50:09Z</time>
      </trkpt>
      <trkpt lat="44.25033" lon="5.02836">
        <ele>170.41431323408</ele>
        <time>2016-07-03T11:50:13Z</time>
      </trkpt>
      <trkpt lat="44.25047" lon="5.02858">
        <ele>171.42478822512</ele>
        <time>2016-07-03T11:50:18Z</time>
      </trkpt>
      <trkpt lat="44.25062" lon="5.0288">
        <ele>172.06173988992</ele>
        <time>2016-07-03T11:50:23Z</time>
      </trkpt>
      <trkpt lat="44.25074" lon="5.02897">
        <ele>173.12375868334</ele>
        <time>2016-07-03T11:50:27Z</time>
      </trkpt>
      <trkpt lat="44.25084" lon="5.02913">
        <ele>173.85537897157</ele>
        <time>2016-07-03T11:50:31Z</time>
      </trkpt>
      <trkpt lat="44.25096" lon="5.0294">
        <ele>174.29046435907</ele>
        <time>2016-07-03T11:50:36Z</time>
      </trkpt>
      <trkpt lat="44.25108" lon="5.02963">
        <ele>175.92644702682</ele>
        <time>2016-07-03T11:50:41Z</time>
      </trkpt>
      <trkpt lat="44.25114" lon="5.02989">
        <ele>176.72773784412</ele>
        <time>2016-07-03T11:50:45Z</time>
      </trkpt>
      <trkpt lat="44.25119" lon="5.03025">
        <ele>176.25961012563</ele>
        <time>2016-07-03T11:50:50Z</time>
      </trkpt>
      <trkpt lat="44.25121" lon="5.03057">
        <ele>177.66529176333</ele>
        <time>2016-07-03T11:50:55Z</time>
      </trkpt>
      <trkpt lat="44.25122" lon="5.0308">
        <ele>179.58345969002</ele>
        <time>2016-07-03T11:50:59Z</time>
      </trkpt>
      <trkpt lat="44.25121" lon="5.03105">
        <ele>181.07522829396</ele>
        <time>2016-07-03T11:51:03Z</time>
      </trkpt>
      <trkpt lat="44.2512" lon="5.03139">
        <ele>181.98838638032</ele>
        <time>2016-07-03T11:51:08Z</time>
      </trkpt>
      <trkpt lat="44.25118" lon="5.03167">
        <ele>180.6790827508</ele>
        <time>2016-07-03T11:51:12Z</time>
      </trkpt>
      <trkpt lat="44.25116" lon="5.03198">
        <ele>179.90418404359</ele>
        <time>2016-07-03T11:51:17Z</time>
      </trkpt>
      <trkpt lat="44.25116" lon="5.0322">
        <ele>179.39067117392</ele>
        <time>2016-07-03T11:51:21Z</time>
      </trkpt>
      <trkpt lat="44.25116" lon="5.0324">
        <ele>179.32206333898</ele>
        <time>2016-07-03T11:51:25Z</time>
      </trkpt>
      <trkpt lat="44.25117" lon="5.03256">
        <ele>179.20605151292</ele>
        <time>2016-07-03T11:51:29Z</time>
      </trkpt>
      <trkpt lat="44.2512" lon="5.0327">
        <ele>179.16706206103</ele>
        <time>2016-07-03T11:51:34Z</time>
      </trkpt>
      <trkpt lat="44.25112" lon="5.03266">
        <ele>176.59691201927</ele>
        <time>2016-07-03T11:51:57Z</time>
      </trkpt>
      <trkpt lat="44.25113" lon="5.03276">
        <ele>173.71975270419</ele>
        <time>2016-07-03T11:52:36Z</time>
      </trkpt>
      <trkpt lat="44.25112" lon="5.03299">
        <ele>174.13340474598</ele>
        <time>2016-07-03T11:52:41Z</time>
      </trkpt>
      <trkpt lat="44.25114" lon="5.03309">
        <ele>174.96862989124</ele>
        <time>2016-07-03T11:52:54Z</time>
      </trkpt>
      <trkpt lat="44.25114" lon="5.03325">
        <ele>176.1314712986</ele>
        <time>2016-07-03T11:52:58Z</time>
      </trkpt>
      <trkpt lat="44.25112" lon="5.03351">
        <ele>178.93906119833</ele>
        <time>2016-07-03T11:53:02Z</time>
      </trkpt>
      <trkpt lat="44.25112" lon="5.03377">
        <ele>180.23272764494</ele>
        <time>2016-07-03T11:53:06Z</time>
      </trkpt>
      <trkpt lat="44.25111" lon="5.03403">
        <ele>180.47143100751</ele>
        <time>2016-07-03T11:53:10Z</time>
      </trkpt>
      <trkpt lat="44.2511" lon="5.03431">
        <ele>180.52094532735</ele>
        <time>2016-07-03T11:53:14Z</time>
      </trkpt>
      <trkpt lat="44.25109" lon="5.03467">
        <ele>179.14821033509</ele>
        <time>2016-07-03T11:53:19Z</time>
      </trkpt>
      <trkpt lat="44.25108" lon="5.03496">
        <ele>178.99432902622</ele>
        <time>2016-07-03T11:53:23Z</time>
      </trkpt>
      <trkpt lat="44.25107" lon="5.03524">
        <ele>180.56303097535</ele>
        <time>2016-07-03T11:53:27Z</time>
      </trkpt>
      <trkpt lat="44.25106" lon="5.03559">
        <ele>182.52933646992</ele>
        <time>2016-07-03T11:53:32Z</time>
      </trkpt>
      <trkpt lat="44.25105" lon="5.03595">
        <ele>181.32840685326</ele>
        <time>2016-07-03T11:53:37Z</time>
      </trkpt>
      <trkpt lat="44.25104" lon="5.03623">
        <ele>180.87941606245</ele>
        <time>2016-07-03T11:53:41Z</time>
      </trkpt>
      <trkpt lat="44.25103" lon="5.03652">
        <ele>180.22709458289</ele>
        <time>2016-07-03T11:53:45Z</time>
      </trkpt>
      <trkpt lat="44.25102" lon="5.03679">
        <ele>180.7902639741</ele>
        <time>2016-07-03T11:53:49Z</time>
      </trkpt>
      <trkpt lat="44.25101" lon="5.03706">
        <ele>181.28765622938</ele>
        <time>2016-07-03T11:53:53Z</time>
      </trkpt>
      <trkpt lat="44.25101" lon="5.0373">
        <ele>182.60949990466</ele>
        <time>2016-07-03T11:53:57Z</time>
      </trkpt>
      <trkpt lat="44.25099" lon="5.03761">
        <ele>182.74888201204</ele>
        <time>2016-07-03T11:54:02Z</time>
      </trkpt>
      <trkpt lat="44.25098" lon="5.03785">
        <ele>182.34518384983</ele>
        <time>2016-07-03T11:54:06Z</time>
      </trkpt>
      <trkpt lat="44.25097" lon="5.03811">
        <ele>181.93792792487</ele>
        <time>2016-07-03T11:54:10Z</time>
      </trkpt>
      <trkpt lat="44.25096" lon="5.03842">
        <ele>182.2960743541</ele>
        <time>2016-07-03T11:54:15Z</time>
      </trkpt>
      <trkpt lat="44.25096" lon="5.03875">
        <ele>183.14339418755</ele>
        <time>2016-07-03T11:54:20Z</time>
      </trkpt>
      <trkpt lat="44.25096" lon="5.03902">
        <ele>182.09370613863</ele>
        <time>2016-07-03T11:54:24Z</time>
      </trkpt>
      <trkpt lat="44.25095" lon="5.03934">
        <ele>182.24990759038</ele>
        <time>2016-07-03T11:54:29Z</time>
      </trkpt>
      <trkpt lat="44.25094" lon="5.03964">
        <ele>181.97670933314</ele>
        <time>2016-07-03T11:54:34Z</time>
      </trkpt>
      <trkpt lat="44.25093" lon="5.03985">
        <ele>181.88293883331</ele>
        <time>2016-07-03T11:54:38Z</time>
      </trkpt>
      <trkpt lat="44.25091" lon="5.04014">
        <ele>182.25940092618</ele>
        <time>2016-07-03T11:54:43Z</time>
      </trkpt>
      <trkpt lat="44.25088" lon="5.04038">
        <ele>184.14738952854</ele>
        <time>2016-07-03T11:54:47Z</time>
      </trkpt>
      <trkpt lat="44.25082" lon="5.04067">
        <ele>185.34763164846</ele>
        <time>2016-07-03T11:54:52Z</time>
      </trkpt>
      <trkpt lat="44.25075" lon="5.0409">
        <ele>185.34776366742</ele>
        <time>2016-07-03T11:54:56Z</time>
      </trkpt>
      <trkpt lat="44.25067" lon="5.04118">
        <ele>184.47230284412</ele>
        <time>2016-07-03T11:55:01Z</time>
      </trkpt>
      <trkpt lat="44.25058" lon="5.04146">
        <ele>184.08174991395</ele>
        <time>2016-07-03T11:55:06Z</time>
      </trkpt>
      <trkpt lat="44.25051" lon="5.04169">
        <ele>183.79944735072</ele>
        <time>2016-07-03T11:55:10Z</time>
      </trkpt>
      <trkpt lat="44.25042" lon="5.04198">
        <ele>183.75012098578</ele>
        <time>2016-07-03T11:55:15Z</time>
      </trkpt>
      <trkpt lat="44.25034" lon="5.04221">
        <ele>183.89667468956</ele>
        <time>2016-07-03T11:55:19Z</time>
      </trkpt>
      <trkpt lat="44.25027" lon="5.04244">
        <ele>183.33229738823</ele>
        <time>2016-07-03T11:55:23Z</time>
      </trkpt>
      <trkpt lat="44.25017" lon="5.04273">
        <ele>182.53109135169</ele>
        <time>2016-07-03T11:55:28Z</time>
      </trkpt>
      <trkpt lat="44.2501" lon="5.04297">
        <ele>180.83530183607</ele>
        <time>2016-07-03T11:55:32Z</time>
      </trkpt>
      <trkpt lat="44.25001" lon="5.04321">
        <ele>180.5090825258</ele>
        <time>2016-07-03T11:55:36Z</time>
      </trkpt>
      <trkpt lat="44.24991" lon="5.04342">
        <ele>180.32738720721</ele>
        <time>2016-07-03T11:55:40Z</time>
      </trkpt>
      <trkpt lat="44.24978" lon="5.04363">
        <ele>181.36685612266</ele>
        <time>2016-07-03T11:55:44Z</time>
      </trkpt>
      <trkpt lat="44.24964" lon="5.04381">
        <ele>181.39565673071</ele>
        <time>2016-07-03T11:55:48Z</time>
      </trkpt>
      <trkpt lat="44.2495" lon="5.04396">
        <ele>181.68861545436</ele>
        <time>2016-07-03T11:55:52Z</time>
      </trkpt>
      <trkpt lat="44.24935" lon="5.04411">
        <ele>181.97494197472</ele>
        <time>2016-07-03T11:55:56Z</time>
      </trkpt>
      <trkpt lat="44.24917" lon="5.04432">
        <ele>183.02594998643</ele>
        <time>2016-07-03T11:56:01Z</time>
      </trkpt>
      <trkpt lat="44.24898" lon="5.04451">
        <ele>183.73493786792</ele>
        <time>2016-07-03T11:56:06Z</time>
      </trkpt>
      <trkpt lat="44.24883" lon="5.04467">
        <ele>183.82581800079</ele>
        <time>2016-07-03T11:56:10Z</time>
      </trkpt>
      <trkpt lat="44.24868" lon="5.04483">
        <ele>183.84079248444</ele>
        <time>2016-07-03T11:56:14Z</time>
      </trkpt>
      <trkpt lat="44.2485" lon="5.04502">
        <ele>184.35591039991</ele>
        <time>2016-07-03T11:56:19Z</time>
      </trkpt>
      <trkpt lat="44.24835" lon="5.04518">
        <ele>184.76994924522</ele>
        <time>2016-07-03T11:56:23Z</time>
      </trkpt>
      <trkpt lat="44.24817" lon="5.04538">
        <ele>184.90688881278</ele>
        <time>2016-07-03T11:56:28Z</time>
      </trkpt>
      <trkpt lat="44.24802" lon="5.04554">
        <ele>185.03934166038</ele>
        <time>2016-07-03T11:56:32Z</time>
      </trkpt>
      <trkpt lat="44.24788" lon="5.04569">
        <ele>185.07577382433</ele>
        <time>2016-07-03T11:56:36Z</time>
      </trkpt>
      <trkpt lat="44.24774" lon="5.04584">
        <ele>185.62294191099</ele>
        <time>2016-07-03T11:56:40Z</time>
      </trkpt>
      <trkpt lat="44.24758" lon="5.04602">
        <ele>185.56281772586</ele>
        <time>2016-07-03T11:56:45Z</time>
      </trkpt>
      <trkpt lat="44.24743" lon="5.04618">
        <ele>185.6994525643</ele>
        <time>2016-07-03T11:56:50Z</time>
      </trkpt>
      <trkpt lat="44.2473" lon="5.04631">
        <ele>185.40670417316</ele>
        <time>2016-07-03T11:56:54Z</time>
      </trkpt>
      <trkpt lat="44.24717" lon="5.04645">
        <ele>185.10294850395</ele>
        <time>2016-07-03T11:56:58Z</time>
      </trkpt>
      <trkpt lat="44.24697" lon="5.04668">
        <ele>185.63558814522</ele>
        <time>2016-07-03T11:57:03Z</time>
      </trkpt>
      <trkpt lat="44.24678" lon="5.04688">
        <ele>186.54188199919</ele>
        <time>2016-07-03T11:57:07Z</time>
      </trkpt>
      <trkpt lat="44.24656" lon="5.0471">
        <ele>186.12815521633</ele>
        <time>2016-07-03T11:57:12Z</time>
      </trkpt>
      <trkpt lat="44.2464" lon="5.04727">
        <ele>185.69309814667</ele>
        <time>2016-07-03T11:57:16Z</time>
      </trkpt>
      <trkpt lat="44.24624" lon="5.04745">
        <ele>185.40083396586</ele>
        <time>2016-07-03T11:57:20Z</time>
      </trkpt>
      <trkpt lat="44.2461" lon="5.04761">
        <ele>186.11930982454</ele>
        <time>2016-07-03T11:57:24Z</time>
      </trkpt>
      <trkpt lat="44.24589" lon="5.04783">
        <ele>186.8036178702</ele>
        <time>2016-07-03T11:57:29Z</time>
      </trkpt>
      <trkpt lat="44.24563" lon="5.04808">
        <ele>187.02432837318</ele>
        <time>2016-07-03T11:57:34Z</time>
      </trkpt>
      <trkpt lat="44.24545" lon="5.0483">
        <ele>187.21331155021</ele>
        <time>2016-07-03T11:57:38Z</time>
      </trkpt>
      <trkpt lat="44.24528" lon="5.04851">
        <ele>187.48660929929</ele>
        <time>2016-07-03T11:57:42Z</time>
      </trkpt>
      <trkpt lat="44.2451" lon="5.04875">
        <ele>187.64760513532</ele>
        <time>2016-07-03T11:57:47Z</time>
      </trkpt>
      <trkpt lat="44.24489" lon="5.04899">
        <ele>185.8597653621</ele>
        <time>2016-07-03T11:57:52Z</time>
      </trkpt>
      <trkpt lat="44.24469" lon="5.04911">
        <ele>185.85337461984</ele>
        <time>2016-07-03T11:57:56Z</time>
      </trkpt>
      <trkpt lat="44.24443" lon="5.04926">
        <ele>186.36692628062</ele>
        <time>2016-07-03T11:58:01Z</time>
      </trkpt>
      <trkpt lat="44.24416" lon="5.04953">
        <ele>187.33184890126</ele>
        <time>2016-07-03T11:58:06Z</time>
      </trkpt>
      <trkpt lat="44.24387" lon="5.04968">
        <ele>187.0922564456</ele>
        <time>2016-07-03T11:58:11Z</time>
      </trkpt>
      <trkpt lat="44.24365" lon="5.04979">
        <ele>187.47952619595</ele>
        <time>2016-07-03T11:58:15Z</time>
      </trkpt>
      <trkpt lat="44.24335" lon="5.04993">
        <ele>188.56214871715</ele>
        <time>2016-07-03T11:58:20Z</time>
      </trkpt>
      <trkpt lat="44.24302" lon="5.05002">
        <ele>190.15550064062</ele>
        <time>2016-07-03T11:58:25Z</time>
      </trkpt>
      <trkpt lat="44.24267" lon="5.05003">
        <ele>191.16496851486</ele>
        <time>2016-07-03T11:58:30Z</time>
      </trkpt>
      <trkpt lat="44.24241" lon="5.05006">
        <ele>191.04911728846</ele>
        <time>2016-07-03T11:58:34Z</time>
      </trkpt>
      <trkpt lat="44.24209" lon="5.05009">
        <ele>190.70286207979</ele>
        <time>2016-07-03T11:58:39Z</time>
      </trkpt>
      <trkpt lat="44.24182" lon="5.05016">
        <ele>188.97145638149</ele>
        <time>2016-07-03T11:58:44Z</time>
      </trkpt>
      <trkpt lat="44.24159" lon="5.05019">
        <ele>186.59243156935</ele>
        <time>2016-07-03T11:58:48Z</time>
      </trkpt>
      <trkpt lat="44.2413" lon="5.05023">
        <ele>185.10490416227</ele>
        <time>2016-07-03T11:58:53Z</time>
      </trkpt>
      <trkpt lat="44.24105" lon="5.05025">
        <ele>184.55639788106</ele>
        <time>2016-07-03T11:58:57Z</time>
      </trkpt>
      <trkpt lat="44.24078" lon="5.05026">
        <ele>184.29597695359</ele>
        <time>2016-07-03T11:59:01Z</time>
      </trkpt>
      <trkpt lat="44.2405" lon="5.05026">
        <ele>184.48889059626</ele>
        <time>2016-07-03T11:59:06Z</time>
      </trkpt>
      <trkpt lat="44.24029" lon="5.05027">
        <ele>184.81311957127</ele>
        <time>2016-07-03T11:59:10Z</time>
      </trkpt>
      <trkpt lat="44.24003" lon="5.05027">
        <ele>186.25663027552</ele>
        <time>2016-07-03T11:59:14Z</time>
      </trkpt>
      <trkpt lat="44.23973" lon="5.05032">
        <ele>186.56339759477</ele>
        <time>2016-07-03T11:59:19Z</time>
      </trkpt>
      <trkpt lat="44.23944" lon="5.05041">
        <ele>185.39079015833</ele>
        <time>2016-07-03T11:59:24Z</time>
      </trkpt>
      <trkpt lat="44.23923" lon="5.05053">
        <ele>182.72525031979</ele>
        <time>2016-07-03T11:59:28Z</time>
      </trkpt>
      <trkpt lat="44.23902" lon="5.0507">
        <ele>180.78127411801</ele>
        <time>2016-07-03T11:59:32Z</time>
      </trkpt>
      <trkpt lat="44.23884" lon="5.05089">
        <ele>182.14556824342</ele>
        <time>2016-07-03T11:59:36Z</time>
      </trkpt>
      <trkpt lat="44.23863" lon="5.05115">
        <ele>183.42104255322</ele>
        <time>2016-07-03T11:59:41Z</time>
      </trkpt>
      <trkpt lat="44.23849" lon="5.05139">
        <ele>183.56528159318</ele>
        <time>2016-07-03T11:59:45Z</time>
      </trkpt>
      <trkpt lat="44.23832" lon="5.05173">
        <ele>185.63814103725</ele>
        <time>2016-07-03T11:59:50Z</time>
      </trkpt>
      <trkpt lat="44.23819" lon="5.05207">
        <ele>188.39759441266</ele>
        <time>2016-07-03T11:59:55Z</time>
      </trkpt>
      <trkpt lat="44.23812" lon="5.05238">
        <ele>190.52218456992</ele>
        <time>2016-07-03T11:59:59Z</time>
      </trkpt>
      <trkpt lat="44.23806" lon="5.05277">
        <ele>190.08385692084</ele>
        <time>2016-07-03T12:00:04Z</time>
      </trkpt>
      <trkpt lat="44.23803" lon="5.05312">
        <ele>189.53907780859</ele>
        <time>2016-07-03T12:00:08Z</time>
      </trkpt>
      <trkpt lat="44.238" lon="5.05348">
        <ele>189.88690720348</ele>
        <time>2016-07-03T12:00:12Z</time>
      </trkpt>
      <trkpt lat="44.23797" lon="5.05391">
        <ele>190.779926888</ele>
        <time>2016-07-03T12:00:17Z</time>
      </trkpt>
      <trkpt lat="44.23796" lon="5.05437">
        <ele>191.18409809953</ele>
        <time>2016-07-03T12:00:22Z</time>
      </trkpt>
      <trkpt lat="44.23798" lon="5.0548">
        <ele>188.6076517468</ele>
        <time>2016-07-03T12:00:27Z</time>
      </trkpt>
      <trkpt lat="44.23801" lon="5.05517">
        <ele>185.61927884073</ele>
        <time>2016-07-03T12:00:31Z</time>
      </trkpt>
      <trkpt lat="44.23805" lon="5.05561">
        <ele>183.75426013854</ele>
        <time>2016-07-03T12:00:36Z</time>
      </trkpt>
      <trkpt lat="44.23807" lon="5.05602">
        <ele>182.0211610503</ele>
        <time>2016-07-03T12:00:41Z</time>
      </trkpt>
      <trkpt lat="44.23807" lon="5.05632">
        <ele>180.91234272924</ele>
        <time>2016-07-03T12:00:45Z</time>
      </trkpt>
      <trkpt lat="44.23805" lon="5.05669">
        <ele>181.35824660875</ele>
        <time>2016-07-03T12:00:50Z</time>
      </trkpt>
      <trkpt lat="44.23801" lon="5.05699">
        <ele>182.88249902892</ele>
        <time>2016-07-03T12:00:54Z</time>
      </trkpt>
      <trkpt lat="44.23799" lon="5.05736">
        <ele>184.43881147493</ele>
        <time>2016-07-03T12:00:59Z</time>
      </trkpt>
      <trkpt lat="44.23802" lon="5.05764">
        <ele>185.08237401289</ele>
        <time>2016-07-03T12:01:03Z</time>
      </trkpt>
      <trkpt lat="44.23806" lon="5.058">
        <ele>187.30303615274</ele>
        <time>2016-07-03T12:01:08Z</time>
      </trkpt>
      <trkpt lat="44.23809" lon="5.05831">
        <ele>187.63100429587</ele>
        <time>2016-07-03T12:01:12Z</time>
      </trkpt>
      <trkpt lat="44.23811" lon="5.05863">
        <ele>186.7719517591</ele>
        <time>2016-07-03T12:01:16Z</time>
      </trkpt>
      <trkpt lat="44.23813" lon="5.05891">
        <ele>185.65573307785</ele>
        <time>2016-07-03T12:01:20Z</time>
      </trkpt>
      <trkpt lat="44.23818" lon="5.05918">
        <ele>186.25066124177</ele>
        <time>2016-07-03T12:01:24Z</time>
      </trkpt>
      <trkpt lat="44.23824" lon="5.0595">
        <ele>186.5491495049</ele>
        <time>2016-07-03T12:01:29Z</time>
      </trkpt>
      <trkpt lat="44.23829" lon="5.05974">
        <ele>188.51855501256</ele>
        <time>2016-07-03T12:01:33Z</time>
      </trkpt>
      <trkpt lat="44.23834" lon="5.06">
        <ele>190.90878820708</ele>
        <time>2016-07-03T12:01:37Z</time>
      </trkpt>
      <trkpt lat="44.23841" lon="5.06028">
        <ele>190.75948445167</ele>
        <time>2016-07-03T12:01:41Z</time>
      </trkpt>
      <trkpt lat="44.23849" lon="5.06052">
        <ele>188.93077986326</ele>
        <time>2016-07-03T12:01:45Z</time>
      </trkpt>
      <trkpt lat="44.23861" lon="5.06077">
        <ele>188.24592901063</ele>
        <time>2016-07-03T12:01:50Z</time>
      </trkpt>
      <trkpt lat="44.23875" lon="5.06093">
        <ele>190.86581516758</ele>
        <time>2016-07-03T12:01:54Z</time>
      </trkpt>
      <trkpt lat="44.23893" lon="5.06107">
        <ele>193.72983004877</ele>
        <time>2016-07-03T12:01:58Z</time>
      </trkpt>
      <trkpt lat="44.23918" lon="5.06119">
        <ele>191.54347262795</ele>
        <time>2016-07-03T12:02:03Z</time>
      </trkpt>
      <trkpt lat="44.23938" lon="5.06127">
        <ele>189.25658390631</ele>
        <time>2016-07-03T12:02:08Z</time>
      </trkpt>
      <trkpt lat="44.23955" lon="5.06135">
        <ele>188.18535098007</ele>
        <time>2016-07-03T12:02:12Z</time>
      </trkpt>
      <trkpt lat="44.23974" lon="5.06144">
        <ele>187.5664597799</ele>
        <time>2016-07-03T12:02:16Z</time>
      </trkpt>
      <trkpt lat="44.23993" lon="5.06158">
        <ele>188.07178615225</ele>
        <time>2016-07-03T12:02:20Z</time>
      </trkpt>
      <trkpt lat="44.24013" lon="5.06178">
        <ele>191.45866756898</ele>
        <time>2016-07-03T12:02:25Z</time>
      </trkpt>
      <trkpt lat="44.24028" lon="5.06198">
        <ele>193.99331584772</ele>
        <time>2016-07-03T12:02:29Z</time>
      </trkpt>
      <trkpt lat="44.24044" lon="5.06227">
        <ele>194.65137604238</ele>
        <time>2016-07-03T12:02:34Z</time>
      </trkpt>
      <trkpt lat="44.24058" lon="5.06256">
        <ele>195.23018924393</ele>
        <time>2016-07-03T12:02:39Z</time>
      </trkpt>
      <trkpt lat="44.24063" lon="5.06284">
        <ele>196.75159540515</ele>
        <time>2016-07-03T12:02:43Z</time>
      </trkpt>
      <trkpt lat="44.24067" lon="5.06312">
        <ele>195.80406799713</ele>
        <time>2016-07-03T12:02:47Z</time>
      </trkpt>
      <trkpt lat="44.24069" lon="5.06343">
        <ele>192.32197233884</ele>
        <time>2016-07-03T12:02:52Z</time>
      </trkpt>
      <trkpt lat="44.24072" lon="5.06378">
        <ele>191.05129480207</ele>
        <time>2016-07-03T12:02:57Z</time>
      </trkpt>
      <trkpt lat="44.24074" lon="5.06403">
        <ele>188.95779111275</ele>
        <time>2016-07-03T12:03:01Z</time>
      </trkpt>
      <trkpt lat="44.24077" lon="5.06437">
        <ele>188.44581294579</ele>
        <time>2016-07-03T12:03:06Z</time>
      </trkpt>
      <trkpt lat="44.24081" lon="5.06468">
        <ele>190.12659488325</ele>
        <time>2016-07-03T12:03:11Z</time>
      </trkpt>
      <trkpt lat="44.24083" lon="5.06493">
        <ele>190.81439638293</ele>
        <time>2016-07-03T12:03:15Z</time>
      </trkpt>
      <trkpt lat="44.24087" lon="5.06524">
        <ele>190.23821983997</ele>
        <time>2016-07-03T12:03:20Z</time>
      </trkpt>
      <trkpt lat="44.2409" lon="5.06549">
        <ele>189.98339757189</ele>
        <time>2016-07-03T12:03:24Z</time>
      </trkpt>
      <trkpt lat="44.24092" lon="5.06581">
        <ele>191.48068372596</ele>
        <time>2016-07-03T12:03:29Z</time>
      </trkpt>
      <trkpt lat="44.24092" lon="5.06608">
        <ele>192.93887144094</ele>
        <time>2016-07-03T12:03:33Z</time>
      </trkpt>
      <trkpt lat="44.24092" lon="5.06643">
        <ele>193.58541897314</ele>
        <time>2016-07-03T12:03:38Z</time>
      </trkpt>
      <trkpt lat="44.24094" lon="5.06672">
        <ele>194.20697417253</ele>
        <time>2016-07-03T12:03:42Z</time>
      </trkpt>
      <trkpt lat="44.24092" lon="5.06704">
        <ele>194.06960341977</ele>
        <time>2016-07-03T12:03:47Z</time>
      </trkpt>
      <trkpt lat="44.24093" lon="5.06723">
        <ele>193.99169686298</ele>
        <time>2016-07-03T12:03:51Z</time>
      </trkpt>
      <trkpt lat="44.24094" lon="5.06747">
        <ele>194.29191468209</ele>
        <time>2016-07-03T12:03:56Z</time>
      </trkpt>
      <trkpt lat="44.24094" lon="5.06764">
        <ele>194.73751234639</ele>
        <time>2016-07-03T12:04:00Z</time>
      </trkpt>
      <trkpt lat="44.24095" lon="5.06781">
        <ele>195.04136943355</ele>
        <time>2016-07-03T12:04:04Z</time>
      </trkpt>
      <trkpt lat="44.24096" lon="5.068">
        <ele>195.4430980637</ele>
        <time>2016-07-03T12:04:08Z</time>
      </trkpt>
      <trkpt lat="44.24096" lon="5.06822">
        <ele>196.44896165389</ele>
        <time>2016-07-03T12:04:12Z</time>
      </trkpt>
      <trkpt lat="44.24088" lon="5.06837">
        <ele>196.83488479663</ele>
        <time>2016-07-03T12:04:17Z</time>
      </trkpt>
      <trkpt lat="44.24069" lon="5.06837">
        <ele>197.10561099233</ele>
        <time>2016-07-03T12:04:22Z</time>
      </trkpt>
      <trkpt lat="44.24052" lon="5.06834">
        <ele>196.52496180549</ele>
        <time>2016-07-03T12:04:26Z</time>
      </trkpt>
      <trkpt lat="44.24039" lon="5.06833">
        <ele>195.95318848028</ele>
        <time>2016-07-03T12:04:30Z</time>
      </trkpt>
      <trkpt lat="44.24019" lon="5.06829">
        <ele>196.29049828254</ele>
        <time>2016-07-03T12:04:35Z</time>
      </trkpt>
      <trkpt lat="44.24" lon="5.06826">
        <ele>196.49771310316</ele>
        <time>2016-07-03T12:04:39Z</time>
      </trkpt>
      <trkpt lat="44.23975" lon="5.06821">
        <ele>196.69938990714</ele>
        <time>2016-07-03T12:04:44Z</time>
      </trkpt>
      <trkpt lat="44.23956" lon="5.06818">
        <ele>195.50793565353</ele>
        <time>2016-07-03T12:04:48Z</time>
      </trkpt>
      <trkpt lat="44.23938" lon="5.06815">
        <ele>193.66501328263</ele>
        <time>2016-07-03T12:04:53Z</time>
      </trkpt>
      <trkpt lat="44.23918" lon="5.06804">
        <ele>191.83232027853</ele>
        <time>2016-07-03T12:04:58Z</time>
      </trkpt>
      <trkpt lat="44.23899" lon="5.068">
        <ele>191.85516968492</ele>
        <time>2016-07-03T12:05:02Z</time>
      </trkpt>
      <trkpt lat="44.23899" lon="5.06817">
        <ele>193.94487847344</ele>
        <time>2016-07-03T12:05:06Z</time>
      </trkpt>
      <trkpt lat="44.23909" lon="5.06849">
        <ele>195.52079081098</ele>
        <time>2016-07-03T12:05:11Z</time>
      </trkpt>
      <trkpt lat="44.23917" lon="5.06879">
        <ele>194.81156971834</ele>
        <time>2016-07-03T12:05:15Z</time>
      </trkpt>
      <trkpt lat="44.23927" lon="5.06915">
        <ele>193.74182951576</ele>
        <time>2016-07-03T12:05:20Z</time>
      </trkpt>
      <trkpt lat="44.23934" lon="5.06942">
        <ele>193.08618946982</ele>
        <time>2016-07-03T12:05:24Z</time>
      </trkpt>
      <trkpt lat="44.2394" lon="5.0698">
        <ele>193.30716865385</ele>
        <time>2016-07-03T12:05:29Z</time>
      </trkpt>
      <trkpt lat="44.23942" lon="5.07008">
        <ele>195.31945045692</ele>
        <time>2016-07-03T12:05:33Z</time>
      </trkpt>
      <trkpt lat="44.23939" lon="5.07046">
        <ele>196.27375673384</ele>
        <time>2016-07-03T12:05:38Z</time>
      </trkpt>
      <trkpt lat="44.23935" lon="5.07075">
        <ele>196.41727658516</ele>
        <time>2016-07-03T12:05:42Z</time>
      </trkpt>
      <trkpt lat="44.23933" lon="5.07104">
        <ele>195.76966381444</ele>
        <time>2016-07-03T12:05:46Z</time>
      </trkpt>
      <trkpt lat="44.23929" lon="5.07149">
        <ele>198.70169925205</ele>
        <time>2016-07-03T12:05:51Z</time>
      </trkpt>
      <trkpt lat="44.23927" lon="5.07177">
        <ele>199.61914222048</ele>
        <time>2016-07-03T12:05:55Z</time>
      </trkpt>
      <trkpt lat="44.23924" lon="5.0721">
        <ele>200.71465858484</ele>
        <time>2016-07-03T12:06:00Z</time>
      </trkpt>
      <trkpt lat="44.23922" lon="5.0724">
        <ele>200.87103586261</ele>
        <time>2016-07-03T12:06:04Z</time>
      </trkpt>
      <trkpt lat="44.23919" lon="5.07278">
        <ele>201.07750585383</ele>
        <time>2016-07-03T12:06:09Z</time>
      </trkpt>
      <trkpt lat="44.23914" lon="5.07309">
        <ele>201.17469582474</ele>
        <time>2016-07-03T12:06:13Z</time>
      </trkpt>
      <trkpt lat="44.23907" lon="5.07335">
        <ele>202.08953363124</ele>
        <time>2016-07-03T12:06:17Z</time>
      </trkpt>
      <trkpt lat="44.23902" lon="5.07357">
        <ele>205.20966352235</ele>
        <time>2016-07-03T12:06:21Z</time>
      </trkpt>
      <trkpt lat="44.23899" lon="5.07382">
        <ele>206.70527013811</ele>
        <time>2016-07-03T12:06:25Z</time>
      </trkpt>
      <trkpt lat="44.23894" lon="5.07415">
        <ele>207.46598617588</ele>
        <time>2016-07-03T12:06:30Z</time>
      </trkpt>
      <trkpt lat="44.23889" lon="5.07439">
        <ele>207.68538213055</ele>
        <time>2016-07-03T12:06:35Z</time>
      </trkpt>
      <trkpt lat="44.23886" lon="5.07452">
        <ele>207.72137354745</ele>
        <time>2016-07-03T12:06:39Z</time>
      </trkpt>
      <trkpt lat="44.2389" lon="5.07467">
        <ele>207.81989316677</ele>
        <time>2016-07-03T12:06:44Z</time>
      </trkpt>
      <trkpt lat="44.23895" lon="5.07478">
        <ele>207.91140483667</ele>
        <time>2016-07-03T12:06:48Z</time>
      </trkpt>
      <trkpt lat="44.23887" lon="5.07501">
        <ele>207.23997914587</ele>
        <time>2016-07-03T12:06:53Z</time>
      </trkpt>
      <trkpt lat="44.23878" lon="5.07518">
        <ele>205.77601471861</ele>
        <time>2016-07-03T12:06:57Z</time>
      </trkpt>
      <trkpt lat="44.23868" lon="5.07541">
        <ele>203.49516410717</ele>
        <time>2016-07-03T12:07:02Z</time>
      </trkpt>
      <trkpt lat="44.23857" lon="5.07561">
        <ele>205.28201414611</ele>
        <time>2016-07-03T12:07:06Z</time>
      </trkpt>
      <trkpt lat="44.23848" lon="5.07588">
        <ele>206.22967625422</ele>
        <time>2016-07-03T12:07:10Z</time>
      </trkpt>
      <trkpt lat="44.23836" lon="5.07623">
        <ele>210.8947906969</ele>
        <time>2016-07-03T12:07:15Z</time>
      </trkpt>
      <trkpt lat="44.2383" lon="5.07646">
        <ele>208.31228571855</ele>
        <time>2016-07-03T12:07:19Z</time>
      </trkpt>
      <trkpt lat="44.23822" lon="5.07674">
        <ele>207.09249169441</ele>
        <time>2016-07-03T12:07:24Z</time>
      </trkpt>
      <trkpt lat="44.23815" lon="5.07699">
        <ele>206.00540246395</ele>
        <time>2016-07-03T12:07:28Z</time>
      </trkpt>
      <trkpt lat="44.23801" lon="5.07734">
        <ele>203.84967494354</ele>
        <time>2016-07-03T12:07:33Z</time>
      </trkpt>
      <trkpt lat="44.23789" lon="5.0777">
        <ele>201.30804824051</ele>
        <time>2016-07-03T12:07:38Z</time>
      </trkpt>
      <trkpt lat="44.23785" lon="5.07798">
        <ele>200.18333761919</ele>
        <time>2016-07-03T12:07:42Z</time>
      </trkpt>
      <trkpt lat="44.23785" lon="5.07842">
        <ele>200.02004585614</ele>
        <time>2016-07-03T12:07:47Z</time>
      </trkpt>
      <trkpt lat="44.23788" lon="5.07878">
        <ele>200.09233255915</ele>
        <time>2016-07-03T12:07:51Z</time>
      </trkpt>
      <trkpt lat="44.23788" lon="5.07911">
        <ele>199.88899423473</ele>
        <time>2016-07-03T12:07:55Z</time>
      </trkpt>
      <trkpt lat="44.23792" lon="5.07952">
        <ele>199.32767036035</ele>
        <time>2016-07-03T12:08:00Z</time>
      </trkpt>
      <trkpt lat="44.23796" lon="5.07984">
        <ele>197.6727366556</ele>
        <time>2016-07-03T12:08:04Z</time>
      </trkpt>
      <trkpt lat="44.23794" lon="5.08024">
        <ele>195.77777827432</ele>
        <time>2016-07-03T12:08:09Z</time>
      </trkpt>
      <trkpt lat="44.23788" lon="5.08055">
        <ele>196.92010091586</ele>
        <time>2016-07-03T12:08:13Z</time>
      </trkpt>
      <trkpt lat="44.23773" lon="5.0809">
        <ele>197.11230888236</ele>
        <time>2016-07-03T12:08:18Z</time>
      </trkpt>
      <trkpt lat="44.23759" lon="5.08112">
        <ele>197.71960952005</ele>
        <time>2016-07-03T12:08:22Z</time>
      </trkpt>
      <trkpt lat="44.23744" lon="5.0813">
        <ele>198.86798081664</ele>
        <time>2016-07-03T12:08:26Z</time>
      </trkpt>
      <trkpt lat="44.23722" lon="5.08153">
        <ele>201.87302261469</ele>
        <time>2016-07-03T12:08:31Z</time>
      </trkpt>
      <trkpt lat="44.23705" lon="5.08177">
        <ele>203.00289545843</ele>
        <time>2016-07-03T12:08:36Z</time>
      </trkpt>
      <trkpt lat="44.2369" lon="5.08206">
        <ele>202.30746003578</ele>
        <time>2016-07-03T12:08:41Z</time>
      </trkpt>
      <trkpt lat="44.23686" lon="5.08236">
        <ele>202.24006030894</ele>
        <time>2016-07-03T12:08:45Z</time>
      </trkpt>
      <trkpt lat="44.23692" lon="5.08273">
        <ele>202.931867692</ele>
        <time>2016-07-03T12:08:50Z</time>
      </trkpt>
      <trkpt lat="44.23697" lon="5.08302">
        <ele>203.69698179288</ele>
        <time>2016-07-03T12:08:54Z</time>
      </trkpt>
      <trkpt lat="44.23698" lon="5.0833">
        <ele>202.79005387078</ele>
        <time>2016-07-03T12:08:58Z</time>
      </trkpt>
      <trkpt lat="44.23683" lon="5.08365">
        <ele>200.59732754649</ele>
        <time>2016-07-03T12:09:03Z</time>
      </trkpt>
      <trkpt lat="44.23679" lon="5.08399">
        <ele>199.93999387716</ele>
        <time>2016-07-03T12:09:07Z</time>
      </trkpt>
      <trkpt lat="44.2368" lon="5.08433">
        <ele>200.32376816292</ele>
        <time>2016-07-03T12:09:11Z</time>
      </trkpt>
      <trkpt lat="44.23676" lon="5.08461">
        <ele>199.80200929112</ele>
        <time>2016-07-03T12:09:15Z</time>
      </trkpt>
      <trkpt lat="44.23665" lon="5.08485">
        <ele>198.79960688861</ele>
        <time>2016-07-03T12:09:20Z</time>
      </trkpt>
      <trkpt lat="44.23648" lon="5.08516">
        <ele>199.4334960366</ele>
        <time>2016-07-03T12:09:25Z</time>
      </trkpt>
      <trkpt lat="44.23637" lon="5.08537">
        <ele>200.40483645518</ele>
        <time>2016-07-03T12:09:29Z</time>
      </trkpt>
      <trkpt lat="44.23623" lon="5.08563">
        <ele>198.48226775524</ele>
        <time>2016-07-03T12:09:34Z</time>
      </trkpt>
      <trkpt lat="44.2361" lon="5.08587">
        <ele>199.3299271415</ele>
        <time>2016-07-03T12:09:38Z</time>
      </trkpt>
      <trkpt lat="44.23598" lon="5.08613">
        <ele>201.58876895839</ele>
        <time>2016-07-03T12:09:42Z</time>
      </trkpt>
      <trkpt lat="44.23588" lon="5.08636">
        <ele>202.13028835703</ele>
        <time>2016-07-03T12:09:47Z</time>
      </trkpt>
      <trkpt lat="44.23582" lon="5.08653">
        <ele>202.08932637373</ele>
        <time>2016-07-03T12:09:51Z</time>
      </trkpt>
      <trkpt lat="44.23573" lon="5.08672">
        <ele>202.01780604605</ele>
        <time>2016-07-03T12:09:56Z</time>
      </trkpt>
      <trkpt lat="44.23555" lon="5.08691">
        <ele>202.41931218055</ele>
        <time>2016-07-03T12:10:01Z</time>
      </trkpt>
      <trkpt lat="44.23539" lon="5.08705">
        <ele>203.32092840657</ele>
        <time>2016-07-03T12:10:05Z</time>
      </trkpt>
      <trkpt lat="44.23521" lon="5.08724">
        <ele>204.19064911716</ele>
        <time>2016-07-03T12:10:09Z</time>
      </trkpt>
      <trkpt lat="44.23498" lon="5.08748">
        <ele>202.42092722044</ele>
        <time>2016-07-03T12:10:14Z</time>
      </trkpt>
      <trkpt lat="44.23476" lon="5.0877">
        <ele>200.9037916437</ele>
        <time>2016-07-03T12:10:19Z</time>
      </trkpt>
      <trkpt lat="44.23458" lon="5.08787">
        <ele>202.70724095659</ele>
        <time>2016-07-03T12:10:23Z</time>
      </trkpt>
      <trkpt lat="44.23443" lon="5.08804">
        <ele>202.73036071882</ele>
        <time>2016-07-03T12:10:27Z</time>
      </trkpt>
      <trkpt lat="44.23423" lon="5.08827">
        <ele>201.82196439766</ele>
        <time>2016-07-03T12:10:32Z</time>
      </trkpt>
      <trkpt lat="44.23403" lon="5.08849">
        <ele>201.46759139299</ele>
        <time>2016-07-03T12:10:37Z</time>
      </trkpt>
      <trkpt lat="44.23389" lon="5.08865">
        <ele>202.02250183947</ele>
        <time>2016-07-03T12:10:41Z</time>
      </trkpt>
      <trkpt lat="44.23373" lon="5.08886">
        <ele>201.89682677663</ele>
        <time>2016-07-03T12:10:46Z</time>
      </trkpt>
      <trkpt lat="44.23359" lon="5.08903">
        <ele>201.5452297033</ele>
        <time>2016-07-03T12:10:50Z</time>
      </trkpt>
      <trkpt lat="44.23345" lon="5.08926">
        <ele>201.88107472271</ele>
        <time>2016-07-03T12:10:55Z</time>
      </trkpt>
      <trkpt lat="44.23356" lon="5.08944">
        <ele>202.02769069564</ele>
        <time>2016-07-03T12:10:59Z</time>
      </trkpt>
      <trkpt lat="44.23377" lon="5.08932">
        <ele>203.98381174852</ele>
        <time>2016-07-03T12:11:04Z</time>
      </trkpt>
      <trkpt lat="44.23392" lon="5.08915">
        <ele>205.678432674</ele>
        <time>2016-07-03T12:11:08Z</time>
      </trkpt>
      <trkpt lat="44.23408" lon="5.08907">
        <ele>207.20324189171</ele>
        <time>2016-07-03T12:11:12Z</time>
      </trkpt>
      <trkpt lat="44.23419" lon="5.08925">
        <ele>208.93366055072</ele>
        <time>2016-07-03T12:11:17Z</time>
      </trkpt>
      <trkpt lat="44.23429" lon="5.08948">
        <ele>210.24916324622</ele>
        <time>2016-07-03T12:11:22Z</time>
      </trkpt>
      <trkpt lat="44.23431" lon="5.08963">
        <ele>210.2736063548</ele>
        <time>2016-07-03T12:11:26Z</time>
      </trkpt>
      <trkpt lat="44.23436" lon="5.08974">
        <ele>210.21229737743</ele>
        <time>2016-07-03T12:11:31Z</time>
      </trkpt>
      <trkpt lat="44.2344" lon="5.08998">
        <ele>210.39396710267</ele>
        <time>2016-07-03T12:11:36Z</time>
      </trkpt>
      <trkpt lat="44.23436" lon="5.09018">
        <ele>209.9800700773</ele>
        <time>2016-07-03T12:11:40Z</time>
      </trkpt>
      <trkpt lat="44.23444" lon="5.09031">
        <ele>210.22076130885</ele>
        <time>2016-07-03T12:11:44Z</time>
      </trkpt>
      <trkpt lat="44.23447" lon="5.09048">
        <ele>210.82549353687</ele>
        <time>2016-07-03T12:11:49Z</time>
      </trkpt>
      <trkpt lat="44.23445" lon="5.09063">
        <ele>211.49599016551</ele>
        <time>2016-07-03T12:11:53Z</time>
      </trkpt>
      <trkpt lat="44.23452" lon="5.09079">
        <ele>212.47660495272</ele>
        <time>2016-07-03T12:11:58Z</time>
      </trkpt>
      <trkpt lat="44.23468" lon="5.09079">
        <ele>213.57635103969</ele>
        <time>2016-07-03T12:12:03Z</time>
      </trkpt>
      <trkpt lat="44.23481" lon="5.09076">
        <ele>214.41174637873</ele>
        <time>2016-07-03T12:12:07Z</time>
      </trkpt>
      <trkpt lat="44.23498" lon="5.09065">
        <ele>215.33555220962</ele>
        <time>2016-07-03T12:12:12Z</time>
      </trkpt>
      <trkpt lat="44.23508" lon="5.0905">
        <ele>216.01157159376</ele>
        <time>2016-07-03T12:12:16Z</time>
      </trkpt>
      <trkpt lat="44.23506" lon="5.09031">
        <ele>217.00309878804</ele>
        <time>2016-07-03T12:12:21Z</time>
      </trkpt>
      <trkpt lat="44.23505" lon="5.09011">
        <ele>218.59927290912</ele>
        <time>2016-07-03T12:12:25Z</time>
      </trkpt>
      <trkpt lat="44.23522" lon="5.08992">
        <ele>221.0141035861</ele>
        <time>2016-07-03T12:12:30Z</time>
      </trkpt>
      <trkpt lat="44.23541" lon="5.08981">
        <ele>224.10201360021</ele>
        <time>2016-07-03T12:12:35Z</time>
      </trkpt>
      <trkpt lat="44.23558" lon="5.08973">
        <ele>223.50403783894</ele>
        <time>2016-07-03T12:12:39Z</time>
      </trkpt>
      <trkpt lat="44.23572" lon="5.08966">
        <ele>222.64206268202</ele>
        <time>2016-07-03T12:12:43Z</time>
      </trkpt>
      <trkpt lat="44.23587" lon="5.08958">
        <ele>221.76446740179</ele>
        <time>2016-07-03T12:12:47Z</time>
      </trkpt>
      <trkpt lat="44.23602" lon="5.08951">
        <ele>221.25676577802</ele>
        <time>2016-07-03T12:12:51Z</time>
      </trkpt>
      <trkpt lat="44.2361" lon="5.08948">
        <ele>221.40742178672</ele>
        <time>2016-07-03T12:12:56Z</time>
      </trkpt>
      <trkpt lat="44.23619" lon="5.08946">
        <ele>224.62733224439</ele>
        <time>2016-07-03T12:14:13Z</time>
      </trkpt>
      <trkpt lat="44.23627" lon="5.08949">
        <ele>229.98893240012</ele>
        <time>2016-07-03T12:14:48Z</time>
      </trkpt>
      <trkpt lat="44.23634" lon="5.08956">
        <ele>226.50110357406</ele>
        <time>2016-07-03T12:16:50Z</time>
      </trkpt>
      <trkpt lat="44.23639" lon="5.08965">
        <ele>226.40469942395</ele>
        <time>2016-07-03T12:16:59Z</time>
      </trkpt>
      <trkpt lat="44.23641" lon="5.08977">
        <ele>227.03324220483</ele>
        <time>2016-07-03T12:17:07Z</time>
      </trkpt>
      <trkpt lat="44.23645" lon="5.08987">
        <ele>226.88045348302</ele>
        <time>2016-07-03T12:17:20Z</time>
      </trkpt>
      <trkpt lat="44.23648" lon="5.08999">
        <ele>226.40242972305</ele>
        <time>2016-07-03T12:17:39Z</time>
      </trkpt>
      <trkpt lat="44.23646" lon="5.09">
        <ele>225.17737579088</ele>
        <time>2016-07-03T12:19:23Z</time>
      </trkpt>
      <trkpt lat="44.23654" lon="5.08993">
        <ele>225.2994662384</ele>
        <time>2016-07-03T12:19:28Z</time>
      </trkpt>
      <trkpt lat="44.23651" lon="5.08998">
        <ele>225.82729607375</ele>
        <time>2016-07-03T12:19:39Z</time>
      </trkpt>
      <trkpt lat="44.23651" lon="5.08998">
        <ele>225.82729607375</ele>
        <time>2016-07-03T12:19:39Z</time>
      </trkpt>
    </trkseg>
  </trk>
</gpx>